<?xml version="1.0" encoding="UTF-8" standalone="no" ?>
<gpx xmlns="http://www.topografix.com/GPX/1/1" xmlns:xsi="http://www.w3.org/2001/XMLSchema-instance" xsi:schemaLocation="http://www.topografix.com/GPX/1/1 http://www.topografix.com/GPX/1/1/gpx.xsd" version="1.1" creator="VisuGPX - https://www.visugpx.com">
  <metadata>
    <name>Saint-Jean-Saverne</name>
    <desc><![CDATA[Sortie d\'équipe Alcatel-Lucent TxA 2013 au départ de Saint-Jean-Saverne]]></desc>
  </metadata>
  <trk>
    <name><![CDATA[Saint-Jean-Saverne]]></name>
    <trkseg>
      <trkpt lat="48.77348" lon="7.36688">
        <ele>248.80000305176</ele>
        <time>2013-09-27T08:13:59.000Z</time>
      </trkpt>
      <trkpt lat="48.77348" lon="7.36689">
        <ele>248.80000305176</ele>
        <time>2013-09-27T08:14:01.000Z</time>
      </trkpt>
      <trkpt lat="48.77346" lon="7.36689">
        <ele>247.80000305176</ele>
        <time>2013-09-27T08:14:27.000Z</time>
      </trkpt>
      <trkpt lat="48.77348" lon="7.36689">
        <ele>247.19999694824</ele>
        <time>2013-09-27T08:14:50.000Z</time>
      </trkpt>
      <trkpt lat="48.7735" lon="7.36688">
        <ele>248.80000305176</ele>
        <time>2013-09-27T08:15:12.000Z</time>
      </trkpt>
      <trkpt lat="48.7736" lon="7.3671">
        <ele>248</ele>
        <time>2013-09-27T08:15:33.000Z</time>
      </trkpt>
      <trkpt lat="48.7736" lon="7.36709">
        <ele>248</ele>
        <time>2013-09-27T08:15:58.000Z</time>
      </trkpt>
      <trkpt lat="48.7736" lon="7.36709">
        <ele>248</ele>
        <time>2013-09-27T08:16:17.000Z</time>
      </trkpt>
      <trkpt lat="48.77363" lon="7.36707">
        <ele>248</ele>
        <time>2013-09-27T08:16:45.000Z</time>
      </trkpt>
      <trkpt lat="48.77362" lon="7.36707">
        <ele>248</ele>
        <time>2013-09-27T08:17:10.000Z</time>
      </trkpt>
      <trkpt lat="48.77361" lon="7.36704">
        <ele>247.60000610352</ele>
        <time>2013-09-27T08:17:41.000Z</time>
      </trkpt>
      <trkpt lat="48.77359" lon="7.36699">
        <ele>248</ele>
        <time>2013-09-27T08:18:00.000Z</time>
      </trkpt>
      <trkpt lat="48.77359" lon="7.36698">
        <ele>248</ele>
        <time>2013-09-27T08:18:28.000Z</time>
      </trkpt>
      <trkpt lat="48.77358" lon="7.367">
        <ele>248</ele>
        <time>2013-09-27T08:18:30.000Z</time>
      </trkpt>
      <trkpt lat="48.77365" lon="7.36706">
        <ele>248</ele>
        <time>2013-09-27T08:18:40.000Z</time>
      </trkpt>
      <trkpt lat="48.77362" lon="7.36703">
        <ele>248</ele>
        <time>2013-09-27T08:19:04.000Z</time>
      </trkpt>
      <trkpt lat="48.77359" lon="7.36701">
        <ele>247.80000305176</ele>
        <time>2013-09-27T08:19:10.000Z</time>
      </trkpt>
      <trkpt lat="48.77349" lon="7.36721">
        <ele>244.19999694824</ele>
        <time>2013-09-27T08:19:19.000Z</time>
      </trkpt>
      <trkpt lat="48.77348" lon="7.36723">
        <ele>244</ele>
        <time>2013-09-27T08:19:20.000Z</time>
      </trkpt>
      <trkpt lat="48.77334" lon="7.36717">
        <ele>243.19999694824</ele>
        <time>2013-09-27T08:19:36.000Z</time>
      </trkpt>
      <trkpt lat="48.77318" lon="7.36706">
        <ele>243</ele>
        <time>2013-09-27T08:19:53.000Z</time>
      </trkpt>
      <trkpt lat="48.77276" lon="7.36674">
        <ele>241.60000610352</ele>
        <time>2013-09-27T08:20:06.000Z</time>
      </trkpt>
      <trkpt lat="48.77272" lon="7.3667">
        <ele>241.19999694824</ele>
        <time>2013-09-27T08:20:07.000Z</time>
      </trkpt>
      <trkpt lat="48.77254" lon="7.36658">
        <ele>241</ele>
        <time>2013-09-27T08:20:11.000Z</time>
      </trkpt>
      <trkpt lat="48.77195" lon="7.36597">
        <ele>239.80000305176</ele>
        <time>2013-09-27T08:20:27.000Z</time>
      </trkpt>
      <trkpt lat="48.77191" lon="7.36594">
        <ele>239.80000305176</ele>
        <time>2013-09-27T08:20:28.000Z</time>
      </trkpt>
      <trkpt lat="48.77168" lon="7.36581">
        <ele>239</ele>
        <time>2013-09-27T08:20:33.000Z</time>
      </trkpt>
      <trkpt lat="48.7713" lon="7.36568">
        <ele>237.60000610352</ele>
        <time>2013-09-27T08:20:39.000Z</time>
      </trkpt>
      <trkpt lat="48.77106" lon="7.36546">
        <ele>235</ele>
        <time>2013-09-27T08:20:44.000Z</time>
      </trkpt>
      <trkpt lat="48.77096" lon="7.36555">
        <ele>234.80000305176</ele>
        <time>2013-09-27T08:20:48.000Z</time>
      </trkpt>
      <trkpt lat="48.77094" lon="7.36589">
        <ele>233.19999694824</ele>
        <time>2013-09-27T08:20:52.000Z</time>
      </trkpt>
      <trkpt lat="48.77091" lon="7.36609">
        <ele>232.80000305176</ele>
        <time>2013-09-27T08:20:54.000Z</time>
      </trkpt>
      <trkpt lat="48.77069" lon="7.36663">
        <ele>230</ele>
        <time>2013-09-27T08:20:59.000Z</time>
      </trkpt>
      <trkpt lat="48.77026" lon="7.36726">
        <ele>226</ele>
        <time>2013-09-27T08:21:05.000Z</time>
      </trkpt>
      <trkpt lat="48.7698" lon="7.3679">
        <ele>222.80000305176</ele>
        <time>2013-09-27T08:21:11.000Z</time>
      </trkpt>
      <trkpt lat="48.76934" lon="7.36857">
        <ele>219.80000305176</ele>
        <time>2013-09-27T08:21:18.000Z</time>
      </trkpt>
      <trkpt lat="48.76905" lon="7.369">
        <ele>217.60000610352</ele>
        <time>2013-09-27T08:21:23.000Z</time>
      </trkpt>
      <trkpt lat="48.76836" lon="7.37001">
        <ele>214.60000610352</ele>
        <time>2013-09-27T08:21:35.000Z</time>
      </trkpt>
      <trkpt lat="48.76761" lon="7.37114">
        <ele>211.19999694824</ele>
        <time>2013-09-27T08:21:48.000Z</time>
      </trkpt>
      <trkpt lat="48.76734" lon="7.37151">
        <ele>209.19999694824</ele>
        <time>2013-09-27T08:21:52.000Z</time>
      </trkpt>
      <trkpt lat="48.76678" lon="7.37182">
        <ele>205.60000610352</ele>
        <time>2013-09-27T08:21:58.000Z</time>
      </trkpt>
      <trkpt lat="48.76658" lon="7.37178">
        <ele>204</ele>
        <time>2013-09-27T08:22:00.000Z</time>
      </trkpt>
      <trkpt lat="48.76596" lon="7.37157">
        <ele>200.19999694824</ele>
        <time>2013-09-27T08:22:06.000Z</time>
      </trkpt>
      <trkpt lat="48.76585" lon="7.37154">
        <ele>199.80000305176</ele>
        <time>2013-09-27T08:22:07.000Z</time>
      </trkpt>
      <trkpt lat="48.7652" lon="7.37178">
        <ele>197</ele>
        <time>2013-09-27T08:22:14.000Z</time>
      </trkpt>
      <trkpt lat="48.76445" lon="7.37247">
        <ele>195.60000610352</ele>
        <time>2013-09-27T08:22:25.000Z</time>
      </trkpt>
      <trkpt lat="48.76422" lon="7.37285">
        <ele>195.60000610352</ele>
        <time>2013-09-27T08:22:30.000Z</time>
      </trkpt>
      <trkpt lat="48.76413" lon="7.37313">
        <ele>195.60000610352</ele>
        <time>2013-09-27T08:22:33.000Z</time>
      </trkpt>
      <trkpt lat="48.76392" lon="7.37412">
        <ele>195</ele>
        <time>2013-09-27T08:22:43.000Z</time>
      </trkpt>
      <trkpt lat="48.76379" lon="7.37436">
        <ele>194.80000305176</ele>
        <time>2013-09-27T08:22:46.000Z</time>
      </trkpt>
      <trkpt lat="48.76297" lon="7.37516">
        <ele>193.19999694824</ele>
        <time>2013-09-27T08:23:01.000Z</time>
      </trkpt>
      <trkpt lat="48.76215" lon="7.37589">
        <ele>191.60000610352</ele>
        <time>2013-09-27T08:23:15.000Z</time>
      </trkpt>
      <trkpt lat="48.7613" lon="7.37698">
        <ele>189.60000610352</ele>
        <time>2013-09-27T08:23:31.000Z</time>
      </trkpt>
      <trkpt lat="48.76065" lon="7.37788">
        <ele>189</ele>
        <time>2013-09-27T08:23:46.000Z</time>
      </trkpt>
      <trkpt lat="48.76052" lon="7.37801">
        <ele>189.19999694824</ele>
        <time>2013-09-27T08:23:49.000Z</time>
      </trkpt>
      <trkpt lat="48.75967" lon="7.37823">
        <ele>186</ele>
        <time>2013-09-27T08:24:01.000Z</time>
      </trkpt>
      <trkpt lat="48.75933" lon="7.37827">
        <ele>184</ele>
        <time>2013-09-27T08:24:05.000Z</time>
      </trkpt>
      <trkpt lat="48.75896" lon="7.37815">
        <ele>182</ele>
        <time>2013-09-27T08:24:09.000Z</time>
      </trkpt>
      <trkpt lat="48.75868" lon="7.37813">
        <ele>181</ele>
        <time>2013-09-27T08:24:12.000Z</time>
      </trkpt>
      <trkpt lat="48.75814" lon="7.37799">
        <ele>177</ele>
        <time>2013-09-27T08:24:18.000Z</time>
      </trkpt>
      <trkpt lat="48.75807" lon="7.37796">
        <ele>176.19999694824</ele>
        <time>2013-09-27T08:24:19.000Z</time>
      </trkpt>
      <trkpt lat="48.75791" lon="7.37804">
        <ele>174.60000610352</ele>
        <time>2013-09-27T08:24:23.000Z</time>
      </trkpt>
      <trkpt lat="48.75793" lon="7.37821">
        <ele>174.60000610352</ele>
        <time>2013-09-27T08:24:25.000Z</time>
      </trkpt>
      <trkpt lat="48.75816" lon="7.37923">
        <ele>173</ele>
        <time>2013-09-27T08:24:36.000Z</time>
      </trkpt>
      <trkpt lat="48.75806" lon="7.37967">
        <ele>172</ele>
        <time>2013-09-27T08:24:42.000Z</time>
      </trkpt>
      <trkpt lat="48.75779" lon="7.37977">
        <ele>171.19999694824</ele>
        <time>2013-09-27T08:24:46.000Z</time>
      </trkpt>
      <trkpt lat="48.75742" lon="7.37988">
        <ele>170.80000305176</ele>
        <time>2013-09-27T08:24:52.000Z</time>
      </trkpt>
      <trkpt lat="48.75651" lon="7.3797">
        <ele>169.80000305176</ele>
        <time>2013-09-27T08:25:07.000Z</time>
      </trkpt>
      <trkpt lat="48.75637" lon="7.37964">
        <ele>169.80000305176</ele>
        <time>2013-09-27T08:25:10.000Z</time>
      </trkpt>
      <trkpt lat="48.75616" lon="7.37963">
        <ele>170</ele>
        <time>2013-09-27T08:25:14.000Z</time>
      </trkpt>
      <trkpt lat="48.756" lon="7.37969">
        <ele>170</ele>
        <time>2013-09-27T08:25:17.000Z</time>
      </trkpt>
      <trkpt lat="48.7558" lon="7.37985">
        <ele>170</ele>
        <time>2013-09-27T08:25:21.000Z</time>
      </trkpt>
      <trkpt lat="48.75522" lon="7.38031">
        <ele>169.60000610352</ele>
        <time>2013-09-27T08:25:34.000Z</time>
      </trkpt>
      <trkpt lat="48.75494" lon="7.38049">
        <ele>169.19999694824</ele>
        <time>2013-09-27T08:25:40.000Z</time>
      </trkpt>
      <trkpt lat="48.7543" lon="7.38113">
        <ele>169</ele>
        <time>2013-09-27T08:25:55.000Z</time>
      </trkpt>
      <trkpt lat="48.75425" lon="7.38117">
        <ele>169</ele>
        <time>2013-09-27T08:25:56.000Z</time>
      </trkpt>
      <trkpt lat="48.75364" lon="7.38189">
        <ele>169</ele>
        <time>2013-09-27T08:26:10.000Z</time>
      </trkpt>
      <trkpt lat="48.75352" lon="7.38202">
        <ele>169</ele>
        <time>2013-09-27T08:26:13.000Z</time>
      </trkpt>
      <trkpt lat="48.75332" lon="7.38226">
        <ele>169.80000305176</ele>
        <time>2013-09-27T08:26:18.000Z</time>
      </trkpt>
      <trkpt lat="48.75264" lon="7.38306">
        <ele>170.60000610352</ele>
        <time>2013-09-27T08:26:35.000Z</time>
      </trkpt>
      <trkpt lat="48.75232" lon="7.38342">
        <ele>170.80000305176</ele>
        <time>2013-09-27T08:26:44.000Z</time>
      </trkpt>
      <trkpt lat="48.75175" lon="7.38427">
        <ele>170.60000610352</ele>
        <time>2013-09-27T08:26:59.000Z</time>
      </trkpt>
      <trkpt lat="48.75153" lon="7.38474">
        <ele>173.19999694824</ele>
        <time>2013-09-27T08:27:10.000Z</time>
      </trkpt>
      <trkpt lat="48.75136" lon="7.38509">
        <ele>175.19999694824</ele>
        <time>2013-09-27T08:27:19.000Z</time>
      </trkpt>
      <trkpt lat="48.75123" lon="7.38497">
        <ele>175</ele>
        <time>2013-09-27T08:27:24.000Z</time>
      </trkpt>
      <trkpt lat="48.75111" lon="7.38482">
        <ele>174.19999694824</ele>
        <time>2013-09-27T08:27:27.000Z</time>
      </trkpt>
      <trkpt lat="48.75045" lon="7.38427">
        <ele>174</ele>
        <time>2013-09-27T08:27:40.000Z</time>
      </trkpt>
      <trkpt lat="48.74984" lon="7.38364">
        <ele>174</ele>
        <time>2013-09-27T08:27:54.000Z</time>
      </trkpt>
      <trkpt lat="48.7498" lon="7.3836">
        <ele>174</ele>
        <time>2013-09-27T08:27:55.000Z</time>
      </trkpt>
      <trkpt lat="48.74923" lon="7.38282">
        <ele>174</ele>
        <time>2013-09-27T08:28:11.000Z</time>
      </trkpt>
      <trkpt lat="48.74858" lon="7.38188">
        <ele>173.80000305176</ele>
        <time>2013-09-27T08:28:28.000Z</time>
      </trkpt>
      <trkpt lat="48.74824" lon="7.38134">
        <ele>173.80000305176</ele>
        <time>2013-09-27T08:28:37.000Z</time>
      </trkpt>
      <trkpt lat="48.74758" lon="7.38026">
        <ele>174</ele>
        <time>2013-09-27T08:28:53.000Z</time>
      </trkpt>
      <trkpt lat="48.74692" lon="7.37907">
        <ele>174</ele>
        <time>2013-09-27T08:29:09.000Z</time>
      </trkpt>
      <trkpt lat="48.74639" lon="7.37802">
        <ele>174</ele>
        <time>2013-09-27T08:29:24.000Z</time>
      </trkpt>
      <trkpt lat="48.74627" lon="7.37776">
        <ele>174</ele>
        <time>2013-09-27T08:29:28.000Z</time>
      </trkpt>
      <trkpt lat="48.74585" lon="7.37697">
        <ele>174</ele>
        <time>2013-09-27T08:29:40.000Z</time>
      </trkpt>
      <trkpt lat="48.74571" lon="7.37669">
        <ele>175</ele>
        <time>2013-09-27T08:29:45.000Z</time>
      </trkpt>
      <trkpt lat="48.74566" lon="7.3765">
        <ele>176</ele>
        <time>2013-09-27T08:29:48.000Z</time>
      </trkpt>
      <trkpt lat="48.74548" lon="7.37613">
        <ele>176</ele>
        <time>2013-09-27T08:29:54.000Z</time>
      </trkpt>
      <trkpt lat="48.74526" lon="7.37581">
        <ele>176.19999694824</ele>
        <time>2013-09-27T08:30:01.000Z</time>
      </trkpt>
      <trkpt lat="48.74494" lon="7.37524">
        <ele>177</ele>
        <time>2013-09-27T08:30:10.000Z</time>
      </trkpt>
      <trkpt lat="48.74431" lon="7.37415">
        <ele>176.80000305176</ele>
        <time>2013-09-27T08:30:27.000Z</time>
      </trkpt>
      <trkpt lat="48.74412" lon="7.37384">
        <ele>176.80000305176</ele>
        <time>2013-09-27T08:30:32.000Z</time>
      </trkpt>
      <trkpt lat="48.74357" lon="7.37283">
        <ele>176.60000610352</ele>
        <time>2013-09-27T08:30:46.000Z</time>
      </trkpt>
      <trkpt lat="48.74309" lon="7.37191">
        <ele>176.80000305176</ele>
        <time>2013-09-27T08:30:59.000Z</time>
      </trkpt>
      <trkpt lat="48.74302" lon="7.37176">
        <ele>176.60000610352</ele>
        <time>2013-09-27T08:31:01.000Z</time>
      </trkpt>
      <trkpt lat="48.74246" lon="7.37072">
        <ele>176.80000305176</ele>
        <time>2013-09-27T08:31:16.000Z</time>
      </trkpt>
      <trkpt lat="48.74189" lon="7.36964">
        <ele>176.80000305176</ele>
        <time>2013-09-27T08:31:32.000Z</time>
      </trkpt>
      <trkpt lat="48.74186" lon="7.36958">
        <ele>176.60000610352</ele>
        <time>2013-09-27T08:31:33.000Z</time>
      </trkpt>
      <trkpt lat="48.74181" lon="7.36947">
        <ele>176.80000305176</ele>
        <time>2013-09-27T08:31:35.000Z</time>
      </trkpt>
      <trkpt lat="48.7417" lon="7.36925">
        <ele>176.80000305176</ele>
        <time>2013-09-27T08:31:39.000Z</time>
      </trkpt>
      <trkpt lat="48.74161" lon="7.36896">
        <ele>176.80000305176</ele>
        <time>2013-09-27T08:31:43.000Z</time>
      </trkpt>
      <trkpt lat="48.74156" lon="7.36884">
        <ele>176.80000305176</ele>
        <time>2013-09-27T08:31:45.000Z</time>
      </trkpt>
      <trkpt lat="48.74131" lon="7.36849">
        <ele>177</ele>
        <time>2013-09-27T08:31:55.000Z</time>
      </trkpt>
      <trkpt lat="48.74107" lon="7.36774">
        <ele>177.80000305176</ele>
        <time>2013-09-27T08:32:09.000Z</time>
      </trkpt>
      <trkpt lat="48.74123" lon="7.36741">
        <ele>177.60000610352</ele>
        <time>2013-09-27T08:32:16.000Z</time>
      </trkpt>
      <trkpt lat="48.74152" lon="7.36708">
        <ele>178.19999694824</ele>
        <time>2013-09-27T08:32:26.000Z</time>
      </trkpt>
      <trkpt lat="48.74188" lon="7.36666">
        <ele>178.60000610352</ele>
        <time>2013-09-27T08:32:37.000Z</time>
      </trkpt>
      <trkpt lat="48.74225" lon="7.36625">
        <ele>177.80000305176</ele>
        <time>2013-09-27T08:32:49.000Z</time>
      </trkpt>
      <trkpt lat="48.74243" lon="7.36602">
        <ele>177.19999694824</ele>
        <time>2013-09-27T08:32:58.000Z</time>
      </trkpt>
      <trkpt lat="48.7425" lon="7.36566">
        <ele>177.19999694824</ele>
        <time>2013-09-27T08:33:05.000Z</time>
      </trkpt>
      <trkpt lat="48.74231" lon="7.36527">
        <ele>178.19999694824</ele>
        <time>2013-09-27T08:33:17.000Z</time>
      </trkpt>
      <trkpt lat="48.74229" lon="7.36495">
        <ele>178.60000610352</ele>
        <time>2013-09-27T08:33:28.000Z</time>
      </trkpt>
      <trkpt lat="48.7422" lon="7.36502">
        <ele>179.19999694824</ele>
        <time>2013-09-27T08:33:39.000Z</time>
      </trkpt>
      <trkpt lat="48.74219" lon="7.365">
        <ele>179.60000610352</ele>
        <time>2013-09-27T08:33:41.000Z</time>
      </trkpt>
      <trkpt lat="48.74202" lon="7.36465">
        <ele>179.80000305176</ele>
        <time>2013-09-27T08:33:53.000Z</time>
      </trkpt>
      <trkpt lat="48.74194" lon="7.36452">
        <ele>180</ele>
        <time>2013-09-27T08:34:00.000Z</time>
      </trkpt>
      <trkpt lat="48.74181" lon="7.36435">
        <ele>180.60000610352</ele>
        <time>2013-09-27T08:34:07.000Z</time>
      </trkpt>
      <trkpt lat="48.74156" lon="7.36386">
        <ele>183</ele>
        <time>2013-09-27T08:34:21.000Z</time>
      </trkpt>
      <trkpt lat="48.74148" lon="7.36358">
        <ele>183.19999694824</ele>
        <time>2013-09-27T08:34:29.000Z</time>
      </trkpt>
      <trkpt lat="48.7416" lon="7.36341">
        <ele>183.60000610352</ele>
        <time>2013-09-27T08:34:34.000Z</time>
      </trkpt>
      <trkpt lat="48.74181" lon="7.36297">
        <ele>183.19999694824</ele>
        <time>2013-09-27T08:34:48.000Z</time>
      </trkpt>
      <trkpt lat="48.7421" lon="7.36269">
        <ele>183</ele>
        <time>2013-09-27T08:35:00.000Z</time>
      </trkpt>
      <trkpt lat="48.74216" lon="7.36233">
        <ele>183.19999694824</ele>
        <time>2013-09-27T08:35:10.000Z</time>
      </trkpt>
      <trkpt lat="48.74212" lon="7.36225">
        <ele>183.19999694824</ele>
        <time>2013-09-27T08:35:13.000Z</time>
      </trkpt>
      <trkpt lat="48.74194" lon="7.3619">
        <ele>183.80000305176</ele>
        <time>2013-09-27T08:35:29.000Z</time>
      </trkpt>
      <trkpt lat="48.74192" lon="7.36184">
        <ele>183.80000305176</ele>
        <time>2013-09-27T08:35:40.000Z</time>
      </trkpt>
      <trkpt lat="48.742" lon="7.36144">
        <ele>182</ele>
        <time>2013-09-27T08:35:51.000Z</time>
      </trkpt>
      <trkpt lat="48.74195" lon="7.36118">
        <ele>182</ele>
        <time>2013-09-27T08:36:02.000Z</time>
      </trkpt>
      <trkpt lat="48.742" lon="7.36114">
        <ele>182</ele>
        <time>2013-09-27T08:36:25.000Z</time>
      </trkpt>
      <trkpt lat="48.74199" lon="7.36114">
        <ele>182.19999694824</ele>
        <time>2013-09-27T08:36:50.000Z</time>
      </trkpt>
      <trkpt lat="48.74186" lon="7.36092">
        <ele>182</ele>
        <time>2013-09-27T08:37:13.000Z</time>
      </trkpt>
      <trkpt lat="48.74169" lon="7.36054">
        <ele>182</ele>
        <time>2013-09-27T08:37:24.000Z</time>
      </trkpt>
      <trkpt lat="48.74142" lon="7.36001">
        <ele>182</ele>
        <time>2013-09-27T08:37:37.000Z</time>
      </trkpt>
      <trkpt lat="48.74111" lon="7.35947">
        <ele>182.19999694824</ele>
        <time>2013-09-27T08:37:52.000Z</time>
      </trkpt>
      <trkpt lat="48.74108" lon="7.35938">
        <ele>182.19999694824</ele>
        <time>2013-09-27T08:37:54.000Z</time>
      </trkpt>
      <trkpt lat="48.7409" lon="7.359">
        <ele>182.60000610352</ele>
        <time>2013-09-27T08:38:03.000Z</time>
      </trkpt>
      <trkpt lat="48.74092" lon="7.35816">
        <ele>182.19999694824</ele>
        <time>2013-09-27T08:38:17.000Z</time>
      </trkpt>
      <trkpt lat="48.74092" lon="7.35733">
        <ele>182.60000610352</ele>
        <time>2013-09-27T08:38:29.000Z</time>
      </trkpt>
      <trkpt lat="48.74094" lon="7.35645">
        <ele>182.19999694824</ele>
        <time>2013-09-27T08:38:41.000Z</time>
      </trkpt>
      <trkpt lat="48.74094" lon="7.35632">
        <ele>182.19999694824</ele>
        <time>2013-09-27T08:38:43.000Z</time>
      </trkpt>
      <trkpt lat="48.74093" lon="7.35618">
        <ele>182.19999694824</ele>
        <time>2013-09-27T08:38:45.000Z</time>
      </trkpt>
      <trkpt lat="48.74095" lon="7.35542">
        <ele>182.60000610352</ele>
        <time>2013-09-27T08:38:55.000Z</time>
      </trkpt>
      <trkpt lat="48.74095" lon="7.35519">
        <ele>182.60000610352</ele>
        <time>2013-09-27T08:38:58.000Z</time>
      </trkpt>
      <trkpt lat="48.74094" lon="7.35504">
        <ele>182.60000610352</ele>
        <time>2013-09-27T08:39:00.000Z</time>
      </trkpt>
      <trkpt lat="48.741" lon="7.35396">
        <ele>182.80000305176</ele>
        <time>2013-09-27T08:39:14.000Z</time>
      </trkpt>
      <trkpt lat="48.74103" lon="7.35286">
        <ele>182.60000610352</ele>
        <time>2013-09-27T08:39:28.000Z</time>
      </trkpt>
      <trkpt lat="48.74099" lon="7.35174">
        <ele>182.60000610352</ele>
        <time>2013-09-27T08:39:42.000Z</time>
      </trkpt>
      <trkpt lat="48.74095" lon="7.35144">
        <ele>182.80000305176</ele>
        <time>2013-09-27T08:39:46.000Z</time>
      </trkpt>
      <trkpt lat="48.74085" lon="7.3511">
        <ele>183</ele>
        <time>2013-09-27T08:39:50.000Z</time>
      </trkpt>
      <trkpt lat="48.74072" lon="7.35068">
        <ele>182.80000305176</ele>
        <time>2013-09-27T08:39:55.000Z</time>
      </trkpt>
      <trkpt lat="48.74038" lon="7.34977">
        <ele>183</ele>
        <time>2013-09-27T08:40:06.000Z</time>
      </trkpt>
      <trkpt lat="48.74016" lon="7.34943">
        <ele>183</ele>
        <time>2013-09-27T08:40:11.000Z</time>
      </trkpt>
      <trkpt lat="48.73999" lon="7.34921">
        <ele>183</ele>
        <time>2013-09-27T08:40:15.000Z</time>
      </trkpt>
      <trkpt lat="48.73986" lon="7.34906">
        <ele>183</ele>
        <time>2013-09-27T08:40:18.000Z</time>
      </trkpt>
      <trkpt lat="48.73926" lon="7.34835">
        <ele>182.60000610352</ele>
        <time>2013-09-27T08:40:33.000Z</time>
      </trkpt>
      <trkpt lat="48.73889" lon="7.34796">
        <ele>183</ele>
        <time>2013-09-27T08:40:42.000Z</time>
      </trkpt>
      <trkpt lat="48.73841" lon="7.34752">
        <ele>182.80000305176</ele>
        <time>2013-09-27T08:40:53.000Z</time>
      </trkpt>
      <trkpt lat="48.73826" lon="7.34742">
        <ele>183</ele>
        <time>2013-09-27T08:40:56.000Z</time>
      </trkpt>
      <trkpt lat="48.73785" lon="7.34708">
        <ele>182.80000305176</ele>
        <time>2013-09-27T08:41:07.000Z</time>
      </trkpt>
      <trkpt lat="48.73733" lon="7.34652">
        <ele>182.80000305176</ele>
        <time>2013-09-27T08:41:22.000Z</time>
      </trkpt>
      <trkpt lat="48.73704" lon="7.346">
        <ele>182.60000610352</ele>
        <time>2013-09-27T08:41:35.000Z</time>
      </trkpt>
      <trkpt lat="48.73675" lon="7.34528">
        <ele>182.80000305176</ele>
        <time>2013-09-27T08:41:49.000Z</time>
      </trkpt>
      <trkpt lat="48.73649" lon="7.34468">
        <ele>183</ele>
        <time>2013-09-27T08:42:02.000Z</time>
      </trkpt>
      <trkpt lat="48.73607" lon="7.34395">
        <ele>182.80000305176</ele>
        <time>2013-09-27T08:42:16.000Z</time>
      </trkpt>
      <trkpt lat="48.73572" lon="7.34339">
        <ele>183</ele>
        <time>2013-09-27T08:42:26.000Z</time>
      </trkpt>
      <trkpt lat="48.73514" lon="7.34268">
        <ele>183.19999694824</ele>
        <time>2013-09-27T08:42:38.000Z</time>
      </trkpt>
      <trkpt lat="48.73474" lon="7.34234">
        <ele>182.80000305176</ele>
        <time>2013-09-27T08:42:49.000Z</time>
      </trkpt>
      <trkpt lat="48.73426" lon="7.3419">
        <ele>183</ele>
        <time>2013-09-27T08:42:57.000Z</time>
      </trkpt>
      <trkpt lat="48.73405" lon="7.34175">
        <ele>183</ele>
        <time>2013-09-27T08:43:02.000Z</time>
      </trkpt>
      <trkpt lat="48.73369" lon="7.34159">
        <ele>183</ele>
        <time>2013-09-27T08:43:10.000Z</time>
      </trkpt>
      <trkpt lat="48.7333" lon="7.34129">
        <ele>183</ele>
        <time>2013-09-27T08:43:20.000Z</time>
      </trkpt>
      <trkpt lat="48.73319" lon="7.34121">
        <ele>182.80000305176</ele>
        <time>2013-09-27T08:43:22.000Z</time>
      </trkpt>
      <trkpt lat="48.73264" lon="7.34066">
        <ele>183</ele>
        <time>2013-09-27T08:43:35.000Z</time>
      </trkpt>
      <trkpt lat="48.73249" lon="7.34037">
        <ele>183</ele>
        <time>2013-09-27T08:43:40.000Z</time>
      </trkpt>
      <trkpt lat="48.73178" lon="7.33988">
        <ele>183.19999694824</ele>
        <time>2013-09-27T08:43:43.000Z</time>
      </trkpt>
      <trkpt lat="48.73153" lon="7.33942">
        <ele>183</ele>
        <time>2013-09-27T08:43:49.000Z</time>
      </trkpt>
      <trkpt lat="48.73138" lon="7.33917">
        <ele>183</ele>
        <time>2013-09-27T08:43:53.000Z</time>
      </trkpt>
      <trkpt lat="48.73124" lon="7.33883">
        <ele>183</ele>
        <time>2013-09-27T08:43:57.000Z</time>
      </trkpt>
      <trkpt lat="48.73118" lon="7.33867">
        <ele>183</ele>
        <time>2013-09-27T08:43:59.000Z</time>
      </trkpt>
      <trkpt lat="48.73118" lon="7.33835">
        <ele>183</ele>
        <time>2013-09-27T08:44:03.000Z</time>
      </trkpt>
      <trkpt lat="48.7311" lon="7.33786">
        <ele>182.80000305176</ele>
        <time>2013-09-27T08:44:09.000Z</time>
      </trkpt>
      <trkpt lat="48.73101" lon="7.33694">
        <ele>183.19999694824</ele>
        <time>2013-09-27T08:44:20.000Z</time>
      </trkpt>
      <trkpt lat="48.73098" lon="7.33677">
        <ele>183.60000610352</ele>
        <time>2013-09-27T08:44:22.000Z</time>
      </trkpt>
      <trkpt lat="48.73094" lon="7.33636">
        <ele>183.19999694824</ele>
        <time>2013-09-27T08:44:27.000Z</time>
      </trkpt>
      <trkpt lat="48.73087" lon="7.33618">
        <ele>183</ele>
        <time>2013-09-27T08:44:30.000Z</time>
      </trkpt>
      <trkpt lat="48.7308" lon="7.33576">
        <ele>183</ele>
        <time>2013-09-27T08:44:36.000Z</time>
      </trkpt>
      <trkpt lat="48.73077" lon="7.33536">
        <ele>183.60000610352</ele>
        <time>2013-09-27T08:44:41.000Z</time>
      </trkpt>
      <trkpt lat="48.73083" lon="7.33512">
        <ele>184.19999694824</ele>
        <time>2013-09-27T08:44:44.000Z</time>
      </trkpt>
      <trkpt lat="48.73086" lon="7.33471">
        <ele>185.19999694824</ele>
        <time>2013-09-27T08:44:50.000Z</time>
      </trkpt>
      <trkpt lat="48.73074" lon="7.33431">
        <ele>185.19999694824</ele>
        <time>2013-09-27T08:44:57.000Z</time>
      </trkpt>
      <trkpt lat="48.73069" lon="7.33413">
        <ele>185.19999694824</ele>
        <time>2013-09-27T08:45:00.000Z</time>
      </trkpt>
      <trkpt lat="48.73046" lon="7.33327">
        <ele>185.60000610352</ele>
        <time>2013-09-27T08:45:15.000Z</time>
      </trkpt>
      <trkpt lat="48.73006" lon="7.33279">
        <ele>185.19999694824</ele>
        <time>2013-09-27T08:45:28.000Z</time>
      </trkpt>
      <trkpt lat="48.72967" lon="7.33257">
        <ele>185.19999694824</ele>
        <time>2013-09-27T08:45:35.000Z</time>
      </trkpt>
      <trkpt lat="48.72952" lon="7.33253">
        <ele>185.60000610352</ele>
        <time>2013-09-27T08:45:38.000Z</time>
      </trkpt>
      <trkpt lat="48.72882" lon="7.33228">
        <ele>185.80000305176</ele>
        <time>2013-09-27T08:45:52.000Z</time>
      </trkpt>
      <trkpt lat="48.72853" lon="7.33215">
        <ele>186</ele>
        <time>2013-09-27T08:45:58.000Z</time>
      </trkpt>
      <trkpt lat="48.7278" lon="7.33155">
        <ele>185.80000305176</ele>
        <time>2013-09-27T08:46:14.000Z</time>
      </trkpt>
      <trkpt lat="48.72722" lon="7.33081">
        <ele>186</ele>
        <time>2013-09-27T08:46:29.000Z</time>
      </trkpt>
      <trkpt lat="48.72679" lon="7.32978">
        <ele>186</ele>
        <time>2013-09-27T08:46:46.000Z</time>
      </trkpt>
      <trkpt lat="48.72667" lon="7.32942">
        <ele>186</ele>
        <time>2013-09-27T08:46:52.000Z</time>
      </trkpt>
      <trkpt lat="48.72662" lon="7.32915">
        <ele>186</ele>
        <time>2013-09-27T08:46:56.000Z</time>
      </trkpt>
      <trkpt lat="48.72658" lon="7.32881">
        <ele>186</ele>
        <time>2013-09-27T08:47:01.000Z</time>
      </trkpt>
      <trkpt lat="48.72656" lon="7.32867">
        <ele>186</ele>
        <time>2013-09-27T08:47:03.000Z</time>
      </trkpt>
      <trkpt lat="48.72649" lon="7.32789">
        <ele>186</ele>
        <time>2013-09-27T08:47:14.000Z</time>
      </trkpt>
      <trkpt lat="48.72642" lon="7.32707">
        <ele>186</ele>
        <time>2013-09-27T08:47:27.000Z</time>
      </trkpt>
      <trkpt lat="48.72624" lon="7.32644">
        <ele>186</ele>
        <time>2013-09-27T08:47:38.000Z</time>
      </trkpt>
      <trkpt lat="48.72622" lon="7.32637">
        <ele>186</ele>
        <time>2013-09-27T08:47:39.000Z</time>
      </trkpt>
      <trkpt lat="48.72588" lon="7.32567">
        <ele>186.19999694824</ele>
        <time>2013-09-27T08:47:49.000Z</time>
      </trkpt>
      <trkpt lat="48.72576" lon="7.32547">
        <ele>186</ele>
        <time>2013-09-27T08:47:52.000Z</time>
      </trkpt>
      <trkpt lat="48.72556" lon="7.32518">
        <ele>186</ele>
        <time>2013-09-27T08:47:57.000Z</time>
      </trkpt>
      <trkpt lat="48.7254" lon="7.32493">
        <ele>186</ele>
        <time>2013-09-27T08:48:01.000Z</time>
      </trkpt>
      <trkpt lat="48.72528" lon="7.32476">
        <ele>186</ele>
        <time>2013-09-27T08:48:04.000Z</time>
      </trkpt>
      <trkpt lat="48.72466" lon="7.32378">
        <ele>186</ele>
        <time>2013-09-27T08:48:19.000Z</time>
      </trkpt>
      <trkpt lat="48.72451" lon="7.32357">
        <ele>186.60000610352</ele>
        <time>2013-09-27T08:48:23.000Z</time>
      </trkpt>
      <trkpt lat="48.72425" lon="7.32312">
        <ele>188</ele>
        <time>2013-09-27T08:48:34.000Z</time>
      </trkpt>
      <trkpt lat="48.72415" lon="7.32303">
        <ele>188</ele>
        <time>2013-09-27T08:48:37.000Z</time>
      </trkpt>
      <trkpt lat="48.72358" lon="7.32226">
        <ele>188.60000610352</ele>
        <time>2013-09-27T08:48:52.000Z</time>
      </trkpt>
      <trkpt lat="48.72335" lon="7.32194">
        <ele>188.60000610352</ele>
        <time>2013-09-27T08:48:58.000Z</time>
      </trkpt>
      <trkpt lat="48.72281" lon="7.32109">
        <ele>188.60000610352</ele>
        <time>2013-09-27T08:49:14.000Z</time>
      </trkpt>
      <trkpt lat="48.72248" lon="7.32046">
        <ele>188.60000610352</ele>
        <time>2013-09-27T08:49:24.000Z</time>
      </trkpt>
      <trkpt lat="48.72232" lon="7.32018">
        <ele>188.80000305176</ele>
        <time>2013-09-27T08:49:28.000Z</time>
      </trkpt>
      <trkpt lat="48.72221" lon="7.3199">
        <ele>188.60000610352</ele>
        <time>2013-09-27T08:49:32.000Z</time>
      </trkpt>
      <trkpt lat="48.72214" lon="7.31973">
        <ele>188.60000610352</ele>
        <time>2013-09-27T08:49:35.000Z</time>
      </trkpt>
      <trkpt lat="48.72201" lon="7.31936">
        <ele>188.60000610352</ele>
        <time>2013-09-27T08:49:41.000Z</time>
      </trkpt>
      <trkpt lat="48.72198" lon="7.31924">
        <ele>188.80000305176</ele>
        <time>2013-09-27T08:49:43.000Z</time>
      </trkpt>
      <trkpt lat="48.72186" lon="7.31807">
        <ele>189</ele>
        <time>2013-09-27T08:49:58.000Z</time>
      </trkpt>
      <trkpt lat="48.72182" lon="7.31758">
        <ele>189</ele>
        <time>2013-09-27T08:50:04.000Z</time>
      </trkpt>
      <trkpt lat="48.72181" lon="7.31749">
        <ele>189</ele>
        <time>2013-09-27T08:50:05.000Z</time>
      </trkpt>
      <trkpt lat="48.72173" lon="7.31668">
        <ele>189</ele>
        <time>2013-09-27T08:50:15.000Z</time>
      </trkpt>
      <trkpt lat="48.72166" lon="7.31644">
        <ele>189.60000610352</ele>
        <time>2013-09-27T08:50:19.000Z</time>
      </trkpt>
      <trkpt lat="48.72152" lon="7.31586">
        <ele>191</ele>
        <time>2013-09-27T08:50:30.000Z</time>
      </trkpt>
      <trkpt lat="48.72141" lon="7.31563">
        <ele>190</ele>
        <time>2013-09-27T08:50:35.000Z</time>
      </trkpt>
      <trkpt lat="48.72131" lon="7.31535">
        <ele>188.80000305176</ele>
        <time>2013-09-27T08:50:39.000Z</time>
      </trkpt>
      <trkpt lat="48.72126" lon="7.31517">
        <ele>188</ele>
        <time>2013-09-27T08:50:42.000Z</time>
      </trkpt>
      <trkpt lat="48.72115" lon="7.31502">
        <ele>187.80000305176</ele>
        <time>2013-09-27T08:50:47.000Z</time>
      </trkpt>
      <trkpt lat="48.721" lon="7.31505">
        <ele>187.19999694824</ele>
        <time>2013-09-27T08:50:54.000Z</time>
      </trkpt>
      <trkpt lat="48.7208" lon="7.31513">
        <ele>188.80000305176</ele>
        <time>2013-09-27T08:51:01.000Z</time>
      </trkpt>
      <trkpt lat="48.72075" lon="7.31513">
        <ele>189</ele>
        <time>2013-09-27T08:51:04.000Z</time>
      </trkpt>
      <trkpt lat="48.72069" lon="7.31517">
        <ele>189</ele>
        <time>2013-09-27T08:51:08.000Z</time>
      </trkpt>
      <trkpt lat="48.72065" lon="7.31506">
        <ele>189</ele>
        <time>2013-09-27T08:51:18.000Z</time>
      </trkpt>
      <trkpt lat="48.72064" lon="7.31504">
        <ele>189</ele>
        <time>2013-09-27T08:51:19.000Z</time>
      </trkpt>
      <trkpt lat="48.72057" lon="7.31483">
        <ele>189.19999694824</ele>
        <time>2013-09-27T08:51:25.000Z</time>
      </trkpt>
      <trkpt lat="48.72035" lon="7.31456">
        <ele>192.60000610352</ele>
        <time>2013-09-27T08:51:34.000Z</time>
      </trkpt>
      <trkpt lat="48.7203" lon="7.3145">
        <ele>193.60000610352</ele>
        <time>2013-09-27T08:51:40.000Z</time>
      </trkpt>
      <trkpt lat="48.72027" lon="7.31447">
        <ele>193.80000305176</ele>
        <time>2013-09-27T08:51:44.000Z</time>
      </trkpt>
      <trkpt lat="48.72024" lon="7.31443">
        <ele>194</ele>
        <time>2013-09-27T08:51:48.000Z</time>
      </trkpt>
      <trkpt lat="48.72014" lon="7.31433">
        <ele>194</ele>
        <time>2013-09-27T08:52:04.000Z</time>
      </trkpt>
      <trkpt lat="48.71996" lon="7.31405">
        <ele>194.60000610352</ele>
        <time>2013-09-27T08:52:19.000Z</time>
      </trkpt>
      <trkpt lat="48.71965" lon="7.31372">
        <ele>194.80000305176</ele>
        <time>2013-09-27T08:52:30.000Z</time>
      </trkpt>
      <trkpt lat="48.71949" lon="7.31371">
        <ele>194.80000305176</ele>
        <time>2013-09-27T08:52:37.000Z</time>
      </trkpt>
      <trkpt lat="48.71946" lon="7.31373">
        <ele>194.60000610352</ele>
        <time>2013-09-27T08:52:40.000Z</time>
      </trkpt>
      <trkpt lat="48.71925" lon="7.31415">
        <ele>195.19999694824</ele>
        <time>2013-09-27T08:52:55.000Z</time>
      </trkpt>
      <trkpt lat="48.71902" lon="7.31446">
        <ele>195.60000610352</ele>
        <time>2013-09-27T08:53:08.000Z</time>
      </trkpt>
      <trkpt lat="48.71877" lon="7.31485">
        <ele>196.19999694824</ele>
        <time>2013-09-27T08:53:20.000Z</time>
      </trkpt>
      <trkpt lat="48.71876" lon="7.31492">
        <ele>197.60000610352</ele>
        <time>2013-09-27T08:53:32.000Z</time>
      </trkpt>
      <trkpt lat="48.71875" lon="7.31489">
        <ele>197.80000305176</ele>
        <time>2013-09-27T08:53:39.000Z</time>
      </trkpt>
      <trkpt lat="48.71856" lon="7.31485">
        <ele>198</ele>
        <time>2013-09-27T08:53:44.000Z</time>
      </trkpt>
      <trkpt lat="48.71846" lon="7.31483">
        <ele>198.19999694824</ele>
        <time>2013-09-27T08:53:47.000Z</time>
      </trkpt>
      <trkpt lat="48.71811" lon="7.31461">
        <ele>199</ele>
        <time>2013-09-27T08:53:58.000Z</time>
      </trkpt>
      <trkpt lat="48.71744" lon="7.31427">
        <ele>198.80000305176</ele>
        <time>2013-09-27T08:54:09.000Z</time>
      </trkpt>
      <trkpt lat="48.71694" lon="7.31389">
        <ele>198.80000305176</ele>
        <time>2013-09-27T08:54:18.000Z</time>
      </trkpt>
      <trkpt lat="48.71676" lon="7.31357">
        <ele>199</ele>
        <time>2013-09-27T08:54:24.000Z</time>
      </trkpt>
      <trkpt lat="48.71661" lon="7.31329">
        <ele>199</ele>
        <time>2013-09-27T08:54:29.000Z</time>
      </trkpt>
      <trkpt lat="48.71617" lon="7.31272">
        <ele>200</ele>
        <time>2013-09-27T08:54:42.000Z</time>
      </trkpt>
      <trkpt lat="48.71615" lon="7.31268">
        <ele>200</ele>
        <time>2013-09-27T08:54:43.000Z</time>
      </trkpt>
      <trkpt lat="48.71575" lon="7.31216">
        <ele>200.80000305176</ele>
        <time>2013-09-27T08:54:54.000Z</time>
      </trkpt>
      <trkpt lat="48.71546" lon="7.31192">
        <ele>201.19999694824</ele>
        <time>2013-09-27T08:55:02.000Z</time>
      </trkpt>
      <trkpt lat="48.71493" lon="7.31187">
        <ele>202</ele>
        <time>2013-09-27T08:55:16.000Z</time>
      </trkpt>
      <trkpt lat="48.71466" lon="7.31176">
        <ele>202.19999694824</ele>
        <time>2013-09-27T08:55:25.000Z</time>
      </trkpt>
      <trkpt lat="48.71404" lon="7.31131">
        <ele>203</ele>
        <time>2013-09-27T08:55:36.000Z</time>
      </trkpt>
      <trkpt lat="48.71356" lon="7.31072">
        <ele>204</ele>
        <time>2013-09-27T08:55:50.000Z</time>
      </trkpt>
      <trkpt lat="48.71328" lon="7.31013">
        <ele>204.60000610352</ele>
        <time>2013-09-27T08:56:02.000Z</time>
      </trkpt>
      <trkpt lat="48.71292" lon="7.30955">
        <ele>204.80000305176</ele>
        <time>2013-09-27T08:56:14.000Z</time>
      </trkpt>
      <trkpt lat="48.71249" lon="7.30911">
        <ele>206</ele>
        <time>2013-09-27T08:56:28.000Z</time>
      </trkpt>
      <trkpt lat="48.71219" lon="7.30894">
        <ele>207</ele>
        <time>2013-09-27T08:56:40.000Z</time>
      </trkpt>
      <trkpt lat="48.71157" lon="7.30856">
        <ele>208.60000610352</ele>
        <time>2013-09-27T08:56:54.000Z</time>
      </trkpt>
      <trkpt lat="48.71114" lon="7.30838">
        <ele>208.80000305176</ele>
        <time>2013-09-27T08:57:05.000Z</time>
      </trkpt>
      <trkpt lat="48.71071" lon="7.30854">
        <ele>209.60000610352</ele>
        <time>2013-09-27T08:57:16.000Z</time>
      </trkpt>
      <trkpt lat="48.71009" lon="7.3087">
        <ele>209.60000610352</ele>
        <time>2013-09-27T08:57:28.000Z</time>
      </trkpt>
      <trkpt lat="48.70977" lon="7.30876">
        <ele>210</ele>
        <time>2013-09-27T08:57:36.000Z</time>
      </trkpt>
      <trkpt lat="48.70956" lon="7.30875">
        <ele>210.19999694824</ele>
        <time>2013-09-27T08:57:50.000Z</time>
      </trkpt>
      <trkpt lat="48.70954" lon="7.30879">
        <ele>211</ele>
        <time>2013-09-27T08:58:01.000Z</time>
      </trkpt>
      <trkpt lat="48.70954" lon="7.30878">
        <ele>211</ele>
        <time>2013-09-27T08:58:19.000Z</time>
      </trkpt>
      <trkpt lat="48.70958" lon="7.30878">
        <ele>211</ele>
        <time>2013-09-27T08:58:38.000Z</time>
      </trkpt>
      <trkpt lat="48.70955" lon="7.30878">
        <ele>210.80000305176</ele>
        <time>2013-09-27T08:58:56.000Z</time>
      </trkpt>
      <trkpt lat="48.70953" lon="7.30876">
        <ele>209.19999694824</ele>
        <time>2013-09-27T08:59:09.000Z</time>
      </trkpt>
      <trkpt lat="48.70951" lon="7.30873">
        <ele>209.19999694824</ele>
        <time>2013-09-27T08:59:23.000Z</time>
      </trkpt>
      <trkpt lat="48.7095" lon="7.3087">
        <ele>209.19999694824</ele>
        <time>2013-09-27T08:59:41.000Z</time>
      </trkpt>
      <trkpt lat="48.70942" lon="7.30872">
        <ele>209.19999694824</ele>
        <time>2013-09-27T09:00:00.000Z</time>
      </trkpt>
      <trkpt lat="48.70936" lon="7.30873">
        <ele>209.19999694824</ele>
        <time>2013-09-27T09:00:16.000Z</time>
      </trkpt>
      <trkpt lat="48.70922" lon="7.30869">
        <ele>209.19999694824</ele>
        <time>2013-09-27T09:00:32.000Z</time>
      </trkpt>
      <trkpt lat="48.70922" lon="7.30873">
        <ele>209.19999694824</ele>
        <time>2013-09-27T09:00:51.000Z</time>
      </trkpt>
      <trkpt lat="48.70916" lon="7.3088">
        <ele>209.19999694824</ele>
        <time>2013-09-27T09:01:11.000Z</time>
      </trkpt>
      <trkpt lat="48.70915" lon="7.30881">
        <ele>209.19999694824</ele>
        <time>2013-09-27T09:01:29.000Z</time>
      </trkpt>
      <trkpt lat="48.70912" lon="7.30878">
        <ele>209.19999694824</ele>
        <time>2013-09-27T09:01:49.000Z</time>
      </trkpt>
      <trkpt lat="48.7092" lon="7.30868">
        <ele>209.19999694824</ele>
        <time>2013-09-27T09:02:06.000Z</time>
      </trkpt>
      <trkpt lat="48.70908" lon="7.30868">
        <ele>209.19999694824</ele>
        <time>2013-09-27T09:02:23.000Z</time>
      </trkpt>
      <trkpt lat="48.70908" lon="7.30871">
        <ele>209</ele>
        <time>2013-09-27T09:02:38.000Z</time>
      </trkpt>
      <trkpt lat="48.70914" lon="7.30866">
        <ele>209</ele>
        <time>2013-09-27T09:02:55.000Z</time>
      </trkpt>
      <trkpt lat="48.70923" lon="7.30869">
        <ele>209.19999694824</ele>
        <time>2013-09-27T09:03:13.000Z</time>
      </trkpt>
      <trkpt lat="48.70919" lon="7.30876">
        <ele>209.80000305176</ele>
        <time>2013-09-27T09:03:24.000Z</time>
      </trkpt>
      <trkpt lat="48.70914" lon="7.30877">
        <ele>210.19999694824</ele>
        <time>2013-09-27T09:03:39.000Z</time>
      </trkpt>
      <trkpt lat="48.70897" lon="7.30913">
        <ele>212.80000305176</ele>
        <time>2013-09-27T09:03:50.000Z</time>
      </trkpt>
      <trkpt lat="48.70876" lon="7.30931">
        <ele>215</ele>
        <time>2013-09-27T09:04:01.000Z</time>
      </trkpt>
      <trkpt lat="48.70861" lon="7.30949">
        <ele>218</ele>
        <time>2013-09-27T09:04:12.000Z</time>
      </trkpt>
      <trkpt lat="48.70835" lon="7.30973">
        <ele>221</ele>
        <time>2013-09-27T09:04:23.000Z</time>
      </trkpt>
      <trkpt lat="48.7082" lon="7.30981">
        <ele>222</ele>
        <time>2013-09-27T09:04:31.000Z</time>
      </trkpt>
      <trkpt lat="48.70778" lon="7.30996">
        <ele>224</ele>
        <time>2013-09-27T09:04:44.000Z</time>
      </trkpt>
      <trkpt lat="48.70747" lon="7.31018">
        <ele>226</ele>
        <time>2013-09-27T09:04:57.000Z</time>
      </trkpt>
      <trkpt lat="48.70732" lon="7.31044">
        <ele>228</ele>
        <time>2013-09-27T09:05:10.000Z</time>
      </trkpt>
      <trkpt lat="48.70718" lon="7.31065">
        <ele>230</ele>
        <time>2013-09-27T09:05:23.000Z</time>
      </trkpt>
      <trkpt lat="48.70697" lon="7.31079">
        <ele>232</ele>
        <time>2013-09-27T09:05:35.000Z</time>
      </trkpt>
      <trkpt lat="48.70696" lon="7.3108">
        <ele>232</ele>
        <time>2013-09-27T09:05:36.000Z</time>
      </trkpt>
      <trkpt lat="48.70657" lon="7.31105">
        <ele>232.80000305176</ele>
        <time>2013-09-27T09:05:53.000Z</time>
      </trkpt>
      <trkpt lat="48.70628" lon="7.3111">
        <ele>234</ele>
        <time>2013-09-27T09:06:09.000Z</time>
      </trkpt>
      <trkpt lat="48.70591" lon="7.31112">
        <ele>235</ele>
        <time>2013-09-27T09:06:19.000Z</time>
      </trkpt>
      <trkpt lat="48.70521" lon="7.31133">
        <ele>236</ele>
        <time>2013-09-27T09:06:30.000Z</time>
      </trkpt>
      <trkpt lat="48.70503" lon="7.31143">
        <ele>236.80000305176</ele>
        <time>2013-09-27T09:06:35.000Z</time>
      </trkpt>
      <trkpt lat="48.70501" lon="7.31151">
        <ele>237.19999694824</ele>
        <time>2013-09-27T09:06:40.000Z</time>
      </trkpt>
      <trkpt lat="48.70497" lon="7.31154">
        <ele>237.19999694824</ele>
        <time>2013-09-27T09:06:42.000Z</time>
      </trkpt>
      <trkpt lat="48.70486" lon="7.31162">
        <ele>237.80000305176</ele>
        <time>2013-09-27T09:06:47.000Z</time>
      </trkpt>
      <trkpt lat="48.70475" lon="7.31165">
        <ele>238.80000305176</ele>
        <time>2013-09-27T09:06:58.000Z</time>
      </trkpt>
      <trkpt lat="48.70473" lon="7.31166">
        <ele>239</ele>
        <time>2013-09-27T09:07:00.000Z</time>
      </trkpt>
      <trkpt lat="48.70469" lon="7.31165">
        <ele>239.60000610352</ele>
        <time>2013-09-27T09:07:03.000Z</time>
      </trkpt>
      <trkpt lat="48.70458" lon="7.31157">
        <ele>240</ele>
        <time>2013-09-27T09:07:08.000Z</time>
      </trkpt>
      <trkpt lat="48.70435" lon="7.31147">
        <ele>242</ele>
        <time>2013-09-27T09:07:20.000Z</time>
      </trkpt>
      <trkpt lat="48.70424" lon="7.3113">
        <ele>243.19999694824</ele>
        <time>2013-09-27T09:07:31.000Z</time>
      </trkpt>
      <trkpt lat="48.70412" lon="7.31112">
        <ele>245</ele>
        <time>2013-09-27T09:07:42.000Z</time>
      </trkpt>
      <trkpt lat="48.70392" lon="7.31089">
        <ele>246.80000305176</ele>
        <time>2013-09-27T09:07:55.000Z</time>
      </trkpt>
      <trkpt lat="48.7039" lon="7.31086">
        <ele>247</ele>
        <time>2013-09-27T09:07:58.000Z</time>
      </trkpt>
      <trkpt lat="48.7037" lon="7.31071">
        <ele>249</ele>
        <time>2013-09-27T09:08:11.000Z</time>
      </trkpt>
      <trkpt lat="48.70369" lon="7.31069">
        <ele>249</ele>
        <time>2013-09-27T09:08:12.000Z</time>
      </trkpt>
      <trkpt lat="48.70362" lon="7.31064">
        <ele>249.80000305176</ele>
        <time>2013-09-27T09:08:17.000Z</time>
      </trkpt>
      <trkpt lat="48.70338" lon="7.31063">
        <ele>251</ele>
        <time>2013-09-27T09:08:28.000Z</time>
      </trkpt>
      <trkpt lat="48.70311" lon="7.31054">
        <ele>252.80000305176</ele>
        <time>2013-09-27T09:08:43.000Z</time>
      </trkpt>
      <trkpt lat="48.70307" lon="7.31052">
        <ele>253</ele>
        <time>2013-09-27T09:08:45.000Z</time>
      </trkpt>
      <trkpt lat="48.70298" lon="7.3105">
        <ele>253.19999694824</ele>
        <time>2013-09-27T09:08:48.000Z</time>
      </trkpt>
      <trkpt lat="48.70264" lon="7.3105">
        <ele>254.19999694824</ele>
        <time>2013-09-27T09:09:00.000Z</time>
      </trkpt>
      <trkpt lat="48.70231" lon="7.31053">
        <ele>255.19999694824</ele>
        <time>2013-09-27T09:09:12.000Z</time>
      </trkpt>
      <trkpt lat="48.70194" lon="7.31052">
        <ele>257.20001220703</ele>
        <time>2013-09-27T09:09:26.000Z</time>
      </trkpt>
      <trkpt lat="48.70166" lon="7.31044">
        <ele>258.20001220703</ele>
        <time>2013-09-27T09:09:39.000Z</time>
      </trkpt>
      <trkpt lat="48.70165" lon="7.31041">
        <ele>258.60000610352</ele>
        <time>2013-09-27T09:09:41.000Z</time>
      </trkpt>
      <trkpt lat="48.70156" lon="7.31035">
        <ele>259.60000610352</ele>
        <time>2013-09-27T09:09:48.000Z</time>
      </trkpt>
      <trkpt lat="48.7013" lon="7.31033">
        <ele>261.60000610352</ele>
        <time>2013-09-27T09:10:02.000Z</time>
      </trkpt>
      <trkpt lat="48.70119" lon="7.31033">
        <ele>262.60000610352</ele>
        <time>2013-09-27T09:10:08.000Z</time>
      </trkpt>
      <trkpt lat="48.70099" lon="7.31033">
        <ele>264.20001220703</ele>
        <time>2013-09-27T09:10:17.000Z</time>
      </trkpt>
      <trkpt lat="48.70086" lon="7.31032">
        <ele>264.60000610352</ele>
        <time>2013-09-27T09:10:22.000Z</time>
      </trkpt>
      <trkpt lat="48.70078" lon="7.3103">
        <ele>265.20001220703</ele>
        <time>2013-09-27T09:10:26.000Z</time>
      </trkpt>
      <trkpt lat="48.70043" lon="7.31024">
        <ele>266.60000610352</ele>
        <time>2013-09-27T09:10:40.000Z</time>
      </trkpt>
      <trkpt lat="48.70038" lon="7.31024">
        <ele>266.60000610352</ele>
        <time>2013-09-27T09:10:42.000Z</time>
      </trkpt>
      <trkpt lat="48.70006" lon="7.3103">
        <ele>268.20001220703</ele>
        <time>2013-09-27T09:10:56.000Z</time>
      </trkpt>
      <trkpt lat="48.69968" lon="7.31034">
        <ele>270</ele>
        <time>2013-09-27T09:11:11.000Z</time>
      </trkpt>
      <trkpt lat="48.6995" lon="7.31036">
        <ele>271</ele>
        <time>2013-09-27T09:11:19.000Z</time>
      </trkpt>
      <trkpt lat="48.69919" lon="7.31033">
        <ele>272</ele>
        <time>2013-09-27T09:11:31.000Z</time>
      </trkpt>
      <trkpt lat="48.6989" lon="7.3104">
        <ele>273.60000610352</ele>
        <time>2013-09-27T09:11:45.000Z</time>
      </trkpt>
      <trkpt lat="48.69883" lon="7.31037">
        <ele>274</ele>
        <time>2013-09-27T09:11:48.000Z</time>
      </trkpt>
      <trkpt lat="48.69853" lon="7.31031">
        <ele>275.60000610352</ele>
        <time>2013-09-27T09:12:01.000Z</time>
      </trkpt>
      <trkpt lat="48.69831" lon="7.31028">
        <ele>277.60000610352</ele>
        <time>2013-09-27T09:12:15.000Z</time>
      </trkpt>
      <trkpt lat="48.69807" lon="7.31019">
        <ele>279.20001220703</ele>
        <time>2013-09-27T09:12:27.000Z</time>
      </trkpt>
      <trkpt lat="48.69785" lon="7.3101">
        <ele>281</ele>
        <time>2013-09-27T09:12:37.000Z</time>
      </trkpt>
      <trkpt lat="48.69761" lon="7.30995">
        <ele>282.60000610352</ele>
        <time>2013-09-27T09:12:50.000Z</time>
      </trkpt>
      <trkpt lat="48.69732" lon="7.3097">
        <ele>285.20001220703</ele>
        <time>2013-09-27T09:13:07.000Z</time>
      </trkpt>
      <trkpt lat="48.6973" lon="7.30968">
        <ele>285.20001220703</ele>
        <time>2013-09-27T09:13:08.000Z</time>
      </trkpt>
      <trkpt lat="48.69723" lon="7.30964">
        <ele>285.60000610352</ele>
        <time>2013-09-27T09:13:12.000Z</time>
      </trkpt>
      <trkpt lat="48.69695" lon="7.3094">
        <ele>288.20001220703</ele>
        <time>2013-09-27T09:13:27.000Z</time>
      </trkpt>
      <trkpt lat="48.69674" lon="7.30929">
        <ele>290.20001220703</ele>
        <time>2013-09-27T09:13:39.000Z</time>
      </trkpt>
      <trkpt lat="48.69646" lon="7.30918">
        <ele>292.20001220703</ele>
        <time>2013-09-27T09:13:52.000Z</time>
      </trkpt>
      <trkpt lat="48.69615" lon="7.30907">
        <ele>294.60000610352</ele>
        <time>2013-09-27T09:14:07.000Z</time>
      </trkpt>
      <trkpt lat="48.69592" lon="7.30903">
        <ele>296.20001220703</ele>
        <time>2013-09-27T09:14:21.000Z</time>
      </trkpt>
      <trkpt lat="48.69564" lon="7.30887">
        <ele>299.20001220703</ele>
        <time>2013-09-27T09:14:36.000Z</time>
      </trkpt>
      <trkpt lat="48.69538" lon="7.30868">
        <ele>301.20001220703</ele>
        <time>2013-09-27T09:14:48.000Z</time>
      </trkpt>
      <trkpt lat="48.69534" lon="7.30866">
        <ele>301.20001220703</ele>
        <time>2013-09-27T09:14:50.000Z</time>
      </trkpt>
      <trkpt lat="48.69504" lon="7.30847">
        <ele>302.20001220703</ele>
        <time>2013-09-27T09:15:05.000Z</time>
      </trkpt>
      <trkpt lat="48.6948" lon="7.3083">
        <ele>304.20001220703</ele>
        <time>2013-09-27T09:15:18.000Z</time>
      </trkpt>
      <trkpt lat="48.69454" lon="7.30816">
        <ele>306.20001220703</ele>
        <time>2013-09-27T09:15:31.000Z</time>
      </trkpt>
      <trkpt lat="48.69428" lon="7.30806">
        <ele>309</ele>
        <time>2013-09-27T09:15:45.000Z</time>
      </trkpt>
      <trkpt lat="48.69403" lon="7.30795">
        <ele>311.20001220703</ele>
        <time>2013-09-27T09:15:59.000Z</time>
      </trkpt>
      <trkpt lat="48.69377" lon="7.30787">
        <ele>313.20001220703</ele>
        <time>2013-09-27T09:16:13.000Z</time>
      </trkpt>
      <trkpt lat="48.69347" lon="7.30762">
        <ele>315.20001220703</ele>
        <time>2013-09-27T09:16:27.000Z</time>
      </trkpt>
      <trkpt lat="48.69312" lon="7.3074">
        <ele>317.20001220703</ele>
        <time>2013-09-27T09:16:43.000Z</time>
      </trkpt>
      <trkpt lat="48.69282" lon="7.30754">
        <ele>318.20001220703</ele>
        <time>2013-09-27T09:16:57.000Z</time>
      </trkpt>
      <trkpt lat="48.69251" lon="7.30768">
        <ele>321</ele>
        <time>2013-09-27T09:17:12.000Z</time>
      </trkpt>
      <trkpt lat="48.69219" lon="7.30787">
        <ele>323.60000610352</ele>
        <time>2013-09-27T09:17:26.000Z</time>
      </trkpt>
      <trkpt lat="48.69199" lon="7.30806">
        <ele>326</ele>
        <time>2013-09-27T09:17:39.000Z</time>
      </trkpt>
      <trkpt lat="48.69175" lon="7.30813">
        <ele>329</ele>
        <time>2013-09-27T09:17:53.000Z</time>
      </trkpt>
      <trkpt lat="48.69148" lon="7.30826">
        <ele>332</ele>
        <time>2013-09-27T09:18:09.000Z</time>
      </trkpt>
      <trkpt lat="48.69129" lon="7.30828">
        <ele>334</ele>
        <time>2013-09-27T09:18:19.000Z</time>
      </trkpt>
      <trkpt lat="48.69106" lon="7.30831">
        <ele>336</ele>
        <time>2013-09-27T09:18:32.000Z</time>
      </trkpt>
      <trkpt lat="48.69084" lon="7.30846">
        <ele>337.60000610352</ele>
        <time>2013-09-27T09:18:46.000Z</time>
      </trkpt>
      <trkpt lat="48.69065" lon="7.30851">
        <ele>339</ele>
        <time>2013-09-27T09:18:58.000Z</time>
      </trkpt>
      <trkpt lat="48.69042" lon="7.30852">
        <ele>340.60000610352</ele>
        <time>2013-09-27T09:19:11.000Z</time>
      </trkpt>
      <trkpt lat="48.69021" lon="7.30848">
        <ele>342.20001220703</ele>
        <time>2013-09-27T09:19:22.000Z</time>
      </trkpt>
      <trkpt lat="48.68996" lon="7.30842">
        <ele>343.60000610352</ele>
        <time>2013-09-27T09:19:35.000Z</time>
      </trkpt>
      <trkpt lat="48.68974" lon="7.30836">
        <ele>345.20001220703</ele>
        <time>2013-09-27T09:19:47.000Z</time>
      </trkpt>
      <trkpt lat="48.68944" lon="7.30837">
        <ele>347.20001220703</ele>
        <time>2013-09-27T09:20:02.000Z</time>
      </trkpt>
      <trkpt lat="48.68929" lon="7.30832">
        <ele>348.20001220703</ele>
        <time>2013-09-27T09:20:10.000Z</time>
      </trkpt>
      <trkpt lat="48.68921" lon="7.3083">
        <ele>348.60000610352</ele>
        <time>2013-09-27T09:20:14.000Z</time>
      </trkpt>
      <trkpt lat="48.68912" lon="7.30826">
        <ele>349.20001220703</ele>
        <time>2013-09-27T09:20:19.000Z</time>
      </trkpt>
      <trkpt lat="48.68885" lon="7.30824">
        <ele>351.60000610352</ele>
        <time>2013-09-27T09:20:32.000Z</time>
      </trkpt>
      <trkpt lat="48.68882" lon="7.30824">
        <ele>352</ele>
        <time>2013-09-27T09:20:34.000Z</time>
      </trkpt>
      <trkpt lat="48.68857" lon="7.30821">
        <ele>354</ele>
        <time>2013-09-27T09:20:47.000Z</time>
      </trkpt>
      <trkpt lat="48.68838" lon="7.30824">
        <ele>355.20001220703</ele>
        <time>2013-09-27T09:20:55.000Z</time>
      </trkpt>
      <trkpt lat="48.68835" lon="7.30823">
        <ele>355.60000610352</ele>
        <time>2013-09-27T09:20:57.000Z</time>
      </trkpt>
      <trkpt lat="48.68807" lon="7.30824">
        <ele>357.60000610352</ele>
        <time>2013-09-27T09:21:10.000Z</time>
      </trkpt>
      <trkpt lat="48.68774" lon="7.30813">
        <ele>359.60000610352</ele>
        <time>2013-09-27T09:21:25.000Z</time>
      </trkpt>
      <trkpt lat="48.6877" lon="7.30812">
        <ele>359.60000610352</ele>
        <time>2013-09-27T09:21:28.000Z</time>
      </trkpt>
      <trkpt lat="48.68757" lon="7.30813">
        <ele>361</ele>
        <time>2013-09-27T09:21:36.000Z</time>
      </trkpt>
      <trkpt lat="48.68742" lon="7.30813">
        <ele>362.20001220703</ele>
        <time>2013-09-27T09:21:45.000Z</time>
      </trkpt>
      <trkpt lat="48.68719" lon="7.30813">
        <ele>364.20001220703</ele>
        <time>2013-09-27T09:21:59.000Z</time>
      </trkpt>
      <trkpt lat="48.68691" lon="7.30807">
        <ele>365.60000610352</ele>
        <time>2013-09-27T09:22:12.000Z</time>
      </trkpt>
      <trkpt lat="48.68686" lon="7.30804">
        <ele>366.20001220703</ele>
        <time>2013-09-27T09:22:15.000Z</time>
      </trkpt>
      <trkpt lat="48.68678" lon="7.308">
        <ele>366.60000610352</ele>
        <time>2013-09-27T09:22:19.000Z</time>
      </trkpt>
      <trkpt lat="48.68656" lon="7.308">
        <ele>369</ele>
        <time>2013-09-27T09:22:29.000Z</time>
      </trkpt>
      <trkpt lat="48.68624" lon="7.30798">
        <ele>371.20001220703</ele>
        <time>2013-09-27T09:22:43.000Z</time>
      </trkpt>
      <trkpt lat="48.68594" lon="7.30798">
        <ele>373</ele>
        <time>2013-09-27T09:22:56.000Z</time>
      </trkpt>
      <trkpt lat="48.68588" lon="7.30799">
        <ele>373.60000610352</ele>
        <time>2013-09-27T09:23:01.000Z</time>
      </trkpt>
      <trkpt lat="48.68563" lon="7.30789">
        <ele>376.60000610352</ele>
        <time>2013-09-27T09:23:17.000Z</time>
      </trkpt>
      <trkpt lat="48.68558" lon="7.30785">
        <ele>377.20001220703</ele>
        <time>2013-09-27T09:23:21.000Z</time>
      </trkpt>
      <trkpt lat="48.68538" lon="7.30763">
        <ele>378.60000610352</ele>
        <time>2013-09-27T09:23:31.000Z</time>
      </trkpt>
      <trkpt lat="48.68512" lon="7.30725">
        <ele>380.20001220703</ele>
        <time>2013-09-27T09:23:46.000Z</time>
      </trkpt>
      <trkpt lat="48.68499" lon="7.30711">
        <ele>380.60000610352</ele>
        <time>2013-09-27T09:23:52.000Z</time>
      </trkpt>
      <trkpt lat="48.68492" lon="7.30703">
        <ele>381.20001220703</ele>
        <time>2013-09-27T09:23:57.000Z</time>
      </trkpt>
      <trkpt lat="48.68492" lon="7.30705">
        <ele>382</ele>
        <time>2013-09-27T09:24:02.000Z</time>
      </trkpt>
      <trkpt lat="48.68497" lon="7.30707">
        <ele>382.60000610352</ele>
        <time>2013-09-27T09:24:07.000Z</time>
      </trkpt>
      <trkpt lat="48.68498" lon="7.3071">
        <ele>383.20001220703</ele>
        <time>2013-09-27T09:24:10.000Z</time>
      </trkpt>
      <trkpt lat="48.68498" lon="7.30714">
        <ele>383.60000610352</ele>
        <time>2013-09-27T09:24:13.000Z</time>
      </trkpt>
      <trkpt lat="48.68485" lon="7.30729">
        <ele>384.60000610352</ele>
        <time>2013-09-27T09:24:21.000Z</time>
      </trkpt>
      <trkpt lat="48.68453" lon="7.30751">
        <ele>385.60000610352</ele>
        <time>2013-09-27T09:24:33.000Z</time>
      </trkpt>
      <trkpt lat="48.68425" lon="7.30773">
        <ele>387.20001220703</ele>
        <time>2013-09-27T09:24:44.000Z</time>
      </trkpt>
      <trkpt lat="48.68413" lon="7.30778">
        <ele>388.20001220703</ele>
        <time>2013-09-27T09:24:49.000Z</time>
      </trkpt>
      <trkpt lat="48.68387" lon="7.30795">
        <ele>390.20001220703</ele>
        <time>2013-09-27T09:25:03.000Z</time>
      </trkpt>
      <trkpt lat="48.6835" lon="7.30829">
        <ele>392</ele>
        <time>2013-09-27T09:25:16.000Z</time>
      </trkpt>
      <trkpt lat="48.68356" lon="7.30833">
        <ele>393.60000610352</ele>
        <time>2013-09-27T09:25:28.000Z</time>
      </trkpt>
      <trkpt lat="48.68357" lon="7.30832">
        <ele>394.20001220703</ele>
        <time>2013-09-27T09:25:30.000Z</time>
      </trkpt>
      <trkpt lat="48.68362" lon="7.30833">
        <ele>395.20001220703</ele>
        <time>2013-09-27T09:25:36.000Z</time>
      </trkpt>
      <trkpt lat="48.68367" lon="7.30835">
        <ele>395.60000610352</ele>
        <time>2013-09-27T09:25:40.000Z</time>
      </trkpt>
      <trkpt lat="48.6839" lon="7.30837">
        <ele>397.60000610352</ele>
        <time>2013-09-27T09:25:53.000Z</time>
      </trkpt>
      <trkpt lat="48.68417" lon="7.30848">
        <ele>399.20001220703</ele>
        <time>2013-09-27T09:26:07.000Z</time>
      </trkpt>
      <trkpt lat="48.68419" lon="7.30849">
        <ele>399.20001220703</ele>
        <time>2013-09-27T09:26:08.000Z</time>
      </trkpt>
      <trkpt lat="48.68434" lon="7.30857">
        <ele>400.60000610352</ele>
        <time>2013-09-27T09:26:17.000Z</time>
      </trkpt>
      <trkpt lat="48.68439" lon="7.30856">
        <ele>400.60000610352</ele>
        <time>2013-09-27T09:26:19.000Z</time>
      </trkpt>
      <trkpt lat="48.68468" lon="7.30867">
        <ele>403.20001220703</ele>
        <time>2013-09-27T09:26:35.000Z</time>
      </trkpt>
      <trkpt lat="48.68476" lon="7.3087">
        <ele>404</ele>
        <time>2013-09-27T09:26:39.000Z</time>
      </trkpt>
      <trkpt lat="48.68503" lon="7.30877">
        <ele>405.60000610352</ele>
        <time>2013-09-27T09:26:54.000Z</time>
      </trkpt>
      <trkpt lat="48.68517" lon="7.30888">
        <ele>406.60000610352</ele>
        <time>2013-09-27T09:27:01.000Z</time>
      </trkpt>
      <trkpt lat="48.68525" lon="7.30896">
        <ele>407.60000610352</ele>
        <time>2013-09-27T09:27:05.000Z</time>
      </trkpt>
      <trkpt lat="48.68551" lon="7.3091">
        <ele>408.20001220703</ele>
        <time>2013-09-27T09:27:11.000Z</time>
      </trkpt>
      <trkpt lat="48.68615" lon="7.30936">
        <ele>410.20001220703</ele>
        <time>2013-09-27T09:27:25.000Z</time>
      </trkpt>
      <trkpt lat="48.68644" lon="7.30969">
        <ele>412.20001220703</ele>
        <time>2013-09-27T09:27:39.000Z</time>
      </trkpt>
      <trkpt lat="48.68663" lon="7.31003">
        <ele>414.20001220703</ele>
        <time>2013-09-27T09:27:54.000Z</time>
      </trkpt>
      <trkpt lat="48.68674" lon="7.3104">
        <ele>416</ele>
        <time>2013-09-27T09:28:07.000Z</time>
      </trkpt>
      <trkpt lat="48.68687" lon="7.31069">
        <ele>417.20001220703</ele>
        <time>2013-09-27T09:28:19.000Z</time>
      </trkpt>
      <trkpt lat="48.68685" lon="7.31072">
        <ele>419.60000610352</ele>
        <time>2013-09-27T09:28:31.000Z</time>
      </trkpt>
      <trkpt lat="48.68708" lon="7.31074">
        <ele>421.60000610352</ele>
        <time>2013-09-27T09:28:44.000Z</time>
      </trkpt>
      <trkpt lat="48.68736" lon="7.3107">
        <ele>424</ele>
        <time>2013-09-27T09:28:57.000Z</time>
      </trkpt>
      <trkpt lat="48.68747" lon="7.31074">
        <ele>424.60000610352</ele>
        <time>2013-09-27T09:29:09.000Z</time>
      </trkpt>
      <trkpt lat="48.6875" lon="7.31074">
        <ele>423.20001220703</ele>
        <time>2013-09-27T09:29:33.000Z</time>
      </trkpt>
      <trkpt lat="48.68751" lon="7.31076">
        <ele>423.20001220703</ele>
        <time>2013-09-27T09:30:06.000Z</time>
      </trkpt>
      <trkpt lat="48.68752" lon="7.31075">
        <ele>423.20001220703</ele>
        <time>2013-09-27T09:30:35.000Z</time>
      </trkpt>
      <trkpt lat="48.68752" lon="7.31074">
        <ele>423.20001220703</ele>
        <time>2013-09-27T09:31:01.000Z</time>
      </trkpt>
      <trkpt lat="48.68755" lon="7.31078">
        <ele>423.20001220703</ele>
        <time>2013-09-27T09:31:29.000Z</time>
      </trkpt>
      <trkpt lat="48.68755" lon="7.31077">
        <ele>423.60000610352</ele>
        <time>2013-09-27T09:32:04.000Z</time>
      </trkpt>
      <trkpt lat="48.68755" lon="7.31076">
        <ele>423.20001220703</ele>
        <time>2013-09-27T09:32:40.000Z</time>
      </trkpt>
      <trkpt lat="48.68757" lon="7.3108">
        <ele>423.60000610352</ele>
        <time>2013-09-27T09:33:16.000Z</time>
      </trkpt>
      <trkpt lat="48.68758" lon="7.31082">
        <ele>423.20001220703</ele>
        <time>2013-09-27T09:33:50.000Z</time>
      </trkpt>
      <trkpt lat="48.68759" lon="7.31084">
        <ele>423.20001220703</ele>
        <time>2013-09-27T09:34:23.000Z</time>
      </trkpt>
      <trkpt lat="48.68759" lon="7.31086">
        <ele>423.60000610352</ele>
        <time>2013-09-27T09:34:54.000Z</time>
      </trkpt>
      <trkpt lat="48.68761" lon="7.31088">
        <ele>423.60000610352</ele>
        <time>2013-09-27T09:35:27.000Z</time>
      </trkpt>
      <trkpt lat="48.68762" lon="7.3109">
        <ele>423.20001220703</ele>
        <time>2013-09-27T09:36:00.000Z</time>
      </trkpt>
      <trkpt lat="48.68763" lon="7.3109">
        <ele>423.20001220703</ele>
        <time>2013-09-27T09:36:27.000Z</time>
      </trkpt>
      <trkpt lat="48.68763" lon="7.3109">
        <ele>423.20001220703</ele>
        <time>2013-09-27T09:36:58.000Z</time>
      </trkpt>
      <trkpt lat="48.68764" lon="7.3109">
        <ele>424.60000610352</ele>
        <time>2013-09-27T09:37:19.000Z</time>
      </trkpt>
      <trkpt lat="48.68762" lon="7.31089">
        <ele>424.60000610352</ele>
        <time>2013-09-27T09:37:55.000Z</time>
      </trkpt>
      <trkpt lat="48.68761" lon="7.31088">
        <ele>424.20001220703</ele>
        <time>2013-09-27T09:38:26.000Z</time>
      </trkpt>
      <trkpt lat="48.68759" lon="7.3109">
        <ele>424.60000610352</ele>
        <time>2013-09-27T09:38:48.000Z</time>
      </trkpt>
      <trkpt lat="48.68767" lon="7.31092">
        <ele>424.60000610352</ele>
        <time>2013-09-27T09:39:17.000Z</time>
      </trkpt>
      <trkpt lat="48.68774" lon="7.31088">
        <ele>424.60000610352</ele>
        <time>2013-09-27T09:39:46.000Z</time>
      </trkpt>
      <trkpt lat="48.68782" lon="7.31078">
        <ele>424.60000610352</ele>
        <time>2013-09-27T09:40:14.000Z</time>
      </trkpt>
      <trkpt lat="48.68783" lon="7.31077">
        <ele>424.20001220703</ele>
        <time>2013-09-27T09:40:43.000Z</time>
      </trkpt>
      <trkpt lat="48.68783" lon="7.31075">
        <ele>424.20001220703</ele>
        <time>2013-09-27T09:41:14.000Z</time>
      </trkpt>
      <trkpt lat="48.68784" lon="7.31074">
        <ele>424.20001220703</ele>
        <time>2013-09-27T09:41:45.000Z</time>
      </trkpt>
      <trkpt lat="48.68785" lon="7.31075">
        <ele>424.20001220703</ele>
        <time>2013-09-27T09:42:14.000Z</time>
      </trkpt>
      <trkpt lat="48.68787" lon="7.3107">
        <ele>424.20001220703</ele>
        <time>2013-09-27T09:42:41.000Z</time>
      </trkpt>
      <trkpt lat="48.68786" lon="7.31071">
        <ele>424.20001220703</ele>
        <time>2013-09-27T09:42:48.000Z</time>
      </trkpt>
      <trkpt lat="48.68783" lon="7.31071">
        <ele>424.60000610352</ele>
        <time>2013-09-27T09:42:52.000Z</time>
      </trkpt>
      <trkpt lat="48.68766" lon="7.31077">
        <ele>425.60000610352</ele>
        <time>2013-09-27T09:43:04.000Z</time>
      </trkpt>
      <trkpt lat="48.68755" lon="7.31086">
        <ele>427</ele>
        <time>2013-09-27T09:43:13.000Z</time>
      </trkpt>
      <trkpt lat="48.68739" lon="7.31124">
        <ele>428.60000610352</ele>
        <time>2013-09-27T09:43:26.000Z</time>
      </trkpt>
      <trkpt lat="48.68732" lon="7.31166">
        <ele>430</ele>
        <time>2013-09-27T09:43:37.000Z</time>
      </trkpt>
      <trkpt lat="48.68723" lon="7.31202">
        <ele>431</ele>
        <time>2013-09-27T09:43:48.000Z</time>
      </trkpt>
      <trkpt lat="48.68718" lon="7.31204">
        <ele>431.20001220703</ele>
        <time>2013-09-27T09:43:50.000Z</time>
      </trkpt>
      <trkpt lat="48.68688" lon="7.31205">
        <ele>433.20001220703</ele>
        <time>2013-09-27T09:44:03.000Z</time>
      </trkpt>
      <trkpt lat="48.68662" lon="7.31198">
        <ele>435.60000610352</ele>
        <time>2013-09-27T09:44:16.000Z</time>
      </trkpt>
      <trkpt lat="48.68638" lon="7.31189">
        <ele>437</ele>
        <time>2013-09-27T09:44:31.000Z</time>
      </trkpt>
      <trkpt lat="48.68611" lon="7.3117">
        <ele>438.60000610352</ele>
        <time>2013-09-27T09:44:45.000Z</time>
      </trkpt>
      <trkpt lat="48.68589" lon="7.31161">
        <ele>440.20001220703</ele>
        <time>2013-09-27T09:44:57.000Z</time>
      </trkpt>
      <trkpt lat="48.68565" lon="7.31155">
        <ele>442</ele>
        <time>2013-09-27T09:45:11.000Z</time>
      </trkpt>
      <trkpt lat="48.6854" lon="7.31143">
        <ele>443</ele>
        <time>2013-09-27T09:45:21.000Z</time>
      </trkpt>
      <trkpt lat="48.68525" lon="7.31134">
        <ele>443.60000610352</ele>
        <time>2013-09-27T09:45:28.000Z</time>
      </trkpt>
      <trkpt lat="48.68512" lon="7.31129">
        <ele>444.60000610352</ele>
        <time>2013-09-27T09:45:36.000Z</time>
      </trkpt>
      <trkpt lat="48.68479" lon="7.31118">
        <ele>446.60000610352</ele>
        <time>2013-09-27T09:45:51.000Z</time>
      </trkpt>
      <trkpt lat="48.68477" lon="7.31116">
        <ele>446.60000610352</ele>
        <time>2013-09-27T09:45:52.000Z</time>
      </trkpt>
      <trkpt lat="48.68467" lon="7.3111">
        <ele>447.20001220703</ele>
        <time>2013-09-27T09:45:56.000Z</time>
      </trkpt>
      <trkpt lat="48.68429" lon="7.31103">
        <ele>449</ele>
        <time>2013-09-27T09:46:09.000Z</time>
      </trkpt>
      <trkpt lat="48.68394" lon="7.31098">
        <ele>450.60000610352</ele>
        <time>2013-09-27T09:46:22.000Z</time>
      </trkpt>
      <trkpt lat="48.68364" lon="7.31098">
        <ele>452.60000610352</ele>
        <time>2013-09-27T09:46:35.000Z</time>
      </trkpt>
      <trkpt lat="48.68339" lon="7.31098">
        <ele>454.20001220703</ele>
        <time>2013-09-27T09:46:46.000Z</time>
      </trkpt>
      <trkpt lat="48.68302" lon="7.31104">
        <ele>456</ele>
        <time>2013-09-27T09:47:00.000Z</time>
      </trkpt>
      <trkpt lat="48.68273" lon="7.31106">
        <ele>457.20001220703</ele>
        <time>2013-09-27T09:47:11.000Z</time>
      </trkpt>
      <trkpt lat="48.68237" lon="7.31106">
        <ele>458</ele>
        <time>2013-09-27T09:47:23.000Z</time>
      </trkpt>
      <trkpt lat="48.68199" lon="7.3111">
        <ele>458.60000610352</ele>
        <time>2013-09-27T09:47:35.000Z</time>
      </trkpt>
      <trkpt lat="48.68182" lon="7.31126">
        <ele>459.20001220703</ele>
        <time>2013-09-27T09:47:45.000Z</time>
      </trkpt>
      <trkpt lat="48.68173" lon="7.31129">
        <ele>459.20001220703</ele>
        <time>2013-09-27T09:47:49.000Z</time>
      </trkpt>
      <trkpt lat="48.68169" lon="7.31131">
        <ele>459.20001220703</ele>
        <time>2013-09-27T09:47:51.000Z</time>
      </trkpt>
      <trkpt lat="48.68152" lon="7.31149">
        <ele>460</ele>
        <time>2013-09-27T09:48:01.000Z</time>
      </trkpt>
      <trkpt lat="48.6813" lon="7.31145">
        <ele>460.20001220703</ele>
        <time>2013-09-27T09:48:13.000Z</time>
      </trkpt>
      <trkpt lat="48.68114" lon="7.31116">
        <ele>460.60000610352</ele>
        <time>2013-09-27T09:48:29.000Z</time>
      </trkpt>
      <trkpt lat="48.68103" lon="7.31093">
        <ele>460.60000610352</ele>
        <time>2013-09-27T09:48:38.000Z</time>
      </trkpt>
      <trkpt lat="48.68098" lon="7.31094">
        <ele>460.60000610352</ele>
        <time>2013-09-27T09:48:43.000Z</time>
      </trkpt>
      <trkpt lat="48.68098" lon="7.31097">
        <ele>460.60000610352</ele>
        <time>2013-09-27T09:48:45.000Z</time>
      </trkpt>
      <trkpt lat="48.68108" lon="7.31107">
        <ele>460.60000610352</ele>
        <time>2013-09-27T09:48:59.000Z</time>
      </trkpt>
      <trkpt lat="48.68116" lon="7.31117">
        <ele>460.60000610352</ele>
        <time>2013-09-27T09:49:12.000Z</time>
      </trkpt>
      <trkpt lat="48.68106" lon="7.31116">
        <ele>461.20001220703</ele>
        <time>2013-09-27T09:49:31.000Z</time>
      </trkpt>
      <trkpt lat="48.68087" lon="7.31107">
        <ele>461.60000610352</ele>
        <time>2013-09-27T09:49:40.000Z</time>
      </trkpt>
      <trkpt lat="48.68079" lon="7.31097">
        <ele>462.20001220703</ele>
        <time>2013-09-27T09:49:45.000Z</time>
      </trkpt>
      <trkpt lat="48.68055" lon="7.31069">
        <ele>463</ele>
        <time>2013-09-27T09:49:59.000Z</time>
      </trkpt>
      <trkpt lat="48.6804" lon="7.31037">
        <ele>464</ele>
        <time>2013-09-27T09:50:11.000Z</time>
      </trkpt>
      <trkpt lat="48.6803" lon="7.31008">
        <ele>465</ele>
        <time>2013-09-27T09:50:24.000Z</time>
      </trkpt>
      <trkpt lat="48.68025" lon="7.30967">
        <ele>466.20001220703</ele>
        <time>2013-09-27T09:50:35.000Z</time>
      </trkpt>
      <trkpt lat="48.68025" lon="7.30962">
        <ele>466.20001220703</ele>
        <time>2013-09-27T09:50:36.000Z</time>
      </trkpt>
      <trkpt lat="48.68027" lon="7.30949">
        <ele>466.20001220703</ele>
        <time>2013-09-27T09:50:39.000Z</time>
      </trkpt>
      <trkpt lat="48.68037" lon="7.309">
        <ele>468.20001220703</ele>
        <time>2013-09-27T09:50:52.000Z</time>
      </trkpt>
      <trkpt lat="48.68047" lon="7.30874">
        <ele>469.20001220703</ele>
        <time>2013-09-27T09:51:01.000Z</time>
      </trkpt>
      <trkpt lat="48.68052" lon="7.30847">
        <ele>470.60000610352</ele>
        <time>2013-09-27T09:51:11.000Z</time>
      </trkpt>
      <trkpt lat="48.68059" lon="7.3081">
        <ele>472.20001220703</ele>
        <time>2013-09-27T09:51:24.000Z</time>
      </trkpt>
      <trkpt lat="48.6806" lon="7.30791">
        <ele>472.60000610352</ele>
        <time>2013-09-27T09:51:29.000Z</time>
      </trkpt>
      <trkpt lat="48.68058" lon="7.30768">
        <ele>474</ele>
        <time>2013-09-27T09:51:37.000Z</time>
      </trkpt>
      <trkpt lat="48.68057" lon="7.30754">
        <ele>474.20001220703</ele>
        <time>2013-09-27T09:51:42.000Z</time>
      </trkpt>
      <trkpt lat="48.68051" lon="7.3071">
        <ele>475.60000610352</ele>
        <time>2013-09-27T09:51:55.000Z</time>
      </trkpt>
      <trkpt lat="48.6804" lon="7.30664">
        <ele>476.20001220703</ele>
        <time>2013-09-27T09:52:06.000Z</time>
      </trkpt>
      <trkpt lat="48.68025" lon="7.30624">
        <ele>476.60000610352</ele>
        <time>2013-09-27T09:52:18.000Z</time>
      </trkpt>
      <trkpt lat="48.68022" lon="7.3061">
        <ele>477.20001220703</ele>
        <time>2013-09-27T09:52:22.000Z</time>
      </trkpt>
      <trkpt lat="48.6801" lon="7.30557">
        <ele>478</ele>
        <time>2013-09-27T09:52:35.000Z</time>
      </trkpt>
      <trkpt lat="48.67991" lon="7.30508">
        <ele>479</ele>
        <time>2013-09-27T09:52:47.000Z</time>
      </trkpt>
      <trkpt lat="48.67971" lon="7.30454">
        <ele>480</ele>
        <time>2013-09-27T09:53:01.000Z</time>
      </trkpt>
      <trkpt lat="48.67957" lon="7.3041">
        <ele>481.60000610352</ele>
        <time>2013-09-27T09:53:12.000Z</time>
      </trkpt>
      <trkpt lat="48.67933" lon="7.30352">
        <ele>481.60000610352</ele>
        <time>2013-09-27T09:53:26.000Z</time>
      </trkpt>
      <trkpt lat="48.67905" lon="7.30301">
        <ele>480</ele>
        <time>2013-09-27T09:53:37.000Z</time>
      </trkpt>
      <trkpt lat="48.67894" lon="7.30279">
        <ele>479.20001220703</ele>
        <time>2013-09-27T09:53:41.000Z</time>
      </trkpt>
      <trkpt lat="48.67877" lon="7.30248">
        <ele>478.20001220703</ele>
        <time>2013-09-27T09:53:47.000Z</time>
      </trkpt>
      <trkpt lat="48.67868" lon="7.30231">
        <ele>478</ele>
        <time>2013-09-27T09:53:50.000Z</time>
      </trkpt>
      <trkpt lat="48.67837" lon="7.30178">
        <ele>477</ele>
        <time>2013-09-27T09:54:02.000Z</time>
      </trkpt>
      <trkpt lat="48.67828" lon="7.30159">
        <ele>476.60000610352</ele>
        <time>2013-09-27T09:54:06.000Z</time>
      </trkpt>
      <trkpt lat="48.67818" lon="7.30132">
        <ele>473.60000610352</ele>
        <time>2013-09-27T09:54:11.000Z</time>
      </trkpt>
      <trkpt lat="48.67816" lon="7.30122">
        <ele>473.20001220703</ele>
        <time>2013-09-27T09:54:20.000Z</time>
      </trkpt>
      <trkpt lat="48.67813" lon="7.30103">
        <ele>473.20001220703</ele>
        <time>2013-09-27T09:54:36.000Z</time>
      </trkpt>
      <trkpt lat="48.67813" lon="7.30089">
        <ele>473.20001220703</ele>
        <time>2013-09-27T09:54:52.000Z</time>
      </trkpt>
      <trkpt lat="48.67811" lon="7.30082">
        <ele>473.20001220703</ele>
        <time>2013-09-27T09:54:58.000Z</time>
      </trkpt>
      <trkpt lat="48.67807" lon="7.30069">
        <ele>473.60000610352</ele>
        <time>2013-09-27T09:55:16.000Z</time>
      </trkpt>
      <trkpt lat="48.67807" lon="7.30066">
        <ele>473.60000610352</ele>
        <time>2013-09-27T09:55:37.000Z</time>
      </trkpt>
      <trkpt lat="48.67806" lon="7.30063">
        <ele>474</ele>
        <time>2013-09-27T09:56:04.000Z</time>
      </trkpt>
      <trkpt lat="48.67807" lon="7.30064">
        <ele>473.60000610352</ele>
        <time>2013-09-27T09:56:34.000Z</time>
      </trkpt>
      <trkpt lat="48.6781" lon="7.30065">
        <ele>474</ele>
        <time>2013-09-27T09:57:02.000Z</time>
      </trkpt>
      <trkpt lat="48.67807" lon="7.30052">
        <ele>474.20001220703</ele>
        <time>2013-09-27T09:57:25.000Z</time>
      </trkpt>
      <trkpt lat="48.67793" lon="7.30015">
        <ele>475.20001220703</ele>
        <time>2013-09-27T09:57:38.000Z</time>
      </trkpt>
      <trkpt lat="48.67779" lon="7.29982">
        <ele>476.20001220703</ele>
        <time>2013-09-27T09:57:48.000Z</time>
      </trkpt>
      <trkpt lat="48.67758" lon="7.29935">
        <ele>477.20001220703</ele>
        <time>2013-09-27T09:58:00.000Z</time>
      </trkpt>
      <trkpt lat="48.67733" lon="7.29898">
        <ele>476.60000610352</ele>
        <time>2013-09-27T09:58:10.000Z</time>
      </trkpt>
      <trkpt lat="48.67698" lon="7.29842">
        <ele>476.20001220703</ele>
        <time>2013-09-27T09:58:22.000Z</time>
      </trkpt>
      <trkpt lat="48.67661" lon="7.29773">
        <ele>475</ele>
        <time>2013-09-27T09:58:35.000Z</time>
      </trkpt>
      <trkpt lat="48.67648" lon="7.29722">
        <ele>474.60000610352</ele>
        <time>2013-09-27T09:58:45.000Z</time>
      </trkpt>
      <trkpt lat="48.67649" lon="7.29657">
        <ele>474</ele>
        <time>2013-09-27T09:58:57.000Z</time>
      </trkpt>
      <trkpt lat="48.67668" lon="7.29589">
        <ele>473.20001220703</ele>
        <time>2013-09-27T09:59:05.000Z</time>
      </trkpt>
      <trkpt lat="48.67704" lon="7.29494">
        <ele>472.20001220703</ele>
        <time>2013-09-27T09:59:16.000Z</time>
      </trkpt>
      <trkpt lat="48.67711" lon="7.29481">
        <ele>472.20001220703</ele>
        <time>2013-09-27T09:59:18.000Z</time>
      </trkpt>
      <trkpt lat="48.67725" lon="7.29455">
        <ele>471.60000610352</ele>
        <time>2013-09-27T09:59:22.000Z</time>
      </trkpt>
      <trkpt lat="48.67761" lon="7.29397">
        <ele>470.60000610352</ele>
        <time>2013-09-27T09:59:32.000Z</time>
      </trkpt>
      <trkpt lat="48.67778" lon="7.2938">
        <ele>470.20001220703</ele>
        <time>2013-09-27T09:59:36.000Z</time>
      </trkpt>
      <trkpt lat="48.67789" lon="7.29374">
        <ele>470</ele>
        <time>2013-09-27T09:59:39.000Z</time>
      </trkpt>
      <trkpt lat="48.6782" lon="7.29348">
        <ele>469.20001220703</ele>
        <time>2013-09-27T09:59:45.000Z</time>
      </trkpt>
      <trkpt lat="48.67827" lon="7.29339">
        <ele>469</ele>
        <time>2013-09-27T09:59:47.000Z</time>
      </trkpt>
      <trkpt lat="48.67847" lon="7.2932">
        <ele>468.60000610352</ele>
        <time>2013-09-27T09:59:51.000Z</time>
      </trkpt>
      <trkpt lat="48.67856" lon="7.29311">
        <ele>468.20001220703</ele>
        <time>2013-09-27T09:59:53.000Z</time>
      </trkpt>
      <trkpt lat="48.67886" lon="7.29273">
        <ele>467.60000610352</ele>
        <time>2013-09-27T10:00:02.000Z</time>
      </trkpt>
      <trkpt lat="48.67893" lon="7.29264">
        <ele>467.60000610352</ele>
        <time>2013-09-27T10:00:04.000Z</time>
      </trkpt>
      <trkpt lat="48.679" lon="7.29255">
        <ele>467.60000610352</ele>
        <time>2013-09-27T10:00:06.000Z</time>
      </trkpt>
      <trkpt lat="48.67936" lon="7.29204">
        <ele>466.60000610352</ele>
        <time>2013-09-27T10:00:16.000Z</time>
      </trkpt>
      <trkpt lat="48.67965" lon="7.29169">
        <ele>466.20001220703</ele>
        <time>2013-09-27T10:00:22.000Z</time>
      </trkpt>
      <trkpt lat="48.68" lon="7.29124">
        <ele>465.60000610352</ele>
        <time>2013-09-27T10:00:31.000Z</time>
      </trkpt>
      <trkpt lat="48.68014" lon="7.29108">
        <ele>465.20001220703</ele>
        <time>2013-09-27T10:00:35.000Z</time>
      </trkpt>
      <trkpt lat="48.6805" lon="7.29072">
        <ele>464.20001220703</ele>
        <time>2013-09-27T10:00:44.000Z</time>
      </trkpt>
      <trkpt lat="48.68063" lon="7.2906">
        <ele>463.60000610352</ele>
        <time>2013-09-27T10:00:47.000Z</time>
      </trkpt>
      <trkpt lat="48.68103" lon="7.29002">
        <ele>462.60000610352</ele>
        <time>2013-09-27T10:00:59.000Z</time>
      </trkpt>
      <trkpt lat="48.68113" lon="7.28983">
        <ele>462.60000610352</ele>
        <time>2013-09-27T10:01:02.000Z</time>
      </trkpt>
      <trkpt lat="48.68149" lon="7.28878">
        <ele>461.60000610352</ele>
        <time>2013-09-27T10:01:14.000Z</time>
      </trkpt>
      <trkpt lat="48.68159" lon="7.28818">
        <ele>461</ele>
        <time>2013-09-27T10:01:20.000Z</time>
      </trkpt>
      <trkpt lat="48.6816" lon="7.28775">
        <ele>460.20001220703</ele>
        <time>2013-09-27T10:01:25.000Z</time>
      </trkpt>
      <trkpt lat="48.68154" lon="7.28728">
        <ele>459.20001220703</ele>
        <time>2013-09-27T10:01:32.000Z</time>
      </trkpt>
      <trkpt lat="48.68146" lon="7.28703">
        <ele>458.20001220703</ele>
        <time>2013-09-27T10:01:36.000Z</time>
      </trkpt>
      <trkpt lat="48.68139" lon="7.28691">
        <ele>458.20001220703</ele>
        <time>2013-09-27T10:01:38.000Z</time>
      </trkpt>
      <trkpt lat="48.68128" lon="7.28677">
        <ele>457.60000610352</ele>
        <time>2013-09-27T10:01:41.000Z</time>
      </trkpt>
      <trkpt lat="48.6812" lon="7.28672">
        <ele>457.20001220703</ele>
        <time>2013-09-27T10:01:43.000Z</time>
      </trkpt>
      <trkpt lat="48.68107" lon="7.28671">
        <ele>456.60000610352</ele>
        <time>2013-09-27T10:01:46.000Z</time>
      </trkpt>
      <trkpt lat="48.68071" lon="7.28696">
        <ele>457.60000610352</ele>
        <time>2013-09-27T10:01:56.000Z</time>
      </trkpt>
      <trkpt lat="48.68049" lon="7.28712">
        <ele>460.60000610352</ele>
        <time>2013-09-27T10:02:06.000Z</time>
      </trkpt>
      <trkpt lat="48.68017" lon="7.28731">
        <ele>463.60000610352</ele>
        <time>2013-09-27T10:02:17.000Z</time>
      </trkpt>
      <trkpt lat="48.67986" lon="7.28741">
        <ele>465.60000610352</ele>
        <time>2013-09-27T10:02:28.000Z</time>
      </trkpt>
      <trkpt lat="48.67956" lon="7.28753">
        <ele>467.20001220703</ele>
        <time>2013-09-27T10:02:41.000Z</time>
      </trkpt>
      <trkpt lat="48.67939" lon="7.28776">
        <ele>469</ele>
        <time>2013-09-27T10:02:52.000Z</time>
      </trkpt>
      <trkpt lat="48.67919" lon="7.28797">
        <ele>471.20001220703</ele>
        <time>2013-09-27T10:03:04.000Z</time>
      </trkpt>
      <trkpt lat="48.67886" lon="7.2882">
        <ele>472.60000610352</ele>
        <time>2013-09-27T10:03:17.000Z</time>
      </trkpt>
      <trkpt lat="48.67865" lon="7.28838">
        <ele>474.20001220703</ele>
        <time>2013-09-27T10:03:29.000Z</time>
      </trkpt>
      <trkpt lat="48.67841" lon="7.28864">
        <ele>475.60000610352</ele>
        <time>2013-09-27T10:03:43.000Z</time>
      </trkpt>
      <trkpt lat="48.67811" lon="7.28892">
        <ele>477.20001220703</ele>
        <time>2013-09-27T10:03:57.000Z</time>
      </trkpt>
      <trkpt lat="48.67778" lon="7.28908">
        <ele>479.60000610352</ele>
        <time>2013-09-27T10:04:10.000Z</time>
      </trkpt>
      <trkpt lat="48.67768" lon="7.28913">
        <ele>480</ele>
        <time>2013-09-27T10:04:14.000Z</time>
      </trkpt>
      <trkpt lat="48.67739" lon="7.28934">
        <ele>482</ele>
        <time>2013-09-27T10:04:29.000Z</time>
      </trkpt>
      <trkpt lat="48.67719" lon="7.28952">
        <ele>484</ele>
        <time>2013-09-27T10:04:40.000Z</time>
      </trkpt>
      <trkpt lat="48.67703" lon="7.28965">
        <ele>485.60000610352</ele>
        <time>2013-09-27T10:04:48.000Z</time>
      </trkpt>
      <trkpt lat="48.67687" lon="7.28981">
        <ele>487.60000610352</ele>
        <time>2013-09-27T10:04:58.000Z</time>
      </trkpt>
      <trkpt lat="48.67662" lon="7.29">
        <ele>490.20001220703</ele>
        <time>2013-09-27T10:05:11.000Z</time>
      </trkpt>
      <trkpt lat="48.67625" lon="7.29018">
        <ele>492.20001220703</ele>
        <time>2013-09-27T10:05:23.000Z</time>
      </trkpt>
      <trkpt lat="48.67601" lon="7.29037">
        <ele>493.20001220703</ele>
        <time>2013-09-27T10:05:35.000Z</time>
      </trkpt>
      <trkpt lat="48.67572" lon="7.29057">
        <ele>494.60000610352</ele>
        <time>2013-09-27T10:05:49.000Z</time>
      </trkpt>
      <trkpt lat="48.67539" lon="7.29074">
        <ele>497</ele>
        <time>2013-09-27T10:06:02.000Z</time>
      </trkpt>
      <trkpt lat="48.67538" lon="7.29076">
        <ele>497</ele>
        <time>2013-09-27T10:06:03.000Z</time>
      </trkpt>
      <trkpt lat="48.6753" lon="7.29078">
        <ele>497.20001220703</ele>
        <time>2013-09-27T10:06:08.000Z</time>
      </trkpt>
      <trkpt lat="48.67515" lon="7.29085">
        <ele>498.60000610352</ele>
        <time>2013-09-27T10:06:21.000Z</time>
      </trkpt>
      <trkpt lat="48.67513" lon="7.29088">
        <ele>498.60000610352</ele>
        <time>2013-09-27T10:06:53.000Z</time>
      </trkpt>
      <trkpt lat="48.67508" lon="7.29095">
        <ele>498.60000610352</ele>
        <time>2013-09-27T10:07:23.000Z</time>
      </trkpt>
      <trkpt lat="48.67506" lon="7.29097">
        <ele>498.60000610352</ele>
        <time>2013-09-27T10:07:55.000Z</time>
      </trkpt>
      <trkpt lat="48.67503" lon="7.29094">
        <ele>498.60000610352</ele>
        <time>2013-09-27T10:08:26.000Z</time>
      </trkpt>
      <trkpt lat="48.67502" lon="7.29098">
        <ele>498.60000610352</ele>
        <time>2013-09-27T10:08:58.000Z</time>
      </trkpt>
      <trkpt lat="48.67501" lon="7.29098">
        <ele>498.20001220703</ele>
        <time>2013-09-27T10:09:29.000Z</time>
      </trkpt>
      <trkpt lat="48.67492" lon="7.29099">
        <ele>498.20001220703</ele>
        <time>2013-09-27T10:09:42.000Z</time>
      </trkpt>
      <trkpt lat="48.67485" lon="7.29098">
        <ele>498.60000610352</ele>
        <time>2013-09-27T10:09:46.000Z</time>
      </trkpt>
      <trkpt lat="48.67453" lon="7.29082">
        <ele>498.20001220703</ele>
        <time>2013-09-27T10:09:58.000Z</time>
      </trkpt>
      <trkpt lat="48.67428" lon="7.29058">
        <ele>498.60000610352</ele>
        <time>2013-09-27T10:10:09.000Z</time>
      </trkpt>
      <trkpt lat="48.67398" lon="7.29021">
        <ele>499.60000610352</ele>
        <time>2013-09-27T10:10:23.000Z</time>
      </trkpt>
      <trkpt lat="48.67375" lon="7.28989">
        <ele>499.60000610352</ele>
        <time>2013-09-27T10:10:35.000Z</time>
      </trkpt>
      <trkpt lat="48.67354" lon="7.28929">
        <ele>500.20001220703</ele>
        <time>2013-09-27T10:10:50.000Z</time>
      </trkpt>
      <trkpt lat="48.67338" lon="7.28893">
        <ele>500.60000610352</ele>
        <time>2013-09-27T10:11:00.000Z</time>
      </trkpt>
      <trkpt lat="48.67334" lon="7.28887">
        <ele>500.20001220703</ele>
        <time>2013-09-27T10:11:02.000Z</time>
      </trkpt>
      <trkpt lat="48.67318" lon="7.28869">
        <ele>501</ele>
        <time>2013-09-27T10:11:12.000Z</time>
      </trkpt>
      <trkpt lat="48.67286" lon="7.2886">
        <ele>500.20001220703</ele>
        <time>2013-09-27T10:11:24.000Z</time>
      </trkpt>
      <trkpt lat="48.67282" lon="7.28859">
        <ele>500.20001220703</ele>
        <time>2013-09-27T10:11:25.000Z</time>
      </trkpt>
      <trkpt lat="48.67268" lon="7.2885">
        <ele>500.20001220703</ele>
        <time>2013-09-27T10:11:30.000Z</time>
      </trkpt>
      <trkpt lat="48.67233" lon="7.28827">
        <ele>499.20001220703</ele>
        <time>2013-09-27T10:11:42.000Z</time>
      </trkpt>
      <trkpt lat="48.67198" lon="7.28816">
        <ele>497.60000610352</ele>
        <time>2013-09-27T10:11:53.000Z</time>
      </trkpt>
      <trkpt lat="48.67152" lon="7.28799">
        <ele>497</ele>
        <time>2013-09-27T10:12:05.000Z</time>
      </trkpt>
      <trkpt lat="48.67119" lon="7.28788">
        <ele>496.60000610352</ele>
        <time>2013-09-27T10:12:15.000Z</time>
      </trkpt>
      <trkpt lat="48.67079" lon="7.28774">
        <ele>495.20001220703</ele>
        <time>2013-09-27T10:12:26.000Z</time>
      </trkpt>
      <trkpt lat="48.67036" lon="7.28767">
        <ele>494.20001220703</ele>
        <time>2013-09-27T10:12:37.000Z</time>
      </trkpt>
      <trkpt lat="48.67008" lon="7.28781">
        <ele>496.20001220703</ele>
        <time>2013-09-27T10:12:48.000Z</time>
      </trkpt>
      <trkpt lat="48.66971" lon="7.2879">
        <ele>497.20001220703</ele>
        <time>2013-09-27T10:12:57.000Z</time>
      </trkpt>
      <trkpt lat="48.66939" lon="7.28813">
        <ele>497.60000610352</ele>
        <time>2013-09-27T10:13:07.000Z</time>
      </trkpt>
      <trkpt lat="48.66916" lon="7.2885">
        <ele>499.20001220703</ele>
        <time>2013-09-27T10:13:19.000Z</time>
      </trkpt>
      <trkpt lat="48.66898" lon="7.28869">
        <ele>499.20001220703</ele>
        <time>2013-09-27T10:13:32.000Z</time>
      </trkpt>
      <trkpt lat="48.66898" lon="7.28871">
        <ele>499.20001220703</ele>
        <time>2013-09-27T10:13:48.000Z</time>
      </trkpt>
      <trkpt lat="48.66895" lon="7.28872">
        <ele>499.20001220703</ele>
        <time>2013-09-27T10:14:14.000Z</time>
      </trkpt>
      <trkpt lat="48.66892" lon="7.2887">
        <ele>499.20001220703</ele>
        <time>2013-09-27T10:14:42.000Z</time>
      </trkpt>
      <trkpt lat="48.66892" lon="7.28871">
        <ele>499.60000610352</ele>
        <time>2013-09-27T10:15:04.000Z</time>
      </trkpt>
      <trkpt lat="48.66891" lon="7.28873">
        <ele>499.60000610352</ele>
        <time>2013-09-27T10:15:36.000Z</time>
      </trkpt>
      <trkpt lat="48.6689" lon="7.28874">
        <ele>499.60000610352</ele>
        <time>2013-09-27T10:16:07.000Z</time>
      </trkpt>
      <trkpt lat="48.66887" lon="7.28872">
        <ele>499.60000610352</ele>
        <time>2013-09-27T10:16:36.000Z</time>
      </trkpt>
      <trkpt lat="48.66885" lon="7.28871">
        <ele>499</ele>
        <time>2013-09-27T10:17:04.000Z</time>
      </trkpt>
      <trkpt lat="48.66891" lon="7.28878">
        <ele>499.20001220703</ele>
        <time>2013-09-27T10:17:30.000Z</time>
      </trkpt>
      <trkpt lat="48.66892" lon="7.28876">
        <ele>499.20001220703</ele>
        <time>2013-09-27T10:18:04.000Z</time>
      </trkpt>
      <trkpt lat="48.66892" lon="7.28874">
        <ele>499.60000610352</ele>
        <time>2013-09-27T10:18:28.000Z</time>
      </trkpt>
      <trkpt lat="48.66895" lon="7.28874">
        <ele>499.60000610352</ele>
        <time>2013-09-27T10:19:00.000Z</time>
      </trkpt>
      <trkpt lat="48.66894" lon="7.28877">
        <ele>499.60000610352</ele>
        <time>2013-09-27T10:19:31.000Z</time>
      </trkpt>
      <trkpt lat="48.66894" lon="7.28878">
        <ele>499.60000610352</ele>
        <time>2013-09-27T10:20:04.000Z</time>
      </trkpt>
      <trkpt lat="48.66895" lon="7.28882">
        <ele>499.60000610352</ele>
        <time>2013-09-27T10:20:37.000Z</time>
      </trkpt>
      <trkpt lat="48.66891" lon="7.28884">
        <ele>499.60000610352</ele>
        <time>2013-09-27T10:21:08.000Z</time>
      </trkpt>
      <trkpt lat="48.66895" lon="7.28884">
        <ele>499.60000610352</ele>
        <time>2013-09-27T10:21:43.000Z</time>
      </trkpt>
      <trkpt lat="48.66891" lon="7.28882">
        <ele>499.60000610352</ele>
        <time>2013-09-27T10:22:18.000Z</time>
      </trkpt>
      <trkpt lat="48.66895" lon="7.28875">
        <ele>499.60000610352</ele>
        <time>2013-09-27T10:22:49.000Z</time>
      </trkpt>
      <trkpt lat="48.66898" lon="7.28875">
        <ele>500</ele>
        <time>2013-09-27T10:23:23.000Z</time>
      </trkpt>
      <trkpt lat="48.66899" lon="7.28875">
        <ele>500</ele>
        <time>2013-09-27T10:23:53.000Z</time>
      </trkpt>
      <trkpt lat="48.66899" lon="7.28876">
        <ele>500</ele>
        <time>2013-09-27T10:24:24.000Z</time>
      </trkpt>
      <trkpt lat="48.66899" lon="7.28882">
        <ele>500</ele>
        <time>2013-09-27T10:24:59.000Z</time>
      </trkpt>
      <trkpt lat="48.669" lon="7.28883">
        <ele>500</ele>
        <time>2013-09-27T10:25:33.000Z</time>
      </trkpt>
      <trkpt lat="48.66901" lon="7.28885">
        <ele>500</ele>
        <time>2013-09-27T10:26:02.000Z</time>
      </trkpt>
      <trkpt lat="48.66902" lon="7.28885">
        <ele>500</ele>
        <time>2013-09-27T10:26:32.000Z</time>
      </trkpt>
      <trkpt lat="48.66901" lon="7.28885">
        <ele>499.60000610352</ele>
        <time>2013-09-27T10:27:07.000Z</time>
      </trkpt>
      <trkpt lat="48.66887" lon="7.28893">
        <ele>500</ele>
        <time>2013-09-27T10:27:44.000Z</time>
      </trkpt>
      <trkpt lat="48.66882" lon="7.28917">
        <ele>500</ele>
        <time>2013-09-27T10:28:09.000Z</time>
      </trkpt>
      <trkpt lat="48.66887" lon="7.28906">
        <ele>499.60000610352</ele>
        <time>2013-09-27T10:28:43.000Z</time>
      </trkpt>
      <trkpt lat="48.66888" lon="7.28903">
        <ele>500</ele>
        <time>2013-09-27T10:29:22.000Z</time>
      </trkpt>
      <trkpt lat="48.66893" lon="7.28895">
        <ele>500</ele>
        <time>2013-09-27T10:29:54.000Z</time>
      </trkpt>
      <trkpt lat="48.66894" lon="7.28891">
        <ele>500</ele>
        <time>2013-09-27T10:30:26.000Z</time>
      </trkpt>
      <trkpt lat="48.66894" lon="7.28894">
        <ele>499.60000610352</ele>
        <time>2013-09-27T10:30:57.000Z</time>
      </trkpt>
      <trkpt lat="48.66892" lon="7.28894">
        <ele>499.60000610352</ele>
        <time>2013-09-27T10:31:31.000Z</time>
      </trkpt>
      <trkpt lat="48.66894" lon="7.28896">
        <ele>499.60000610352</ele>
        <time>2013-09-27T10:32:03.000Z</time>
      </trkpt>
      <trkpt lat="48.66894" lon="7.28895">
        <ele>499.60000610352</ele>
        <time>2013-09-27T10:32:36.000Z</time>
      </trkpt>
      <trkpt lat="48.66896" lon="7.2889">
        <ele>499.60000610352</ele>
        <time>2013-09-27T10:33:08.000Z</time>
      </trkpt>
      <trkpt lat="48.66898" lon="7.28886">
        <ele>499.60000610352</ele>
        <time>2013-09-27T10:33:38.000Z</time>
      </trkpt>
      <trkpt lat="48.66898" lon="7.28883">
        <ele>499.60000610352</ele>
        <time>2013-09-27T10:34:12.000Z</time>
      </trkpt>
      <trkpt lat="48.66893" lon="7.28888">
        <ele>499.60000610352</ele>
        <time>2013-09-27T10:34:50.000Z</time>
      </trkpt>
      <trkpt lat="48.66892" lon="7.28896">
        <ele>499.60000610352</ele>
        <time>2013-09-27T10:35:21.000Z</time>
      </trkpt>
      <trkpt lat="48.66893" lon="7.28894">
        <ele>499.60000610352</ele>
        <time>2013-09-27T10:35:56.000Z</time>
      </trkpt>
      <trkpt lat="48.66893" lon="7.28887">
        <ele>499.60000610352</ele>
        <time>2013-09-27T10:36:30.000Z</time>
      </trkpt>
      <trkpt lat="48.66897" lon="7.28883">
        <ele>499.60000610352</ele>
        <time>2013-09-27T10:37:03.000Z</time>
      </trkpt>
      <trkpt lat="48.66893" lon="7.28888">
        <ele>500</ele>
        <time>2013-09-27T10:37:33.000Z</time>
      </trkpt>
      <trkpt lat="48.66894" lon="7.28885">
        <ele>500</ele>
        <time>2013-09-27T10:38:03.000Z</time>
      </trkpt>
      <trkpt lat="48.66893" lon="7.28883">
        <ele>500.20001220703</ele>
        <time>2013-09-27T10:38:42.000Z</time>
      </trkpt>
      <trkpt lat="48.66894" lon="7.28883">
        <ele>500.20001220703</ele>
        <time>2013-09-27T10:39:08.000Z</time>
      </trkpt>
      <trkpt lat="48.66896" lon="7.28883">
        <ele>500.20001220703</ele>
        <time>2013-09-27T10:39:43.000Z</time>
      </trkpt>
      <trkpt lat="48.66897" lon="7.28883">
        <ele>500</ele>
        <time>2013-09-27T10:40:17.000Z</time>
      </trkpt>
      <trkpt lat="48.66897" lon="7.28886">
        <ele>500.20001220703</ele>
        <time>2013-09-27T10:40:49.000Z</time>
      </trkpt>
      <trkpt lat="48.66897" lon="7.28892">
        <ele>500.20001220703</ele>
        <time>2013-09-27T10:41:21.000Z</time>
      </trkpt>
      <trkpt lat="48.66897" lon="7.28897">
        <ele>500.20001220703</ele>
        <time>2013-09-27T10:41:54.000Z</time>
      </trkpt>
      <trkpt lat="48.66898" lon="7.28896">
        <ele>500</ele>
        <time>2013-09-27T10:42:26.000Z</time>
      </trkpt>
      <trkpt lat="48.66898" lon="7.28895">
        <ele>500</ele>
        <time>2013-09-27T10:42:59.000Z</time>
      </trkpt>
      <trkpt lat="48.66898" lon="7.28895">
        <ele>500</ele>
        <time>2013-09-27T10:43:29.000Z</time>
      </trkpt>
      <trkpt lat="48.66897" lon="7.28898">
        <ele>500</ele>
        <time>2013-09-27T10:43:59.000Z</time>
      </trkpt>
      <trkpt lat="48.66897" lon="7.28896">
        <ele>500</ele>
        <time>2013-09-27T10:44:30.000Z</time>
      </trkpt>
      <trkpt lat="48.66898" lon="7.28894">
        <ele>500</ele>
        <time>2013-09-27T10:45:02.000Z</time>
      </trkpt>
      <trkpt lat="48.66898" lon="7.28895">
        <ele>500.20001220703</ele>
        <time>2013-09-27T10:45:31.000Z</time>
      </trkpt>
      <trkpt lat="48.66895" lon="7.28888">
        <ele>500.20001220703</ele>
        <time>2013-09-27T10:45:59.000Z</time>
      </trkpt>
      <trkpt lat="48.66894" lon="7.28884">
        <ele>500.20001220703</ele>
        <time>2013-09-27T10:46:21.000Z</time>
      </trkpt>
      <trkpt lat="48.66895" lon="7.28883">
        <ele>499.60000610352</ele>
        <time>2013-09-27T10:46:48.000Z</time>
      </trkpt>
      <trkpt lat="48.66894" lon="7.2888">
        <ele>500</ele>
        <time>2013-09-27T10:47:20.000Z</time>
      </trkpt>
      <trkpt lat="48.66893" lon="7.28882">
        <ele>500</ele>
        <time>2013-09-27T10:47:54.000Z</time>
      </trkpt>
      <trkpt lat="48.6689" lon="7.28899">
        <ele>499.60000610352</ele>
        <time>2013-09-27T10:48:17.000Z</time>
      </trkpt>
      <trkpt lat="48.66894" lon="7.28935">
        <ele>500.60000610352</ele>
        <time>2013-09-27T10:48:29.000Z</time>
      </trkpt>
      <trkpt lat="48.66896" lon="7.28976">
        <ele>501.20001220703</ele>
        <time>2013-09-27T10:48:41.000Z</time>
      </trkpt>
      <trkpt lat="48.66896" lon="7.28979">
        <ele>501.60000610352</ele>
        <time>2013-09-27T10:48:42.000Z</time>
      </trkpt>
      <trkpt lat="48.66897" lon="7.29029">
        <ele>502.60000610352</ele>
        <time>2013-09-27T10:48:55.000Z</time>
      </trkpt>
      <trkpt lat="48.66897" lon="7.29033">
        <ele>502.60000610352</ele>
        <time>2013-09-27T10:48:56.000Z</time>
      </trkpt>
      <trkpt lat="48.669" lon="7.29052">
        <ele>503.20001220703</ele>
        <time>2013-09-27T10:49:01.000Z</time>
      </trkpt>
      <trkpt lat="48.66911" lon="7.29098">
        <ele>505</ele>
        <time>2013-09-27T10:49:13.000Z</time>
      </trkpt>
      <trkpt lat="48.66923" lon="7.29151">
        <ele>505.20001220703</ele>
        <time>2013-09-27T10:49:25.000Z</time>
      </trkpt>
      <trkpt lat="48.66936" lon="7.29201">
        <ele>504.60000610352</ele>
        <time>2013-09-27T10:49:36.000Z</time>
      </trkpt>
      <trkpt lat="48.66951" lon="7.29253">
        <ele>503.20001220703</ele>
        <time>2013-09-27T10:49:47.000Z</time>
      </trkpt>
      <trkpt lat="48.66965" lon="7.29294">
        <ele>501.60000610352</ele>
        <time>2013-09-27T10:49:54.000Z</time>
      </trkpt>
      <trkpt lat="48.66977" lon="7.2932">
        <ele>501.20001220703</ele>
        <time>2013-09-27T10:49:59.000Z</time>
      </trkpt>
      <trkpt lat="48.66999" lon="7.29368">
        <ele>501</ele>
        <time>2013-09-27T10:50:12.000Z</time>
      </trkpt>
      <trkpt lat="48.67023" lon="7.29423">
        <ele>499.60000610352</ele>
        <time>2013-09-27T10:50:25.000Z</time>
      </trkpt>
      <trkpt lat="48.67057" lon="7.29479">
        <ele>498.60000610352</ele>
        <time>2013-09-27T10:50:38.000Z</time>
      </trkpt>
      <trkpt lat="48.67091" lon="7.29513">
        <ele>498</ele>
        <time>2013-09-27T10:50:50.000Z</time>
      </trkpt>
      <trkpt lat="48.67121" lon="7.29539">
        <ele>498.20001220703</ele>
        <time>2013-09-27T10:51:03.000Z</time>
      </trkpt>
      <trkpt lat="48.67171" lon="7.29584">
        <ele>499.60000610352</ele>
        <time>2013-09-27T10:51:16.000Z</time>
      </trkpt>
      <trkpt lat="48.67212" lon="7.29624">
        <ele>499.60000610352</ele>
        <time>2013-09-27T10:51:28.000Z</time>
      </trkpt>
      <trkpt lat="48.67234" lon="7.29689">
        <ele>499.20001220703</ele>
        <time>2013-09-27T10:51:38.000Z</time>
      </trkpt>
      <trkpt lat="48.67234" lon="7.29703">
        <ele>499</ele>
        <time>2013-09-27T10:51:40.000Z</time>
      </trkpt>
      <trkpt lat="48.67231" lon="7.29734">
        <ele>498.60000610352</ele>
        <time>2013-09-27T10:51:44.000Z</time>
      </trkpt>
      <trkpt lat="48.67226" lon="7.29774">
        <ele>498.20001220703</ele>
        <time>2013-09-27T10:51:49.000Z</time>
      </trkpt>
      <trkpt lat="48.67225" lon="7.29792">
        <ele>497.60000610352</ele>
        <time>2013-09-27T10:51:51.000Z</time>
      </trkpt>
      <trkpt lat="48.67222" lon="7.29817">
        <ele>497.20001220703</ele>
        <time>2013-09-27T10:51:54.000Z</time>
      </trkpt>
      <trkpt lat="48.67217" lon="7.29837">
        <ele>496.60000610352</ele>
        <time>2013-09-27T10:51:57.000Z</time>
      </trkpt>
      <trkpt lat="48.6721" lon="7.29865">
        <ele>496.60000610352</ele>
        <time>2013-09-27T10:52:01.000Z</time>
      </trkpt>
      <trkpt lat="48.67206" lon="7.29899">
        <ele>496.20001220703</ele>
        <time>2013-09-27T10:52:05.000Z</time>
      </trkpt>
      <trkpt lat="48.67199" lon="7.29982">
        <ele>495.20001220703</ele>
        <time>2013-09-27T10:52:13.000Z</time>
      </trkpt>
      <trkpt lat="48.67207" lon="7.30041">
        <ele>494.20001220703</ele>
        <time>2013-09-27T10:52:19.000Z</time>
      </trkpt>
      <trkpt lat="48.67212" lon="7.30057">
        <ele>494</ele>
        <time>2013-09-27T10:52:21.000Z</time>
      </trkpt>
      <trkpt lat="48.67219" lon="7.30074">
        <ele>493.60000610352</ele>
        <time>2013-09-27T10:52:24.000Z</time>
      </trkpt>
      <trkpt lat="48.67236" lon="7.30098">
        <ele>492.20001220703</ele>
        <time>2013-09-27T10:52:29.000Z</time>
      </trkpt>
      <trkpt lat="48.67291" lon="7.3016">
        <ele>490.60000610352</ele>
        <time>2013-09-27T10:52:40.000Z</time>
      </trkpt>
      <trkpt lat="48.6732" lon="7.3019">
        <ele>489.60000610352</ele>
        <time>2013-09-27T10:52:46.000Z</time>
      </trkpt>
      <trkpt lat="48.67369" lon="7.30248">
        <ele>488.60000610352</ele>
        <time>2013-09-27T10:52:56.000Z</time>
      </trkpt>
      <trkpt lat="48.67409" lon="7.30353">
        <ele>487</ele>
        <time>2013-09-27T10:53:05.000Z</time>
      </trkpt>
      <trkpt lat="48.67393" lon="7.30432">
        <ele>485.60000610352</ele>
        <time>2013-09-27T10:53:13.000Z</time>
      </trkpt>
      <trkpt lat="48.67383" lon="7.30453">
        <ele>485</ele>
        <time>2013-09-27T10:53:16.000Z</time>
      </trkpt>
      <trkpt lat="48.67381" lon="7.30479">
        <ele>484.20001220703</ele>
        <time>2013-09-27T10:53:18.000Z</time>
      </trkpt>
      <trkpt lat="48.67374" lon="7.30504">
        <ele>484</ele>
        <time>2013-09-27T10:53:21.000Z</time>
      </trkpt>
      <trkpt lat="48.67382" lon="7.3057">
        <ele>482.20001220703</ele>
        <time>2013-09-27T10:53:28.000Z</time>
      </trkpt>
      <trkpt lat="48.6739" lon="7.30603">
        <ele>481.60000610352</ele>
        <time>2013-09-27T10:53:33.000Z</time>
      </trkpt>
      <trkpt lat="48.67416" lon="7.30674">
        <ele>480.20001220703</ele>
        <time>2013-09-27T10:53:44.000Z</time>
      </trkpt>
      <trkpt lat="48.67425" lon="7.30694">
        <ele>479.60000610352</ele>
        <time>2013-09-27T10:53:47.000Z</time>
      </trkpt>
      <trkpt lat="48.67437" lon="7.30722">
        <ele>479.20001220703</ele>
        <time>2013-09-27T10:53:51.000Z</time>
      </trkpt>
      <trkpt lat="48.67457" lon="7.30771">
        <ele>478.60000610352</ele>
        <time>2013-09-27T10:53:57.000Z</time>
      </trkpt>
      <trkpt lat="48.6747" lon="7.30809">
        <ele>477.60000610352</ele>
        <time>2013-09-27T10:54:02.000Z</time>
      </trkpt>
      <trkpt lat="48.67504" lon="7.30905">
        <ele>476.20001220703</ele>
        <time>2013-09-27T10:54:13.000Z</time>
      </trkpt>
      <trkpt lat="48.67506" lon="7.30913">
        <ele>476</ele>
        <time>2013-09-27T10:54:14.000Z</time>
      </trkpt>
      <trkpt lat="48.67507" lon="7.30942">
        <ele>475.60000610352</ele>
        <time>2013-09-27T10:54:17.000Z</time>
      </trkpt>
      <trkpt lat="48.6751" lon="7.30988">
        <ele>475.20001220703</ele>
        <time>2013-09-27T10:54:23.000Z</time>
      </trkpt>
      <trkpt lat="48.67507" lon="7.31019">
        <ele>475</ele>
        <time>2013-09-27T10:54:27.000Z</time>
      </trkpt>
      <trkpt lat="48.675" lon="7.31062">
        <ele>474.60000610352</ele>
        <time>2013-09-27T10:54:33.000Z</time>
      </trkpt>
      <trkpt lat="48.67502" lon="7.31137">
        <ele>474.60000610352</ele>
        <time>2013-09-27T10:54:43.000Z</time>
      </trkpt>
      <trkpt lat="48.67503" lon="7.31144">
        <ele>474.60000610352</ele>
        <time>2013-09-27T10:54:44.000Z</time>
      </trkpt>
      <trkpt lat="48.67507" lon="7.31161">
        <ele>474.60000610352</ele>
        <time>2013-09-27T10:54:46.000Z</time>
      </trkpt>
      <trkpt lat="48.67537" lon="7.31239">
        <ele>474.60000610352</ele>
        <time>2013-09-27T10:54:59.000Z</time>
      </trkpt>
      <trkpt lat="48.6758" lon="7.31275">
        <ele>474.20001220703</ele>
        <time>2013-09-27T10:55:12.000Z</time>
      </trkpt>
      <trkpt lat="48.67616" lon="7.31277">
        <ele>474.20001220703</ele>
        <time>2013-09-27T10:55:20.000Z</time>
      </trkpt>
      <trkpt lat="48.67633" lon="7.31272">
        <ele>474.20001220703</ele>
        <time>2013-09-27T10:55:24.000Z</time>
      </trkpt>
      <trkpt lat="48.67657" lon="7.31257">
        <ele>474.60000610352</ele>
        <time>2013-09-27T10:55:30.000Z</time>
      </trkpt>
      <trkpt lat="48.67679" lon="7.31249">
        <ele>474.20001220703</ele>
        <time>2013-09-27T10:55:35.000Z</time>
      </trkpt>
      <trkpt lat="48.67701" lon="7.31246">
        <ele>473.60000610352</ele>
        <time>2013-09-27T10:55:40.000Z</time>
      </trkpt>
      <trkpt lat="48.67724" lon="7.31247">
        <ele>473.20001220703</ele>
        <time>2013-09-27T10:55:45.000Z</time>
      </trkpt>
      <trkpt lat="48.67761" lon="7.31258">
        <ele>472.20001220703</ele>
        <time>2013-09-27T10:55:52.000Z</time>
      </trkpt>
      <trkpt lat="48.67824" lon="7.31241">
        <ele>471</ele>
        <time>2013-09-27T10:56:03.000Z</time>
      </trkpt>
      <trkpt lat="48.67836" lon="7.31238">
        <ele>470.60000610352</ele>
        <time>2013-09-27T10:56:05.000Z</time>
      </trkpt>
      <trkpt lat="48.6787" lon="7.31233">
        <ele>470</ele>
        <time>2013-09-27T10:56:10.000Z</time>
      </trkpt>
      <trkpt lat="48.6789" lon="7.31236">
        <ele>469.20001220703</ele>
        <time>2013-09-27T10:56:13.000Z</time>
      </trkpt>
      <trkpt lat="48.67919" lon="7.31248">
        <ele>469.20001220703</ele>
        <time>2013-09-27T10:56:17.000Z</time>
      </trkpt>
      <trkpt lat="48.67972" lon="7.31285">
        <ele>467.60000610352</ele>
        <time>2013-09-27T10:56:25.000Z</time>
      </trkpt>
      <trkpt lat="48.68006" lon="7.31286">
        <ele>466.20001220703</ele>
        <time>2013-09-27T10:56:30.000Z</time>
      </trkpt>
      <trkpt lat="48.68032" lon="7.31266">
        <ele>465.20001220703</ele>
        <time>2013-09-27T10:56:35.000Z</time>
      </trkpt>
      <trkpt lat="48.68054" lon="7.31236">
        <ele>464.20001220703</ele>
        <time>2013-09-27T10:56:40.000Z</time>
      </trkpt>
      <trkpt lat="48.68076" lon="7.31204">
        <ele>463</ele>
        <time>2013-09-27T10:56:46.000Z</time>
      </trkpt>
      <trkpt lat="48.68094" lon="7.3118">
        <ele>461.60000610352</ele>
        <time>2013-09-27T10:56:57.000Z</time>
      </trkpt>
      <trkpt lat="48.68123" lon="7.31161">
        <ele>461</ele>
        <time>2013-09-27T10:57:08.000Z</time>
      </trkpt>
      <trkpt lat="48.68133" lon="7.31156">
        <ele>460.60000610352</ele>
        <time>2013-09-27T10:57:21.000Z</time>
      </trkpt>
      <trkpt lat="48.68135" lon="7.31157">
        <ele>461</ele>
        <time>2013-09-27T10:57:39.000Z</time>
      </trkpt>
      <trkpt lat="48.68134" lon="7.31157">
        <ele>461</ele>
        <time>2013-09-27T10:58:00.000Z</time>
      </trkpt>
      <trkpt lat="48.68134" lon="7.31161">
        <ele>461.20001220703</ele>
        <time>2013-09-27T10:58:31.000Z</time>
      </trkpt>
      <trkpt lat="48.68138" lon="7.31161">
        <ele>461.20001220703</ele>
        <time>2013-09-27T10:59:02.000Z</time>
      </trkpt>
      <trkpt lat="48.68136" lon="7.31161">
        <ele>461.20001220703</ele>
        <time>2013-09-27T10:59:28.000Z</time>
      </trkpt>
      <trkpt lat="48.68136" lon="7.31162">
        <ele>461.20001220703</ele>
        <time>2013-09-27T11:00:01.000Z</time>
      </trkpt>
      <trkpt lat="48.6813" lon="7.31162">
        <ele>461.20001220703</ele>
        <time>2013-09-27T11:00:31.000Z</time>
      </trkpt>
      <trkpt lat="48.68129" lon="7.31164">
        <ele>461.20001220703</ele>
        <time>2013-09-27T11:01:02.000Z</time>
      </trkpt>
      <trkpt lat="48.6813" lon="7.3117">
        <ele>461.20001220703</ele>
        <time>2013-09-27T11:01:36.000Z</time>
      </trkpt>
      <trkpt lat="48.68132" lon="7.31173">
        <ele>461.20001220703</ele>
        <time>2013-09-27T11:02:15.000Z</time>
      </trkpt>
      <trkpt lat="48.6813" lon="7.3117">
        <ele>461</ele>
        <time>2013-09-27T11:02:48.000Z</time>
      </trkpt>
      <trkpt lat="48.68133" lon="7.31167">
        <ele>460.60000610352</ele>
        <time>2013-09-27T11:02:56.000Z</time>
      </trkpt>
      <trkpt lat="48.68144" lon="7.31165">
        <ele>461</ele>
        <time>2013-09-27T11:03:02.000Z</time>
      </trkpt>
      <trkpt lat="48.68162" lon="7.31179">
        <ele>461.60000610352</ele>
        <time>2013-09-27T11:03:11.000Z</time>
      </trkpt>
      <trkpt lat="48.68174" lon="7.312">
        <ele>461.60000610352</ele>
        <time>2013-09-27T11:03:19.000Z</time>
      </trkpt>
      <trkpt lat="48.68177" lon="7.31207">
        <ele>461.60000610352</ele>
        <time>2013-09-27T11:03:22.000Z</time>
      </trkpt>
      <trkpt lat="48.68183" lon="7.3122">
        <ele>461.60000610352</ele>
        <time>2013-09-27T11:03:26.000Z</time>
      </trkpt>
      <trkpt lat="48.68205" lon="7.31264">
        <ele>462.20001220703</ele>
        <time>2013-09-27T11:03:39.000Z</time>
      </trkpt>
      <trkpt lat="48.68209" lon="7.31271">
        <ele>462.20001220703</ele>
        <time>2013-09-27T11:03:43.000Z</time>
      </trkpt>
      <trkpt lat="48.68225" lon="7.31294">
        <ele>462.60000610352</ele>
        <time>2013-09-27T11:03:51.000Z</time>
      </trkpt>
      <trkpt lat="48.68261" lon="7.31331">
        <ele>463.20001220703</ele>
        <time>2013-09-27T11:04:05.000Z</time>
      </trkpt>
      <trkpt lat="48.68274" lon="7.31342">
        <ele>463.60000610352</ele>
        <time>2013-09-27T11:04:11.000Z</time>
      </trkpt>
      <trkpt lat="48.68309" lon="7.31375">
        <ele>463.60000610352</ele>
        <time>2013-09-27T11:04:22.000Z</time>
      </trkpt>
      <trkpt lat="48.68343" lon="7.31411">
        <ele>462.20001220703</ele>
        <time>2013-09-27T11:04:33.000Z</time>
      </trkpt>
      <trkpt lat="48.68352" lon="7.31418">
        <ele>462</ele>
        <time>2013-09-27T11:04:35.000Z</time>
      </trkpt>
      <trkpt lat="48.68378" lon="7.31444">
        <ele>460</ele>
        <time>2013-09-27T11:04:41.000Z</time>
      </trkpt>
      <trkpt lat="48.68394" lon="7.31455">
        <ele>459</ele>
        <time>2013-09-27T11:04:44.000Z</time>
      </trkpt>
      <trkpt lat="48.68426" lon="7.31476">
        <ele>457</ele>
        <time>2013-09-27T11:04:51.000Z</time>
      </trkpt>
      <trkpt lat="48.68477" lon="7.31501">
        <ele>455.20001220703</ele>
        <time>2013-09-27T11:05:02.000Z</time>
      </trkpt>
      <trkpt lat="48.68529" lon="7.31519">
        <ele>452.60000610352</ele>
        <time>2013-09-27T11:05:13.000Z</time>
      </trkpt>
      <trkpt lat="48.68577" lon="7.31541">
        <ele>450.60000610352</ele>
        <time>2013-09-27T11:05:24.000Z</time>
      </trkpt>
      <trkpt lat="48.68598" lon="7.31551">
        <ele>450.20001220703</ele>
        <time>2013-09-27T11:05:33.000Z</time>
      </trkpt>
      <trkpt lat="48.68602" lon="7.31554">
        <ele>450.20001220703</ele>
        <time>2013-09-27T11:05:37.000Z</time>
      </trkpt>
      <trkpt lat="48.68612" lon="7.31585">
        <ele>447.20001220703</ele>
        <time>2013-09-27T11:05:48.000Z</time>
      </trkpt>
      <trkpt lat="48.68614" lon="7.31587">
        <ele>447.20001220703</ele>
        <time>2013-09-27T11:05:49.000Z</time>
      </trkpt>
      <trkpt lat="48.68618" lon="7.31593">
        <ele>447</ele>
        <time>2013-09-27T11:05:51.000Z</time>
      </trkpt>
      <trkpt lat="48.68627" lon="7.31617">
        <ele>446.20001220703</ele>
        <time>2013-09-27T11:06:12.000Z</time>
      </trkpt>
      <trkpt lat="48.6863" lon="7.31622">
        <ele>445.60000610352</ele>
        <time>2013-09-27T11:06:24.000Z</time>
      </trkpt>
      <trkpt lat="48.68639" lon="7.31636">
        <ele>445.60000610352</ele>
        <time>2013-09-27T11:06:30.000Z</time>
      </trkpt>
      <trkpt lat="48.68645" lon="7.31643">
        <ele>445.60000610352</ele>
        <time>2013-09-27T11:06:32.000Z</time>
      </trkpt>
      <trkpt lat="48.68659" lon="7.31672">
        <ele>445.60000610352</ele>
        <time>2013-09-27T11:06:36.000Z</time>
      </trkpt>
      <trkpt lat="48.68669" lon="7.31707">
        <ele>444.20001220703</ele>
        <time>2013-09-27T11:06:41.000Z</time>
      </trkpt>
      <trkpt lat="48.68676" lon="7.31723">
        <ele>444</ele>
        <time>2013-09-27T11:06:43.000Z</time>
      </trkpt>
      <trkpt lat="48.68683" lon="7.31747">
        <ele>443</ele>
        <time>2013-09-27T11:06:46.000Z</time>
      </trkpt>
      <trkpt lat="48.68698" lon="7.31783">
        <ele>440.60000610352</ele>
        <time>2013-09-27T11:06:51.000Z</time>
      </trkpt>
      <trkpt lat="48.6873" lon="7.31849">
        <ele>437.20001220703</ele>
        <time>2013-09-27T11:07:02.000Z</time>
      </trkpt>
      <trkpt lat="48.68756" lon="7.3189">
        <ele>435</ele>
        <time>2013-09-27T11:07:08.000Z</time>
      </trkpt>
      <trkpt lat="48.68771" lon="7.31916">
        <ele>433</ele>
        <time>2013-09-27T11:07:12.000Z</time>
      </trkpt>
      <trkpt lat="48.68791" lon="7.31937">
        <ele>431.20001220703</ele>
        <time>2013-09-27T11:07:17.000Z</time>
      </trkpt>
      <trkpt lat="48.68803" lon="7.3196">
        <ele>430.20001220703</ele>
        <time>2013-09-27T11:07:20.000Z</time>
      </trkpt>
      <trkpt lat="48.6884" lon="7.32015">
        <ele>426.60000610352</ele>
        <time>2013-09-27T11:07:29.000Z</time>
      </trkpt>
      <trkpt lat="48.68873" lon="7.32077">
        <ele>424.60000610352</ele>
        <time>2013-09-27T11:07:38.000Z</time>
      </trkpt>
      <trkpt lat="48.68902" lon="7.32129">
        <ele>422.20001220703</ele>
        <time>2013-09-27T11:07:46.000Z</time>
      </trkpt>
      <trkpt lat="48.68954" lon="7.32184">
        <ele>418.60000610352</ele>
        <time>2013-09-27T11:07:56.000Z</time>
      </trkpt>
      <trkpt lat="48.68966" lon="7.32194">
        <ele>418</ele>
        <time>2013-09-27T11:07:58.000Z</time>
      </trkpt>
      <trkpt lat="48.68994" lon="7.32216">
        <ele>415.60000610352</ele>
        <time>2013-09-27T11:08:03.000Z</time>
      </trkpt>
      <trkpt lat="48.69009" lon="7.32226">
        <ele>414.20001220703</ele>
        <time>2013-09-27T11:08:06.000Z</time>
      </trkpt>
      <trkpt lat="48.69024" lon="7.32241">
        <ele>413.20001220703</ele>
        <time>2013-09-27T11:08:09.000Z</time>
      </trkpt>
      <trkpt lat="48.69038" lon="7.32256">
        <ele>411.60000610352</ele>
        <time>2013-09-27T11:08:12.000Z</time>
      </trkpt>
      <trkpt lat="48.69077" lon="7.32293">
        <ele>409.20001220703</ele>
        <time>2013-09-27T11:08:20.000Z</time>
      </trkpt>
      <trkpt lat="48.69098" lon="7.32308">
        <ele>408</ele>
        <time>2013-09-27T11:08:24.000Z</time>
      </trkpt>
      <trkpt lat="48.69126" lon="7.32352">
        <ele>405.20001220703</ele>
        <time>2013-09-27T11:08:31.000Z</time>
      </trkpt>
      <trkpt lat="48.69152" lon="7.32396">
        <ele>403.20001220703</ele>
        <time>2013-09-27T11:08:37.000Z</time>
      </trkpt>
      <trkpt lat="48.6917" lon="7.3243">
        <ele>401.20001220703</ele>
        <time>2013-09-27T11:08:41.000Z</time>
      </trkpt>
      <trkpt lat="48.69199" lon="7.32466">
        <ele>399</ele>
        <time>2013-09-27T11:08:47.000Z</time>
      </trkpt>
      <trkpt lat="48.69209" lon="7.3248">
        <ele>398</ele>
        <time>2013-09-27T11:08:49.000Z</time>
      </trkpt>
      <trkpt lat="48.69243" lon="7.32512">
        <ele>394.20001220703</ele>
        <time>2013-09-27T11:08:57.000Z</time>
      </trkpt>
      <trkpt lat="48.6929" lon="7.32546">
        <ele>390.60000610352</ele>
        <time>2013-09-27T11:09:05.000Z</time>
      </trkpt>
      <trkpt lat="48.69296" lon="7.32548">
        <ele>390.20001220703</ele>
        <time>2013-09-27T11:09:06.000Z</time>
      </trkpt>
      <trkpt lat="48.69315" lon="7.32548">
        <ele>388.60000610352</ele>
        <time>2013-09-27T11:09:10.000Z</time>
      </trkpt>
      <trkpt lat="48.69353" lon="7.32554">
        <ele>385.60000610352</ele>
        <time>2013-09-27T11:09:17.000Z</time>
      </trkpt>
      <trkpt lat="48.69363" lon="7.32554">
        <ele>385</ele>
        <time>2013-09-27T11:09:19.000Z</time>
      </trkpt>
      <trkpt lat="48.69379" lon="7.32551">
        <ele>383.60000610352</ele>
        <time>2013-09-27T11:09:22.000Z</time>
      </trkpt>
      <trkpt lat="48.69408" lon="7.32542">
        <ele>381</ele>
        <time>2013-09-27T11:09:28.000Z</time>
      </trkpt>
      <trkpt lat="48.69467" lon="7.32572">
        <ele>379.60000610352</ele>
        <time>2013-09-27T11:09:39.000Z</time>
      </trkpt>
      <trkpt lat="48.69521" lon="7.3259">
        <ele>378.20001220703</ele>
        <time>2013-09-27T11:09:51.000Z</time>
      </trkpt>
      <trkpt lat="48.69535" lon="7.32602">
        <ele>376.60000610352</ele>
        <time>2013-09-27T11:10:00.000Z</time>
      </trkpt>
      <trkpt lat="48.69538" lon="7.32602">
        <ele>376.60000610352</ele>
        <time>2013-09-27T11:10:28.000Z</time>
      </trkpt>
      <trkpt lat="48.6954" lon="7.32607">
        <ele>377</ele>
        <time>2013-09-27T11:11:03.000Z</time>
      </trkpt>
      <trkpt lat="48.69542" lon="7.32612">
        <ele>377</ele>
        <time>2013-09-27T11:11:37.000Z</time>
      </trkpt>
      <trkpt lat="48.69544" lon="7.32614">
        <ele>377.20001220703</ele>
        <time>2013-09-27T11:12:13.000Z</time>
      </trkpt>
      <trkpt lat="48.69542" lon="7.32612">
        <ele>377.20001220703</ele>
        <time>2013-09-27T11:12:47.000Z</time>
      </trkpt>
      <trkpt lat="48.69541" lon="7.32611">
        <ele>377.20001220703</ele>
        <time>2013-09-27T11:13:20.000Z</time>
      </trkpt>
      <trkpt lat="48.69544" lon="7.32614">
        <ele>376.60000610352</ele>
        <time>2013-09-27T11:13:25.000Z</time>
      </trkpt>
      <trkpt lat="48.69559" lon="7.32617">
        <ele>376</ele>
        <time>2013-09-27T11:13:31.000Z</time>
      </trkpt>
      <trkpt lat="48.69601" lon="7.3264">
        <ele>375</ele>
        <time>2013-09-27T11:13:42.000Z</time>
      </trkpt>
      <trkpt lat="48.69638" lon="7.32628">
        <ele>374</ele>
        <time>2013-09-27T11:13:53.000Z</time>
      </trkpt>
      <trkpt lat="48.69663" lon="7.32619">
        <ele>373.60000610352</ele>
        <time>2013-09-27T11:14:05.000Z</time>
      </trkpt>
      <trkpt lat="48.69699" lon="7.326">
        <ele>370.60000610352</ele>
        <time>2013-09-27T11:14:13.000Z</time>
      </trkpt>
      <trkpt lat="48.69709" lon="7.32596">
        <ele>370.20001220703</ele>
        <time>2013-09-27T11:14:15.000Z</time>
      </trkpt>
      <trkpt lat="48.69718" lon="7.32594">
        <ele>369.20001220703</ele>
        <time>2013-09-27T11:14:17.000Z</time>
      </trkpt>
      <trkpt lat="48.69747" lon="7.32579">
        <ele>366</ele>
        <time>2013-09-27T11:14:24.000Z</time>
      </trkpt>
      <trkpt lat="48.69757" lon="7.32565">
        <ele>364.60000610352</ele>
        <time>2013-09-27T11:14:27.000Z</time>
      </trkpt>
      <trkpt lat="48.69765" lon="7.32556">
        <ele>363.60000610352</ele>
        <time>2013-09-27T11:14:29.000Z</time>
      </trkpt>
      <trkpt lat="48.6982" lon="7.32486">
        <ele>361</ele>
        <time>2013-09-27T11:14:41.000Z</time>
      </trkpt>
      <trkpt lat="48.69831" lon="7.32472">
        <ele>360</ele>
        <time>2013-09-27T11:14:44.000Z</time>
      </trkpt>
      <trkpt lat="48.69869" lon="7.32392">
        <ele>356.60000610352</ele>
        <time>2013-09-27T11:14:54.000Z</time>
      </trkpt>
      <trkpt lat="48.69898" lon="7.32348">
        <ele>353.20001220703</ele>
        <time>2013-09-27T11:15:01.000Z</time>
      </trkpt>
      <trkpt lat="48.69901" lon="7.32343">
        <ele>352.60000610352</ele>
        <time>2013-09-27T11:15:02.000Z</time>
      </trkpt>
      <trkpt lat="48.69926" lon="7.32324">
        <ele>351.20001220703</ele>
        <time>2013-09-27T11:15:07.000Z</time>
      </trkpt>
      <trkpt lat="48.69967" lon="7.32285">
        <ele>348.20001220703</ele>
        <time>2013-09-27T11:15:15.000Z</time>
      </trkpt>
      <trkpt lat="48.69992" lon="7.32258">
        <ele>346.20001220703</ele>
        <time>2013-09-27T11:15:20.000Z</time>
      </trkpt>
      <trkpt lat="48.70007" lon="7.32237">
        <ele>344.20001220703</ele>
        <time>2013-09-27T11:15:24.000Z</time>
      </trkpt>
      <trkpt lat="48.70017" lon="7.32217">
        <ele>342.60000610352</ele>
        <time>2013-09-27T11:15:28.000Z</time>
      </trkpt>
      <trkpt lat="48.70036" lon="7.32183">
        <ele>340.60000610352</ele>
        <time>2013-09-27T11:15:34.000Z</time>
      </trkpt>
      <trkpt lat="48.70052" lon="7.32161">
        <ele>338.60000610352</ele>
        <time>2013-09-27T11:15:38.000Z</time>
      </trkpt>
      <trkpt lat="48.7008" lon="7.32122">
        <ele>335</ele>
        <time>2013-09-27T11:15:46.000Z</time>
      </trkpt>
      <trkpt lat="48.70091" lon="7.32106">
        <ele>333.20001220703</ele>
        <time>2013-09-27T11:15:50.000Z</time>
      </trkpt>
      <trkpt lat="48.70112" lon="7.32076">
        <ele>331.60000610352</ele>
        <time>2013-09-27T11:15:55.000Z</time>
      </trkpt>
      <trkpt lat="48.70134" lon="7.32029">
        <ele>327.60000610352</ele>
        <time>2013-09-27T11:16:01.000Z</time>
      </trkpt>
      <trkpt lat="48.70181" lon="7.31968">
        <ele>323.60000610352</ele>
        <time>2013-09-27T11:16:08.000Z</time>
      </trkpt>
      <trkpt lat="48.70188" lon="7.31959">
        <ele>322.60000610352</ele>
        <time>2013-09-27T11:16:09.000Z</time>
      </trkpt>
      <trkpt lat="48.70228" lon="7.31916">
        <ele>317.60000610352</ele>
        <time>2013-09-27T11:16:14.000Z</time>
      </trkpt>
      <trkpt lat="48.70249" lon="7.31875">
        <ele>313.20001220703</ele>
        <time>2013-09-27T11:16:18.000Z</time>
      </trkpt>
      <trkpt lat="48.70263" lon="7.31843">
        <ele>309.20001220703</ele>
        <time>2013-09-27T11:16:21.000Z</time>
      </trkpt>
      <trkpt lat="48.70276" lon="7.31817">
        <ele>305.20001220703</ele>
        <time>2013-09-27T11:16:24.000Z</time>
      </trkpt>
      <trkpt lat="48.70302" lon="7.31776">
        <ele>299.20001220703</ele>
        <time>2013-09-27T11:16:29.000Z</time>
      </trkpt>
      <trkpt lat="48.70321" lon="7.31732">
        <ele>294.60000610352</ele>
        <time>2013-09-27T11:16:34.000Z</time>
      </trkpt>
      <trkpt lat="48.7033" lon="7.31701">
        <ele>290.60000610352</ele>
        <time>2013-09-27T11:16:38.000Z</time>
      </trkpt>
      <trkpt lat="48.70352" lon="7.31656">
        <ele>287.20001220703</ele>
        <time>2013-09-27T11:16:47.000Z</time>
      </trkpt>
      <trkpt lat="48.70364" lon="7.31638">
        <ele>285.60000610352</ele>
        <time>2013-09-27T11:16:50.000Z</time>
      </trkpt>
      <trkpt lat="48.70373" lon="7.31611">
        <ele>284.20001220703</ele>
        <time>2013-09-27T11:16:53.000Z</time>
      </trkpt>
      <trkpt lat="48.70402" lon="7.31567">
        <ele>279.60000610352</ele>
        <time>2013-09-27T11:16:58.000Z</time>
      </trkpt>
      <trkpt lat="48.70425" lon="7.31527">
        <ele>275.60000610352</ele>
        <time>2013-09-27T11:17:03.000Z</time>
      </trkpt>
      <trkpt lat="48.70429" lon="7.31519">
        <ele>275</ele>
        <time>2013-09-27T11:17:04.000Z</time>
      </trkpt>
      <trkpt lat="48.70437" lon="7.31498">
        <ele>272.60000610352</ele>
        <time>2013-09-27T11:17:07.000Z</time>
      </trkpt>
      <trkpt lat="48.70448" lon="7.31468">
        <ele>270.20001220703</ele>
        <time>2013-09-27T11:17:11.000Z</time>
      </trkpt>
      <trkpt lat="48.7045" lon="7.31433">
        <ele>266.60000610352</ele>
        <time>2013-09-27T11:17:15.000Z</time>
      </trkpt>
      <trkpt lat="48.7045" lon="7.3139">
        <ele>262.60000610352</ele>
        <time>2013-09-27T11:17:20.000Z</time>
      </trkpt>
      <trkpt lat="48.70449" lon="7.3138">
        <ele>261.20001220703</ele>
        <time>2013-09-27T11:17:21.000Z</time>
      </trkpt>
      <trkpt lat="48.70448" lon="7.31337">
        <ele>256.60000610352</ele>
        <time>2013-09-27T11:17:26.000Z</time>
      </trkpt>
      <trkpt lat="48.70449" lon="7.31303">
        <ele>253.60000610352</ele>
        <time>2013-09-27T11:17:30.000Z</time>
      </trkpt>
      <trkpt lat="48.70447" lon="7.31262">
        <ele>250.19999694824</ele>
        <time>2013-09-27T11:17:34.000Z</time>
      </trkpt>
      <trkpt lat="48.7045" lon="7.31249">
        <ele>248.60000610352</ele>
        <time>2013-09-27T11:17:36.000Z</time>
      </trkpt>
      <trkpt lat="48.70454" lon="7.31225">
        <ele>243.60000610352</ele>
        <time>2013-09-27T11:17:40.000Z</time>
      </trkpt>
      <trkpt lat="48.70457" lon="7.31214">
        <ele>242</ele>
        <time>2013-09-27T11:17:43.000Z</time>
      </trkpt>
      <trkpt lat="48.70471" lon="7.31183">
        <ele>241.80000305176</ele>
        <time>2013-09-27T11:17:58.000Z</time>
      </trkpt>
      <trkpt lat="48.70471" lon="7.31183">
        <ele>241.80000305176</ele>
        <time>2013-09-27T11:18:11.000Z</time>
      </trkpt>
      <trkpt lat="48.70472" lon="7.31184">
        <ele>242</ele>
        <time>2013-09-27T11:18:23.000Z</time>
      </trkpt>
      <trkpt lat="48.70472" lon="7.31186">
        <ele>242</ele>
        <time>2013-09-27T11:18:40.000Z</time>
      </trkpt>
      <trkpt lat="48.70474" lon="7.31185">
        <ele>242</ele>
        <time>2013-09-27T11:18:55.000Z</time>
      </trkpt>
      <trkpt lat="48.70477" lon="7.31186">
        <ele>242.19999694824</ele>
        <time>2013-09-27T11:19:09.000Z</time>
      </trkpt>
      <trkpt lat="48.70483" lon="7.31185">
        <ele>242</ele>
        <time>2013-09-27T11:19:24.000Z</time>
      </trkpt>
      <trkpt lat="48.70477" lon="7.31165">
        <ele>242</ele>
        <time>2013-09-27T11:19:40.000Z</time>
      </trkpt>
      <trkpt lat="48.70483" lon="7.3118">
        <ele>242</ele>
        <time>2013-09-27T11:19:57.000Z</time>
      </trkpt>
      <trkpt lat="48.70488" lon="7.31181">
        <ele>241.80000305176</ele>
        <time>2013-09-27T11:20:14.000Z</time>
      </trkpt>
      <trkpt lat="48.70512" lon="7.31192">
        <ele>242</ele>
        <time>2013-09-27T11:20:31.000Z</time>
      </trkpt>
      <trkpt lat="48.70514" lon="7.31192">
        <ele>241</ele>
        <time>2013-09-27T11:20:48.000Z</time>
      </trkpt>
      <trkpt lat="48.70507" lon="7.31186">
        <ele>241</ele>
        <time>2013-09-27T11:21:05.000Z</time>
      </trkpt>
      <trkpt lat="48.70501" lon="7.31179">
        <ele>241</ele>
        <time>2013-09-27T11:21:23.000Z</time>
      </trkpt>
      <trkpt lat="48.70498" lon="7.31171">
        <ele>241.19999694824</ele>
        <time>2013-09-27T11:21:40.000Z</time>
      </trkpt>
      <trkpt lat="48.70499" lon="7.31175">
        <ele>242</ele>
        <time>2013-09-27T11:22:00.000Z</time>
      </trkpt>
      <trkpt lat="48.70502" lon="7.31185">
        <ele>242</ele>
        <time>2013-09-27T11:22:15.000Z</time>
      </trkpt>
      <trkpt lat="48.70499" lon="7.31183">
        <ele>242</ele>
        <time>2013-09-27T11:22:30.000Z</time>
      </trkpt>
      <trkpt lat="48.70496" lon="7.3118">
        <ele>242</ele>
        <time>2013-09-27T11:22:34.000Z</time>
      </trkpt>
      <trkpt lat="48.70516" lon="7.3113">
        <ele>240</ele>
        <time>2013-09-27T11:22:48.000Z</time>
      </trkpt>
      <trkpt lat="48.70548" lon="7.31104">
        <ele>239</ele>
        <time>2013-09-27T11:22:55.000Z</time>
      </trkpt>
      <trkpt lat="48.70583" lon="7.31089">
        <ele>237.80000305176</ele>
        <time>2013-09-27T11:23:03.000Z</time>
      </trkpt>
      <trkpt lat="48.70605" lon="7.31069">
        <ele>236.80000305176</ele>
        <time>2013-09-27T11:23:08.000Z</time>
      </trkpt>
      <trkpt lat="48.70635" lon="7.31038">
        <ele>235.19999694824</ele>
        <time>2013-09-27T11:23:15.000Z</time>
      </trkpt>
      <trkpt lat="48.70653" lon="7.30993">
        <ele>232</ele>
        <time>2013-09-27T11:23:21.000Z</time>
      </trkpt>
      <trkpt lat="48.70692" lon="7.30948">
        <ele>228.19999694824</ele>
        <time>2013-09-27T11:23:28.000Z</time>
      </trkpt>
      <trkpt lat="48.70742" lon="7.30906">
        <ele>225</ele>
        <time>2013-09-27T11:23:35.000Z</time>
      </trkpt>
      <trkpt lat="48.7077" lon="7.30889">
        <ele>222.19999694824</ele>
        <time>2013-09-27T11:23:39.000Z</time>
      </trkpt>
      <trkpt lat="48.70804" lon="7.30879">
        <ele>220</ele>
        <time>2013-09-27T11:23:43.000Z</time>
      </trkpt>
      <trkpt lat="48.70841" lon="7.30866">
        <ele>217.80000305176</ele>
        <time>2013-09-27T11:23:48.000Z</time>
      </trkpt>
      <trkpt lat="48.70873" lon="7.30841">
        <ele>215.60000610352</ele>
        <time>2013-09-27T11:23:54.000Z</time>
      </trkpt>
      <trkpt lat="48.70912" lon="7.30822">
        <ele>214</ele>
        <time>2013-09-27T11:24:02.000Z</time>
      </trkpt>
      <trkpt lat="48.70942" lon="7.30806">
        <ele>214.19999694824</ele>
        <time>2013-09-27T11:24:09.000Z</time>
      </trkpt>
      <trkpt lat="48.70964" lon="7.30799">
        <ele>213.80000305176</ele>
        <time>2013-09-27T11:24:13.000Z</time>
      </trkpt>
      <trkpt lat="48.70976" lon="7.30797">
        <ele>213.60000610352</ele>
        <time>2013-09-27T11:24:15.000Z</time>
      </trkpt>
      <trkpt lat="48.71112" lon="7.30845">
        <ele>211.80000305176</ele>
        <time>2013-09-27T11:24:31.000Z</time>
      </trkpt>
      <trkpt lat="48.71193" lon="7.3088">
        <ele>210</ele>
        <time>2013-09-27T11:24:43.000Z</time>
      </trkpt>
      <trkpt lat="48.71221" lon="7.30901">
        <ele>209.80000305176</ele>
        <time>2013-09-27T11:24:48.000Z</time>
      </trkpt>
      <trkpt lat="48.71241" lon="7.30921">
        <ele>209.19999694824</ele>
        <time>2013-09-27T11:24:52.000Z</time>
      </trkpt>
      <trkpt lat="48.7126" lon="7.30949">
        <ele>209</ele>
        <time>2013-09-27T11:24:57.000Z</time>
      </trkpt>
      <trkpt lat="48.71278" lon="7.30985">
        <ele>208.80000305176</ele>
        <time>2013-09-27T11:25:02.000Z</time>
      </trkpt>
      <trkpt lat="48.7131" lon="7.3105">
        <ele>208</ele>
        <time>2013-09-27T11:25:11.000Z</time>
      </trkpt>
      <trkpt lat="48.71329" lon="7.31073">
        <ele>207.19999694824</ele>
        <time>2013-09-27T11:25:15.000Z</time>
      </trkpt>
      <trkpt lat="48.71364" lon="7.31094">
        <ele>206.80000305176</ele>
        <time>2013-09-27T11:25:20.000Z</time>
      </trkpt>
      <trkpt lat="48.7142" lon="7.31111">
        <ele>206.19999694824</ele>
        <time>2013-09-27T11:25:32.000Z</time>
      </trkpt>
      <trkpt lat="48.71444" lon="7.31124">
        <ele>206</ele>
        <time>2013-09-27T11:25:36.000Z</time>
      </trkpt>
      <trkpt lat="48.71461" lon="7.31137">
        <ele>205.60000610352</ele>
        <time>2013-09-27T11:25:39.000Z</time>
      </trkpt>
      <trkpt lat="48.71489" lon="7.31167">
        <ele>205</ele>
        <time>2013-09-27T11:25:45.000Z</time>
      </trkpt>
      <trkpt lat="48.71536" lon="7.31227">
        <ele>204.19999694824</ele>
        <time>2013-09-27T11:25:57.000Z</time>
      </trkpt>
      <trkpt lat="48.71575" lon="7.31285">
        <ele>204</ele>
        <time>2013-09-27T11:26:06.000Z</time>
      </trkpt>
      <trkpt lat="48.71646" lon="7.31345">
        <ele>204</ele>
        <time>2013-09-27T11:26:17.000Z</time>
      </trkpt>
      <trkpt lat="48.71693" lon="7.31386">
        <ele>203.60000610352</ele>
        <time>2013-09-27T11:26:27.000Z</time>
      </trkpt>
      <trkpt lat="48.71697" lon="7.31388">
        <ele>203.19999694824</ele>
        <time>2013-09-27T11:26:28.000Z</time>
      </trkpt>
      <trkpt lat="48.71708" lon="7.31395">
        <ele>203</ele>
        <time>2013-09-27T11:26:31.000Z</time>
      </trkpt>
      <trkpt lat="48.71742" lon="7.31404">
        <ele>202.60000610352</ele>
        <time>2013-09-27T11:26:38.000Z</time>
      </trkpt>
      <trkpt lat="48.71769" lon="7.31401">
        <ele>201.80000305176</ele>
        <time>2013-09-27T11:26:43.000Z</time>
      </trkpt>
      <trkpt lat="48.71801" lon="7.31375">
        <ele>200.80000305176</ele>
        <time>2013-09-27T11:26:50.000Z</time>
      </trkpt>
      <trkpt lat="48.71845" lon="7.31357">
        <ele>200.60000610352</ele>
        <time>2013-09-27T11:26:59.000Z</time>
      </trkpt>
      <trkpt lat="48.71854" lon="7.3135">
        <ele>200.60000610352</ele>
        <time>2013-09-27T11:27:01.000Z</time>
      </trkpt>
      <trkpt lat="48.71867" lon="7.31339">
        <ele>200</ele>
        <time>2013-09-27T11:27:04.000Z</time>
      </trkpt>
      <trkpt lat="48.71903" lon="7.31335">
        <ele>200</ele>
        <time>2013-09-27T11:27:11.000Z</time>
      </trkpt>
      <trkpt lat="48.71927" lon="7.31349">
        <ele>200</ele>
        <time>2013-09-27T11:27:15.000Z</time>
      </trkpt>
      <trkpt lat="48.71972" lon="7.31399">
        <ele>199.80000305176</ele>
        <time>2013-09-27T11:27:28.000Z</time>
      </trkpt>
      <trkpt lat="48.71997" lon="7.31428">
        <ele>197</ele>
        <time>2013-09-27T11:27:34.000Z</time>
      </trkpt>
      <trkpt lat="48.72013" lon="7.31449">
        <ele>194.80000305176</ele>
        <time>2013-09-27T11:27:38.000Z</time>
      </trkpt>
      <trkpt lat="48.72031" lon="7.31472">
        <ele>194</ele>
        <time>2013-09-27T11:27:51.000Z</time>
      </trkpt>
      <trkpt lat="48.72031" lon="7.31473">
        <ele>194</ele>
        <time>2013-09-27T11:27:55.000Z</time>
      </trkpt>
      <trkpt lat="48.72037" lon="7.31471">
        <ele>193.80000305176</ele>
        <time>2013-09-27T11:27:58.000Z</time>
      </trkpt>
      <trkpt lat="48.72062" lon="7.31475">
        <ele>192.60000610352</ele>
        <time>2013-09-27T11:28:04.000Z</time>
      </trkpt>
      <trkpt lat="48.72087" lon="7.31477">
        <ele>192.60000610352</ele>
        <time>2013-09-27T11:28:13.000Z</time>
      </trkpt>
      <trkpt lat="48.72094" lon="7.31483">
        <ele>192.80000305176</ele>
        <time>2013-09-27T11:28:17.000Z</time>
      </trkpt>
      <trkpt lat="48.72114" lon="7.31526">
        <ele>194</ele>
        <time>2013-09-27T11:28:29.000Z</time>
      </trkpt>
      <trkpt lat="48.72124" lon="7.31538">
        <ele>196</ele>
        <time>2013-09-27T11:28:40.000Z</time>
      </trkpt>
      <trkpt lat="48.72131" lon="7.3155">
        <ele>196</ele>
        <time>2013-09-27T11:28:59.000Z</time>
      </trkpt>
      <trkpt lat="48.72132" lon="7.3155">
        <ele>196.19999694824</ele>
        <time>2013-09-27T11:29:28.000Z</time>
      </trkpt>
      <trkpt lat="48.72144" lon="7.31553">
        <ele>196</ele>
        <time>2013-09-27T11:29:59.000Z</time>
      </trkpt>
      <trkpt lat="48.72152" lon="7.31553">
        <ele>196.19999694824</ele>
        <time>2013-09-27T11:30:29.000Z</time>
      </trkpt>
      <trkpt lat="48.72153" lon="7.31553">
        <ele>196.19999694824</ele>
        <time>2013-09-27T11:31:03.000Z</time>
      </trkpt>
      <trkpt lat="48.72152" lon="7.31552">
        <ele>196.60000610352</ele>
        <time>2013-09-27T11:31:31.000Z</time>
      </trkpt>
      <trkpt lat="48.72152" lon="7.31553">
        <ele>196.19999694824</ele>
        <time>2013-09-27T11:32:02.000Z</time>
      </trkpt>
      <trkpt lat="48.72148" lon="7.31553">
        <ele>196.60000610352</ele>
        <time>2013-09-27T11:32:31.000Z</time>
      </trkpt>
      <trkpt lat="48.72135" lon="7.31547">
        <ele>196.80000305176</ele>
        <time>2013-09-27T11:32:52.000Z</time>
      </trkpt>
      <trkpt lat="48.72137" lon="7.31537">
        <ele>196.60000610352</ele>
        <time>2013-09-27T11:33:09.000Z</time>
      </trkpt>
      <trkpt lat="48.72124" lon="7.31492">
        <ele>196.80000305176</ele>
        <time>2013-09-27T11:33:22.000Z</time>
      </trkpt>
      <trkpt lat="48.72117" lon="7.31472">
        <ele>196.80000305176</ele>
        <time>2013-09-27T11:33:26.000Z</time>
      </trkpt>
      <trkpt lat="48.7209" lon="7.31411">
        <ele>196.80000305176</ele>
        <time>2013-09-27T11:33:37.000Z</time>
      </trkpt>
      <trkpt lat="48.7206" lon="7.31318">
        <ele>197</ele>
        <time>2013-09-27T11:33:50.000Z</time>
      </trkpt>
      <trkpt lat="48.72056" lon="7.31211">
        <ele>197</ele>
        <time>2013-09-27T11:34:01.000Z</time>
      </trkpt>
      <trkpt lat="48.72062" lon="7.31173">
        <ele>197</ele>
        <time>2013-09-27T11:34:05.000Z</time>
      </trkpt>
      <trkpt lat="48.7207" lon="7.31123">
        <ele>197</ele>
        <time>2013-09-27T11:34:10.000Z</time>
      </trkpt>
      <trkpt lat="48.72072" lon="7.31092">
        <ele>197</ele>
        <time>2013-09-27T11:34:13.000Z</time>
      </trkpt>
      <trkpt lat="48.72077" lon="7.31017">
        <ele>197</ele>
        <time>2013-09-27T11:34:20.000Z</time>
      </trkpt>
      <trkpt lat="48.72075" lon="7.30956">
        <ele>197</ele>
        <time>2013-09-27T11:34:26.000Z</time>
      </trkpt>
      <trkpt lat="48.72069" lon="7.30844">
        <ele>197.19999694824</ele>
        <time>2013-09-27T11:34:37.000Z</time>
      </trkpt>
      <trkpt lat="48.72069" lon="7.30822">
        <ele>197.19999694824</ele>
        <time>2013-09-27T11:34:39.000Z</time>
      </trkpt>
      <trkpt lat="48.72083" lon="7.30739">
        <ele>197</ele>
        <time>2013-09-27T11:34:47.000Z</time>
      </trkpt>
      <trkpt lat="48.72118" lon="7.30665">
        <ele>197</ele>
        <time>2013-09-27T11:34:56.000Z</time>
      </trkpt>
      <trkpt lat="48.72137" lon="7.30639">
        <ele>197</ele>
        <time>2013-09-27T11:35:00.000Z</time>
      </trkpt>
      <trkpt lat="48.72164" lon="7.30619">
        <ele>197</ele>
        <time>2013-09-27T11:35:05.000Z</time>
      </trkpt>
      <trkpt lat="48.72198" lon="7.30601">
        <ele>197</ele>
        <time>2013-09-27T11:35:11.000Z</time>
      </trkpt>
      <trkpt lat="48.72215" lon="7.30595">
        <ele>197</ele>
        <time>2013-09-27T11:35:14.000Z</time>
      </trkpt>
      <trkpt lat="48.72224" lon="7.30589">
        <ele>197</ele>
        <time>2013-09-27T11:35:16.000Z</time>
      </trkpt>
      <trkpt lat="48.72285" lon="7.30568">
        <ele>197</ele>
        <time>2013-09-27T11:35:27.000Z</time>
      </trkpt>
      <trkpt lat="48.72297" lon="7.30562">
        <ele>197.19999694824</ele>
        <time>2013-09-27T11:35:29.000Z</time>
      </trkpt>
      <trkpt lat="48.72308" lon="7.30555">
        <ele>197.60000610352</ele>
        <time>2013-09-27T11:35:31.000Z</time>
      </trkpt>
      <trkpt lat="48.72348" lon="7.30519">
        <ele>197.80000305176</ele>
        <time>2013-09-27T11:35:39.000Z</time>
      </trkpt>
      <trkpt lat="48.72371" lon="7.30496">
        <ele>197.80000305176</ele>
        <time>2013-09-27T11:35:44.000Z</time>
      </trkpt>
      <trkpt lat="48.72395" lon="7.3047">
        <ele>198</ele>
        <time>2013-09-27T11:35:49.000Z</time>
      </trkpt>
      <trkpt lat="48.7242" lon="7.30432">
        <ele>197.80000305176</ele>
        <time>2013-09-27T11:35:55.000Z</time>
      </trkpt>
      <trkpt lat="48.72446" lon="7.30387">
        <ele>198</ele>
        <time>2013-09-27T11:36:02.000Z</time>
      </trkpt>
      <trkpt lat="48.72503" lon="7.30299">
        <ele>198.19999694824</ele>
        <time>2013-09-27T11:36:16.000Z</time>
      </trkpt>
      <trkpt lat="48.7252" lon="7.3027">
        <ele>199</ele>
        <time>2013-09-27T11:36:21.000Z</time>
      </trkpt>
      <trkpt lat="48.72531" lon="7.30237">
        <ele>199.80000305176</ele>
        <time>2013-09-27T11:36:26.000Z</time>
      </trkpt>
      <trkpt lat="48.72526" lon="7.30206">
        <ele>200</ele>
        <time>2013-09-27T11:36:29.000Z</time>
      </trkpt>
      <trkpt lat="48.72547" lon="7.30082">
        <ele>200.19999694824</ele>
        <time>2013-09-27T11:36:45.000Z</time>
      </trkpt>
      <trkpt lat="48.72565" lon="7.30008">
        <ele>200.19999694824</ele>
        <time>2013-09-27T11:36:55.000Z</time>
      </trkpt>
      <trkpt lat="48.72627" lon="7.29901">
        <ele>200.60000610352</ele>
        <time>2013-09-27T11:37:11.000Z</time>
      </trkpt>
      <trkpt lat="48.72691" lon="7.29869">
        <ele>200.80000305176</ele>
        <time>2013-09-27T11:37:23.000Z</time>
      </trkpt>
      <trkpt lat="48.72743" lon="7.29881">
        <ele>201</ele>
        <time>2013-09-27T11:37:34.000Z</time>
      </trkpt>
      <trkpt lat="48.72758" lon="7.29887">
        <ele>201</ele>
        <time>2013-09-27T11:37:38.000Z</time>
      </trkpt>
      <trkpt lat="48.72771" lon="7.29888">
        <ele>201.19999694824</ele>
        <time>2013-09-27T11:37:41.000Z</time>
      </trkpt>
      <trkpt lat="48.72789" lon="7.29881">
        <ele>201.19999694824</ele>
        <time>2013-09-27T11:37:45.000Z</time>
      </trkpt>
      <trkpt lat="48.72829" lon="7.29855">
        <ele>201.19999694824</ele>
        <time>2013-09-27T11:37:52.000Z</time>
      </trkpt>
      <trkpt lat="48.72843" lon="7.29829">
        <ele>201.60000610352</ele>
        <time>2013-09-27T11:37:55.000Z</time>
      </trkpt>
      <trkpt lat="48.72876" lon="7.29761">
        <ele>201.19999694824</ele>
        <time>2013-09-27T11:38:02.000Z</time>
      </trkpt>
      <trkpt lat="48.72933" lon="7.29667">
        <ele>201.60000610352</ele>
        <time>2013-09-27T11:38:15.000Z</time>
      </trkpt>
      <trkpt lat="48.72948" lon="7.2961">
        <ele>202.80000305176</ele>
        <time>2013-09-27T11:38:25.000Z</time>
      </trkpt>
      <trkpt lat="48.72964" lon="7.29532">
        <ele>203.19999694824</ele>
        <time>2013-09-27T11:38:37.000Z</time>
      </trkpt>
      <trkpt lat="48.72976" lon="7.29475">
        <ele>203.60000610352</ele>
        <time>2013-09-27T11:38:44.000Z</time>
      </trkpt>
      <trkpt lat="48.72982" lon="7.29429">
        <ele>203.60000610352</ele>
        <time>2013-09-27T11:38:49.000Z</time>
      </trkpt>
      <trkpt lat="48.7299" lon="7.29393">
        <ele>203.80000305176</ele>
        <time>2013-09-27T11:38:53.000Z</time>
      </trkpt>
      <trkpt lat="48.73004" lon="7.29332">
        <ele>204</ele>
        <time>2013-09-27T11:39:00.000Z</time>
      </trkpt>
      <trkpt lat="48.73016" lon="7.293">
        <ele>204</ele>
        <time>2013-09-27T11:39:04.000Z</time>
      </trkpt>
      <trkpt lat="48.73023" lon="7.29274">
        <ele>204</ele>
        <time>2013-09-27T11:39:07.000Z</time>
      </trkpt>
      <trkpt lat="48.73031" lon="7.29247">
        <ele>204</ele>
        <time>2013-09-27T11:39:10.000Z</time>
      </trkpt>
      <trkpt lat="48.73044" lon="7.29213">
        <ele>203.60000610352</ele>
        <time>2013-09-27T11:39:14.000Z</time>
      </trkpt>
      <trkpt lat="48.73058" lon="7.29139">
        <ele>204.60000610352</ele>
        <time>2013-09-27T11:39:22.000Z</time>
      </trkpt>
      <trkpt lat="48.73059" lon="7.2912">
        <ele>204.19999694824</ele>
        <time>2013-09-27T11:39:24.000Z</time>
      </trkpt>
      <trkpt lat="48.73071" lon="7.29053">
        <ele>204</ele>
        <time>2013-09-27T11:39:31.000Z</time>
      </trkpt>
      <trkpt lat="48.73076" lon="7.29015">
        <ele>204</ele>
        <time>2013-09-27T11:39:35.000Z</time>
      </trkpt>
      <trkpt lat="48.73085" lon="7.28978">
        <ele>204</ele>
        <time>2013-09-27T11:39:39.000Z</time>
      </trkpt>
      <trkpt lat="48.73091" lon="7.28955">
        <ele>204</ele>
        <time>2013-09-27T11:39:41.000Z</time>
      </trkpt>
      <trkpt lat="48.73122" lon="7.28841">
        <ele>204</ele>
        <time>2013-09-27T11:39:52.000Z</time>
      </trkpt>
      <trkpt lat="48.73132" lon="7.2877">
        <ele>204.60000610352</ele>
        <time>2013-09-27T11:39:59.000Z</time>
      </trkpt>
      <trkpt lat="48.7314" lon="7.28712">
        <ele>204.60000610352</ele>
        <time>2013-09-27T11:40:05.000Z</time>
      </trkpt>
      <trkpt lat="48.73145" lon="7.28694">
        <ele>204.60000610352</ele>
        <time>2013-09-27T11:40:07.000Z</time>
      </trkpt>
      <trkpt lat="48.73153" lon="7.28655">
        <ele>204.80000305176</ele>
        <time>2013-09-27T11:40:11.000Z</time>
      </trkpt>
      <trkpt lat="48.73162" lon="7.28635">
        <ele>204.60000610352</ele>
        <time>2013-09-27T11:40:13.000Z</time>
      </trkpt>
      <trkpt lat="48.73175" lon="7.28581">
        <ele>204</ele>
        <time>2013-09-27T11:40:19.000Z</time>
      </trkpt>
      <trkpt lat="48.73191" lon="7.28543">
        <ele>204</ele>
        <time>2013-09-27T11:40:23.000Z</time>
      </trkpt>
      <trkpt lat="48.73249" lon="7.28392">
        <ele>203.80000305176</ele>
        <time>2013-09-27T11:40:39.000Z</time>
      </trkpt>
      <trkpt lat="48.73267" lon="7.28347">
        <ele>203.19999694824</ele>
        <time>2013-09-27T11:40:44.000Z</time>
      </trkpt>
      <trkpt lat="48.73285" lon="7.28306">
        <ele>203.80000305176</ele>
        <time>2013-09-27T11:40:49.000Z</time>
      </trkpt>
      <trkpt lat="48.73327" lon="7.28225">
        <ele>205</ele>
        <time>2013-09-27T11:40:59.000Z</time>
      </trkpt>
      <trkpt lat="48.73339" lon="7.28194">
        <ele>205.80000305176</ele>
        <time>2013-09-27T11:41:03.000Z</time>
      </trkpt>
      <trkpt lat="48.73351" lon="7.28158">
        <ele>206.19999694824</ele>
        <time>2013-09-27T11:41:07.000Z</time>
      </trkpt>
      <trkpt lat="48.73395" lon="7.27992">
        <ele>206.80000305176</ele>
        <time>2013-09-27T11:41:24.000Z</time>
      </trkpt>
      <trkpt lat="48.73432" lon="7.27873">
        <ele>206.60000610352</ele>
        <time>2013-09-27T11:41:37.000Z</time>
      </trkpt>
      <trkpt lat="48.73447" lon="7.27829">
        <ele>206.60000610352</ele>
        <time>2013-09-27T11:41:42.000Z</time>
      </trkpt>
      <trkpt lat="48.73451" lon="7.27812">
        <ele>206.60000610352</ele>
        <time>2013-09-27T11:41:44.000Z</time>
      </trkpt>
      <trkpt lat="48.73495" lon="7.27698">
        <ele>206.19999694824</ele>
        <time>2013-09-27T11:41:58.000Z</time>
      </trkpt>
      <trkpt lat="48.73498" lon="7.27689">
        <ele>206.19999694824</ele>
        <time>2013-09-27T11:41:59.000Z</time>
      </trkpt>
      <trkpt lat="48.73514" lon="7.27659">
        <ele>206.60000610352</ele>
        <time>2013-09-27T11:42:03.000Z</time>
      </trkpt>
      <trkpt lat="48.73562" lon="7.27566">
        <ele>206.60000610352</ele>
        <time>2013-09-27T11:42:15.000Z</time>
      </trkpt>
      <trkpt lat="48.73614" lon="7.27495">
        <ele>206.80000305176</ele>
        <time>2013-09-27T11:42:25.000Z</time>
      </trkpt>
      <trkpt lat="48.73649" lon="7.27457">
        <ele>206.80000305176</ele>
        <time>2013-09-27T11:42:31.000Z</time>
      </trkpt>
      <trkpt lat="48.73696" lon="7.27392">
        <ele>207</ele>
        <time>2013-09-27T11:42:40.000Z</time>
      </trkpt>
      <trkpt lat="48.73722" lon="7.27356">
        <ele>207</ele>
        <time>2013-09-27T11:42:45.000Z</time>
      </trkpt>
      <trkpt lat="48.73733" lon="7.27346">
        <ele>207.19999694824</ele>
        <time>2013-09-27T11:42:47.000Z</time>
      </trkpt>
      <trkpt lat="48.73758" lon="7.27328">
        <ele>208.60000610352</ele>
        <time>2013-09-27T11:42:52.000Z</time>
      </trkpt>
      <trkpt lat="48.73797" lon="7.27228">
        <ele>209</ele>
        <time>2013-09-27T11:43:05.000Z</time>
      </trkpt>
      <trkpt lat="48.73804" lon="7.27204">
        <ele>209</ele>
        <time>2013-09-27T11:43:08.000Z</time>
      </trkpt>
      <trkpt lat="48.7381" lon="7.27188">
        <ele>209</ele>
        <time>2013-09-27T11:43:10.000Z</time>
      </trkpt>
      <trkpt lat="48.73813" lon="7.27162">
        <ele>209</ele>
        <time>2013-09-27T11:43:13.000Z</time>
      </trkpt>
      <trkpt lat="48.73814" lon="7.27143">
        <ele>209</ele>
        <time>2013-09-27T11:43:15.000Z</time>
      </trkpt>
      <trkpt lat="48.73817" lon="7.27113">
        <ele>209</ele>
        <time>2013-09-27T11:43:18.000Z</time>
      </trkpt>
      <trkpt lat="48.73817" lon="7.2705">
        <ele>208.60000610352</ele>
        <time>2013-09-27T11:43:24.000Z</time>
      </trkpt>
      <trkpt lat="48.73803" lon="7.26895">
        <ele>208.60000610352</ele>
        <time>2013-09-27T11:43:38.000Z</time>
      </trkpt>
      <trkpt lat="48.73803" lon="7.26876">
        <ele>208.80000305176</ele>
        <time>2013-09-27T11:43:40.000Z</time>
      </trkpt>
      <trkpt lat="48.73804" lon="7.26846">
        <ele>208.80000305176</ele>
        <time>2013-09-27T11:43:43.000Z</time>
      </trkpt>
      <trkpt lat="48.73806" lon="7.26817">
        <ele>208.60000610352</ele>
        <time>2013-09-27T11:43:46.000Z</time>
      </trkpt>
      <trkpt lat="48.73807" lon="7.26779">
        <ele>208.60000610352</ele>
        <time>2013-09-27T11:43:50.000Z</time>
      </trkpt>
      <trkpt lat="48.73809" lon="7.2673">
        <ele>208.80000305176</ele>
        <time>2013-09-27T11:43:55.000Z</time>
      </trkpt>
      <trkpt lat="48.73816" lon="7.2661">
        <ele>209</ele>
        <time>2013-09-27T11:44:08.000Z</time>
      </trkpt>
      <trkpt lat="48.73813" lon="7.26496">
        <ele>209.60000610352</ele>
        <time>2013-09-27T11:44:21.000Z</time>
      </trkpt>
      <trkpt lat="48.7381" lon="7.26474">
        <ele>209.19999694824</ele>
        <time>2013-09-27T11:44:24.000Z</time>
      </trkpt>
      <trkpt lat="48.73797" lon="7.26433">
        <ele>208.80000305176</ele>
        <time>2013-09-27T11:44:30.000Z</time>
      </trkpt>
      <trkpt lat="48.73786" lon="7.26406">
        <ele>208.60000610352</ele>
        <time>2013-09-27T11:44:34.000Z</time>
      </trkpt>
      <trkpt lat="48.73781" lon="7.26393">
        <ele>208.80000305176</ele>
        <time>2013-09-27T11:44:36.000Z</time>
      </trkpt>
      <trkpt lat="48.73757" lon="7.26331">
        <ele>209</ele>
        <time>2013-09-27T11:44:46.000Z</time>
      </trkpt>
      <trkpt lat="48.73725" lon="7.26266">
        <ele>209</ele>
        <time>2013-09-27T11:44:56.000Z</time>
      </trkpt>
      <trkpt lat="48.73704" lon="7.26222">
        <ele>208.80000305176</ele>
        <time>2013-09-27T11:45:03.000Z</time>
      </trkpt>
      <trkpt lat="48.73665" lon="7.26134">
        <ele>209</ele>
        <time>2013-09-27T11:45:14.000Z</time>
      </trkpt>
      <trkpt lat="48.73626" lon="7.2605">
        <ele>208.80000305176</ele>
        <time>2013-09-27T11:45:25.000Z</time>
      </trkpt>
      <trkpt lat="48.73593" lon="7.25986">
        <ele>209.19999694824</ele>
        <time>2013-09-27T11:45:34.000Z</time>
      </trkpt>
      <trkpt lat="48.73584" lon="7.25904">
        <ele>211</ele>
        <time>2013-09-27T11:45:47.000Z</time>
      </trkpt>
      <trkpt lat="48.73584" lon="7.2588">
        <ele>211.60000610352</ele>
        <time>2013-09-27T11:45:53.000Z</time>
      </trkpt>
      <trkpt lat="48.73574" lon="7.2576">
        <ele>211</ele>
        <time>2013-09-27T11:46:10.000Z</time>
      </trkpt>
      <trkpt lat="48.73573" lon="7.25739">
        <ele>211</ele>
        <time>2013-09-27T11:46:13.000Z</time>
      </trkpt>
      <trkpt lat="48.73566" lon="7.25657">
        <ele>211</ele>
        <time>2013-09-27T11:46:23.000Z</time>
      </trkpt>
      <trkpt lat="48.73556" lon="7.25552">
        <ele>211.19999694824</ele>
        <time>2013-09-27T11:46:35.000Z</time>
      </trkpt>
      <trkpt lat="48.73542" lon="7.25402">
        <ele>211.19999694824</ele>
        <time>2013-09-27T11:46:51.000Z</time>
      </trkpt>
      <trkpt lat="48.73531" lon="7.25283">
        <ele>211.19999694824</ele>
        <time>2013-09-27T11:47:04.000Z</time>
      </trkpt>
      <trkpt lat="48.73522" lon="7.25198">
        <ele>211.19999694824</ele>
        <time>2013-09-27T11:47:14.000Z</time>
      </trkpt>
      <trkpt lat="48.73503" lon="7.25139">
        <ele>213.60000610352</ele>
        <time>2013-09-27T11:47:24.000Z</time>
      </trkpt>
      <trkpt lat="48.735" lon="7.2513">
        <ele>214</ele>
        <time>2013-09-27T11:47:27.000Z</time>
      </trkpt>
      <trkpt lat="48.73503" lon="7.25118">
        <ele>215</ele>
        <time>2013-09-27T11:47:31.000Z</time>
      </trkpt>
      <trkpt lat="48.73545" lon="7.25069">
        <ele>214.60000610352</ele>
        <time>2013-09-27T11:47:46.000Z</time>
      </trkpt>
      <trkpt lat="48.7356" lon="7.25053">
        <ele>214</ele>
        <time>2013-09-27T11:47:58.000Z</time>
      </trkpt>
      <trkpt lat="48.73558" lon="7.25051">
        <ele>214.60000610352</ele>
        <time>2013-09-27T11:48:19.000Z</time>
      </trkpt>
      <trkpt lat="48.73557" lon="7.25051">
        <ele>214.19999694824</ele>
        <time>2013-09-27T11:48:33.000Z</time>
      </trkpt>
      <trkpt lat="48.73555" lon="7.25052">
        <ele>214.80000305176</ele>
        <time>2013-09-27T11:48:58.000Z</time>
      </trkpt>
      <trkpt lat="48.73554" lon="7.25053">
        <ele>213.19999694824</ele>
        <time>2013-09-27T11:49:25.000Z</time>
      </trkpt>
      <trkpt lat="48.7356" lon="7.25059">
        <ele>214</ele>
        <time>2013-09-27T11:49:56.000Z</time>
      </trkpt>
      <trkpt lat="48.73559" lon="7.25059">
        <ele>213.80000305176</ele>
        <time>2013-09-27T11:50:25.000Z</time>
      </trkpt>
      <trkpt lat="48.73553" lon="7.25058">
        <ele>213.80000305176</ele>
        <time>2013-09-27T11:50:43.000Z</time>
      </trkpt>
      <trkpt lat="48.73548" lon="7.25057">
        <ele>214</ele>
        <time>2013-09-27T11:51:02.000Z</time>
      </trkpt>
      <trkpt lat="48.73542" lon="7.25056">
        <ele>214</ele>
        <time>2013-09-27T11:51:20.000Z</time>
      </trkpt>
      <trkpt lat="48.73539" lon="7.25055">
        <ele>214</ele>
        <time>2013-09-27T11:51:37.000Z</time>
      </trkpt>
      <trkpt lat="48.73539" lon="7.25053">
        <ele>214</ele>
        <time>2013-09-27T11:51:54.000Z</time>
      </trkpt>
      <trkpt lat="48.73546" lon="7.25054">
        <ele>214</ele>
        <time>2013-09-27T11:52:08.000Z</time>
      </trkpt>
      <trkpt lat="48.73546" lon="7.25055">
        <ele>214.19999694824</ele>
        <time>2013-09-27T11:52:27.000Z</time>
      </trkpt>
      <trkpt lat="48.73551" lon="7.25055">
        <ele>214.19999694824</ele>
        <time>2013-09-27T11:52:42.000Z</time>
      </trkpt>
      <trkpt lat="48.73551" lon="7.25056">
        <ele>214.60000610352</ele>
        <time>2013-09-27T11:52:58.000Z</time>
      </trkpt>
      <trkpt lat="48.7355" lon="7.25054">
        <ele>214.19999694824</ele>
        <time>2013-09-27T11:53:14.000Z</time>
      </trkpt>
      <trkpt lat="48.7355" lon="7.25054">
        <ele>214.19999694824</ele>
        <time>2013-09-27T11:53:28.000Z</time>
      </trkpt>
      <trkpt lat="48.73554" lon="7.25055">
        <ele>214.19999694824</ele>
        <time>2013-09-27T11:53:41.000Z</time>
      </trkpt>
      <trkpt lat="48.73552" lon="7.25054">
        <ele>214.19999694824</ele>
        <time>2013-09-27T11:53:58.000Z</time>
      </trkpt>
      <trkpt lat="48.73555" lon="7.25051">
        <ele>214.19999694824</ele>
        <time>2013-09-27T11:54:15.000Z</time>
      </trkpt>
      <trkpt lat="48.73555" lon="7.25052">
        <ele>214.19999694824</ele>
        <time>2013-09-27T11:54:31.000Z</time>
      </trkpt>
      <trkpt lat="48.73557" lon="7.25054">
        <ele>214.19999694824</ele>
        <time>2013-09-27T11:54:49.000Z</time>
      </trkpt>
      <trkpt lat="48.7355" lon="7.25055">
        <ele>214.19999694824</ele>
        <time>2013-09-27T11:55:06.000Z</time>
      </trkpt>
      <trkpt lat="48.73561" lon="7.25059">
        <ele>214.19999694824</ele>
        <time>2013-09-27T11:55:22.000Z</time>
      </trkpt>
      <trkpt lat="48.7357" lon="7.25063">
        <ele>214.60000610352</ele>
        <time>2013-09-27T11:55:40.000Z</time>
      </trkpt>
      <trkpt lat="48.73569" lon="7.25061">
        <ele>214.60000610352</ele>
        <time>2013-09-27T11:55:56.000Z</time>
      </trkpt>
      <trkpt lat="48.73566" lon="7.25058">
        <ele>214.19999694824</ele>
        <time>2013-09-27T11:56:10.000Z</time>
      </trkpt>
      <trkpt lat="48.73563" lon="7.25056">
        <ele>214.19999694824</ele>
        <time>2013-09-27T11:56:27.000Z</time>
      </trkpt>
      <trkpt lat="48.73569" lon="7.25055">
        <ele>214.19999694824</ele>
        <time>2013-09-27T11:56:42.000Z</time>
      </trkpt>
      <trkpt lat="48.73569" lon="7.25056">
        <ele>214.60000610352</ele>
        <time>2013-09-27T11:56:58.000Z</time>
      </trkpt>
      <trkpt lat="48.7357" lon="7.25056">
        <ele>214.60000610352</ele>
        <time>2013-09-27T11:57:18.000Z</time>
      </trkpt>
      <trkpt lat="48.7357" lon="7.25057">
        <ele>214.60000610352</ele>
        <time>2013-09-27T11:57:34.000Z</time>
      </trkpt>
      <trkpt lat="48.7357" lon="7.25054">
        <ele>214.60000610352</ele>
        <time>2013-09-27T11:57:54.000Z</time>
      </trkpt>
      <trkpt lat="48.73567" lon="7.25051">
        <ele>214.80000305176</ele>
        <time>2013-09-27T11:58:11.000Z</time>
      </trkpt>
      <trkpt lat="48.73562" lon="7.25052">
        <ele>214.80000305176</ele>
        <time>2013-09-27T11:58:31.000Z</time>
      </trkpt>
      <trkpt lat="48.73558" lon="7.25052">
        <ele>214.80000305176</ele>
        <time>2013-09-27T11:58:49.000Z</time>
      </trkpt>
      <trkpt lat="48.7356" lon="7.25053">
        <ele>214.80000305176</ele>
        <time>2013-09-27T11:59:08.000Z</time>
      </trkpt>
      <trkpt lat="48.73562" lon="7.25053">
        <ele>214.80000305176</ele>
        <time>2013-09-27T11:59:28.000Z</time>
      </trkpt>
      <trkpt lat="48.7356" lon="7.25055">
        <ele>214.80000305176</ele>
        <time>2013-09-27T11:59:45.000Z</time>
      </trkpt>
      <trkpt lat="48.73561" lon="7.25057">
        <ele>215</ele>
        <time>2013-09-27T12:00:01.000Z</time>
      </trkpt>
      <trkpt lat="48.73562" lon="7.25053">
        <ele>215</ele>
        <time>2013-09-27T12:00:21.000Z</time>
      </trkpt>
      <trkpt lat="48.73562" lon="7.25054">
        <ele>215</ele>
        <time>2013-09-27T12:00:39.000Z</time>
      </trkpt>
      <trkpt lat="48.73562" lon="7.25054">
        <ele>215</ele>
        <time>2013-09-27T12:00:59.000Z</time>
      </trkpt>
      <trkpt lat="48.73562" lon="7.25054">
        <ele>215</ele>
        <time>2013-09-27T12:01:30.000Z</time>
      </trkpt>
      <trkpt lat="48.73563" lon="7.25055">
        <ele>215</ele>
        <time>2013-09-27T12:02:01.000Z</time>
      </trkpt>
      <trkpt lat="48.73562" lon="7.25055">
        <ele>215</ele>
        <time>2013-09-27T12:02:30.000Z</time>
      </trkpt>
      <trkpt lat="48.73561" lon="7.25056">
        <ele>215</ele>
        <time>2013-09-27T12:03:03.000Z</time>
      </trkpt>
      <trkpt lat="48.73558" lon="7.25053">
        <ele>215.60000610352</ele>
        <time>2013-09-27T12:03:36.000Z</time>
      </trkpt>
      <trkpt lat="48.73558" lon="7.25054">
        <ele>215.19999694824</ele>
        <time>2013-09-27T12:04:09.000Z</time>
      </trkpt>
      <trkpt lat="48.73557" lon="7.25054">
        <ele>215.60000610352</ele>
        <time>2013-09-27T12:04:45.000Z</time>
      </trkpt>
      <trkpt lat="48.73554" lon="7.25057">
        <ele>215.60000610352</ele>
        <time>2013-09-27T12:05:19.000Z</time>
      </trkpt>
      <trkpt lat="48.73554" lon="7.2506">
        <ele>215.80000305176</ele>
        <time>2013-09-27T12:05:54.000Z</time>
      </trkpt>
      <trkpt lat="48.73554" lon="7.2506">
        <ele>215.80000305176</ele>
        <time>2013-09-27T12:06:33.000Z</time>
      </trkpt>
      <trkpt lat="48.73558" lon="7.25061">
        <ele>216</ele>
        <time>2013-09-27T12:07:06.000Z</time>
      </trkpt>
      <trkpt lat="48.7356" lon="7.25061">
        <ele>216.19999694824</ele>
        <time>2013-09-27T12:07:36.000Z</time>
      </trkpt>
      <trkpt lat="48.73561" lon="7.25062">
        <ele>216</ele>
        <time>2013-09-27T12:08:10.000Z</time>
      </trkpt>
      <trkpt lat="48.73562" lon="7.25061">
        <ele>216</ele>
        <time>2013-09-27T12:08:42.000Z</time>
      </trkpt>
      <trkpt lat="48.73558" lon="7.25057">
        <ele>216.19999694824</ele>
        <time>2013-09-27T12:09:14.000Z</time>
      </trkpt>
      <trkpt lat="48.73558" lon="7.25058">
        <ele>216</ele>
        <time>2013-09-27T12:09:45.000Z</time>
      </trkpt>
      <trkpt lat="48.73558" lon="7.25058">
        <ele>216.80000305176</ele>
        <time>2013-09-27T12:10:13.000Z</time>
      </trkpt>
      <trkpt lat="48.73559" lon="7.25057">
        <ele>217.19999694824</ele>
        <time>2013-09-27T12:10:31.000Z</time>
      </trkpt>
      <trkpt lat="48.73559" lon="7.25053">
        <ele>217.60000610352</ele>
        <time>2013-09-27T12:10:50.000Z</time>
      </trkpt>
      <trkpt lat="48.73559" lon="7.2505">
        <ele>218</ele>
        <time>2013-09-27T12:11:20.000Z</time>
      </trkpt>
      <trkpt lat="48.73558" lon="7.25049">
        <ele>217.19999694824</ele>
        <time>2013-09-27T12:11:52.000Z</time>
      </trkpt>
      <trkpt lat="48.7356" lon="7.25048">
        <ele>217.19999694824</ele>
        <time>2013-09-27T12:12:16.000Z</time>
      </trkpt>
      <trkpt lat="48.73565" lon="7.2505">
        <ele>217.19999694824</ele>
        <time>2013-09-27T12:12:46.000Z</time>
      </trkpt>
      <trkpt lat="48.73567" lon="7.25049">
        <ele>217.19999694824</ele>
        <time>2013-09-27T12:13:07.000Z</time>
      </trkpt>
      <trkpt lat="48.7357" lon="7.25049">
        <ele>217.19999694824</ele>
        <time>2013-09-27T12:13:11.000Z</time>
      </trkpt>
      <trkpt lat="48.73599" lon="7.25084">
        <ele>217</ele>
        <time>2013-09-27T12:13:22.000Z</time>
      </trkpt>
      <trkpt lat="48.73646" lon="7.25149">
        <ele>217</ele>
        <time>2013-09-27T12:13:35.000Z</time>
      </trkpt>
      <trkpt lat="48.73662" lon="7.25177">
        <ele>216</ele>
        <time>2013-09-27T12:13:40.000Z</time>
      </trkpt>
      <trkpt lat="48.73686" lon="7.25229">
        <ele>215</ele>
        <time>2013-09-27T12:13:48.000Z</time>
      </trkpt>
      <trkpt lat="48.737" lon="7.25296">
        <ele>215.80000305176</ele>
        <time>2013-09-27T12:13:57.000Z</time>
      </trkpt>
      <trkpt lat="48.73695" lon="7.25329">
        <ele>216.19999694824</ele>
        <time>2013-09-27T12:14:01.000Z</time>
      </trkpt>
      <trkpt lat="48.73677" lon="7.25399">
        <ele>215</ele>
        <time>2013-09-27T12:14:13.000Z</time>
      </trkpt>
      <trkpt lat="48.73662" lon="7.25465">
        <ele>215</ele>
        <time>2013-09-27T12:14:25.000Z</time>
      </trkpt>
      <trkpt lat="48.73638" lon="7.2553">
        <ele>214.80000305176</ele>
        <time>2013-09-27T12:14:37.000Z</time>
      </trkpt>
      <trkpt lat="48.73615" lon="7.2561">
        <ele>214.60000610352</ele>
        <time>2013-09-27T12:14:51.000Z</time>
      </trkpt>
      <trkpt lat="48.73607" lon="7.25668">
        <ele>214</ele>
        <time>2013-09-27T12:15:01.000Z</time>
      </trkpt>
      <trkpt lat="48.73605" lon="7.25679">
        <ele>214</ele>
        <time>2013-09-27T12:15:03.000Z</time>
      </trkpt>
      <trkpt lat="48.73603" lon="7.25702">
        <ele>214</ele>
        <time>2013-09-27T12:15:07.000Z</time>
      </trkpt>
      <trkpt lat="48.736" lon="7.25782">
        <ele>213</ele>
        <time>2013-09-27T12:15:22.000Z</time>
      </trkpt>
      <trkpt lat="48.73606" lon="7.25815">
        <ele>213</ele>
        <time>2013-09-27T12:15:27.000Z</time>
      </trkpt>
      <trkpt lat="48.73614" lon="7.25845">
        <ele>213</ele>
        <time>2013-09-27T12:15:31.000Z</time>
      </trkpt>
      <trkpt lat="48.73639" lon="7.25914">
        <ele>213.19999694824</ele>
        <time>2013-09-27T12:15:44.000Z</time>
      </trkpt>
      <trkpt lat="48.73665" lon="7.25957">
        <ele>213.19999694824</ele>
        <time>2013-09-27T12:15:56.000Z</time>
      </trkpt>
      <trkpt lat="48.7369" lon="7.2599">
        <ele>212.80000305176</ele>
        <time>2013-09-27T12:16:05.000Z</time>
      </trkpt>
      <trkpt lat="48.73736" lon="7.26055">
        <ele>212</ele>
        <time>2013-09-27T12:16:19.000Z</time>
      </trkpt>
      <trkpt lat="48.73751" lon="7.26076">
        <ele>212</ele>
        <time>2013-09-27T12:16:24.000Z</time>
      </trkpt>
      <trkpt lat="48.73802" lon="7.26131">
        <ele>213</ele>
        <time>2013-09-27T12:16:39.000Z</time>
      </trkpt>
      <trkpt lat="48.73831" lon="7.26168">
        <ele>214</ele>
        <time>2013-09-27T12:16:52.000Z</time>
      </trkpt>
      <trkpt lat="48.73852" lon="7.26218">
        <ele>214.19999694824</ele>
        <time>2013-09-27T12:17:04.000Z</time>
      </trkpt>
      <trkpt lat="48.73862" lon="7.2625">
        <ele>214.19999694824</ele>
        <time>2013-09-27T12:17:09.000Z</time>
      </trkpt>
      <trkpt lat="48.73879" lon="7.26339">
        <ele>214</ele>
        <time>2013-09-27T12:17:22.000Z</time>
      </trkpt>
      <trkpt lat="48.73882" lon="7.2638">
        <ele>214.19999694824</ele>
        <time>2013-09-27T12:17:28.000Z</time>
      </trkpt>
      <trkpt lat="48.73882" lon="7.26421">
        <ele>213.80000305176</ele>
        <time>2013-09-27T12:17:33.000Z</time>
      </trkpt>
      <trkpt lat="48.73864" lon="7.26524">
        <ele>214.19999694824</ele>
        <time>2013-09-27T12:17:48.000Z</time>
      </trkpt>
      <trkpt lat="48.73861" lon="7.26575">
        <ele>216</ele>
        <time>2013-09-27T12:17:58.000Z</time>
      </trkpt>
      <trkpt lat="48.73855" lon="7.26643">
        <ele>215.80000305176</ele>
        <time>2013-09-27T12:18:11.000Z</time>
      </trkpt>
      <trkpt lat="48.73849" lon="7.26703">
        <ele>217.60000610352</ele>
        <time>2013-09-27T12:18:23.000Z</time>
      </trkpt>
      <trkpt lat="48.73841" lon="7.26784">
        <ele>217</ele>
        <time>2013-09-27T12:18:36.000Z</time>
      </trkpt>
      <trkpt lat="48.73841" lon="7.26791">
        <ele>217</ele>
        <time>2013-09-27T12:18:37.000Z</time>
      </trkpt>
      <trkpt lat="48.73835" lon="7.26831">
        <ele>216</ele>
        <time>2013-09-27T12:18:43.000Z</time>
      </trkpt>
      <trkpt lat="48.73833" lon="7.2685">
        <ele>215.60000610352</ele>
        <time>2013-09-27T12:18:46.000Z</time>
      </trkpt>
      <trkpt lat="48.73831" lon="7.26862">
        <ele>215</ele>
        <time>2013-09-27T12:18:48.000Z</time>
      </trkpt>
      <trkpt lat="48.73831" lon="7.26877">
        <ele>215</ele>
        <time>2013-09-27T12:18:50.000Z</time>
      </trkpt>
      <trkpt lat="48.73827" lon="7.2691">
        <ele>214.80000305176</ele>
        <time>2013-09-27T12:18:55.000Z</time>
      </trkpt>
      <trkpt lat="48.73824" lon="7.2693">
        <ele>214.80000305176</ele>
        <time>2013-09-27T12:18:58.000Z</time>
      </trkpt>
      <trkpt lat="48.73823" lon="7.26953">
        <ele>214.80000305176</ele>
        <time>2013-09-27T12:19:01.000Z</time>
      </trkpt>
      <trkpt lat="48.73819" lon="7.2706">
        <ele>215</ele>
        <time>2013-09-27T12:19:13.000Z</time>
      </trkpt>
      <trkpt lat="48.73817" lon="7.27093">
        <ele>215</ele>
        <time>2013-09-27T12:19:18.000Z</time>
      </trkpt>
      <trkpt lat="48.73812" lon="7.27134">
        <ele>215</ele>
        <time>2013-09-27T12:19:24.000Z</time>
      </trkpt>
      <trkpt lat="48.73795" lon="7.27193">
        <ele>214.60000610352</ele>
        <time>2013-09-27T12:19:34.000Z</time>
      </trkpt>
      <trkpt lat="48.73789" lon="7.27211">
        <ele>214.60000610352</ele>
        <time>2013-09-27T12:19:37.000Z</time>
      </trkpt>
      <trkpt lat="48.73776" lon="7.27238">
        <ele>214.19999694824</ele>
        <time>2013-09-27T12:19:41.000Z</time>
      </trkpt>
      <trkpt lat="48.7375" lon="7.27308">
        <ele>213.60000610352</ele>
        <time>2013-09-27T12:19:51.000Z</time>
      </trkpt>
      <trkpt lat="48.73736" lon="7.27339">
        <ele>213.19999694824</ele>
        <time>2013-09-27T12:19:56.000Z</time>
      </trkpt>
      <trkpt lat="48.73695" lon="7.274">
        <ele>212.19999694824</ele>
        <time>2013-09-27T12:20:05.000Z</time>
      </trkpt>
      <trkpt lat="48.73637" lon="7.27487">
        <ele>211</ele>
        <time>2013-09-27T12:20:18.000Z</time>
      </trkpt>
      <trkpt lat="48.73595" lon="7.27561">
        <ele>211</ele>
        <time>2013-09-27T12:20:30.000Z</time>
      </trkpt>
      <trkpt lat="48.73589" lon="7.27573">
        <ele>211</ele>
        <time>2013-09-27T12:20:32.000Z</time>
      </trkpt>
      <trkpt lat="48.73568" lon="7.27606">
        <ele>210.60000610352</ele>
        <time>2013-09-27T12:20:38.000Z</time>
      </trkpt>
      <trkpt lat="48.73556" lon="7.27629">
        <ele>210.60000610352</ele>
        <time>2013-09-27T12:20:42.000Z</time>
      </trkpt>
      <trkpt lat="48.73548" lon="7.2764">
        <ele>210.60000610352</ele>
        <time>2013-09-27T12:20:44.000Z</time>
      </trkpt>
      <trkpt lat="48.73535" lon="7.27663">
        <ele>210.80000305176</ele>
        <time>2013-09-27T12:20:48.000Z</time>
      </trkpt>
      <trkpt lat="48.73515" lon="7.27726">
        <ele>210.80000305176</ele>
        <time>2013-09-27T12:20:57.000Z</time>
      </trkpt>
      <trkpt lat="48.73505" lon="7.27766">
        <ele>210</ele>
        <time>2013-09-27T12:21:03.000Z</time>
      </trkpt>
      <trkpt lat="48.73469" lon="7.27862">
        <ele>210</ele>
        <time>2013-09-27T12:21:18.000Z</time>
      </trkpt>
      <trkpt lat="48.73463" lon="7.27882">
        <ele>210</ele>
        <time>2013-09-27T12:21:21.000Z</time>
      </trkpt>
      <trkpt lat="48.73449" lon="7.27937">
        <ele>209.19999694824</ele>
        <time>2013-09-27T12:21:29.000Z</time>
      </trkpt>
      <trkpt lat="48.73443" lon="7.27963">
        <ele>209</ele>
        <time>2013-09-27T12:21:33.000Z</time>
      </trkpt>
      <trkpt lat="48.73438" lon="7.27985">
        <ele>209</ele>
        <time>2013-09-27T12:21:36.000Z</time>
      </trkpt>
      <trkpt lat="48.73429" lon="7.28015">
        <ele>209</ele>
        <time>2013-09-27T12:21:40.000Z</time>
      </trkpt>
      <trkpt lat="48.73419" lon="7.28034">
        <ele>209</ele>
        <time>2013-09-27T12:21:43.000Z</time>
      </trkpt>
      <trkpt lat="48.73388" lon="7.28145">
        <ele>209</ele>
        <time>2013-09-27T12:22:00.000Z</time>
      </trkpt>
      <trkpt lat="48.73368" lon="7.28192">
        <ele>209.80000305176</ele>
        <time>2013-09-27T12:22:09.000Z</time>
      </trkpt>
      <trkpt lat="48.73358" lon="7.28209">
        <ele>209.80000305176</ele>
        <time>2013-09-27T12:22:12.000Z</time>
      </trkpt>
      <trkpt lat="48.73352" lon="7.28236">
        <ele>209.19999694824</ele>
        <time>2013-09-27T12:22:17.000Z</time>
      </trkpt>
      <trkpt lat="48.7333" lon="7.2831">
        <ele>209.19999694824</ele>
        <time>2013-09-27T12:22:31.000Z</time>
      </trkpt>
      <trkpt lat="48.73298" lon="7.28379">
        <ele>209</ele>
        <time>2013-09-27T12:22:44.000Z</time>
      </trkpt>
      <trkpt lat="48.7327" lon="7.28445">
        <ele>209</ele>
        <time>2013-09-27T12:22:55.000Z</time>
      </trkpt>
      <trkpt lat="48.73267" lon="7.28458">
        <ele>208.80000305176</ele>
        <time>2013-09-27T12:22:57.000Z</time>
      </trkpt>
      <trkpt lat="48.73258" lon="7.28503">
        <ele>208.60000610352</ele>
        <time>2013-09-27T12:23:04.000Z</time>
      </trkpt>
      <trkpt lat="48.73254" lon="7.28516">
        <ele>208.60000610352</ele>
        <time>2013-09-27T12:23:06.000Z</time>
      </trkpt>
      <trkpt lat="48.73232" lon="7.28604">
        <ele>209</ele>
        <time>2013-09-27T12:23:21.000Z</time>
      </trkpt>
      <trkpt lat="48.73237" lon="7.28663">
        <ele>210</ele>
        <time>2013-09-27T12:23:34.000Z</time>
      </trkpt>
      <trkpt lat="48.73267" lon="7.28674">
        <ele>211.80000305176</ele>
        <time>2013-09-27T12:23:46.000Z</time>
      </trkpt>
      <trkpt lat="48.73281" lon="7.28674">
        <ele>211.80000305176</ele>
        <time>2013-09-27T12:23:55.000Z</time>
      </trkpt>
      <trkpt lat="48.73291" lon="7.28673">
        <ele>212</ele>
        <time>2013-09-27T12:24:01.000Z</time>
      </trkpt>
      <trkpt lat="48.73322" lon="7.28679">
        <ele>212.60000610352</ele>
        <time>2013-09-27T12:24:14.000Z</time>
      </trkpt>
      <trkpt lat="48.73349" lon="7.28692">
        <ele>212.80000305176</ele>
        <time>2013-09-27T12:24:25.000Z</time>
      </trkpt>
      <trkpt lat="48.73386" lon="7.28707">
        <ele>213.19999694824</ele>
        <time>2013-09-27T12:24:36.000Z</time>
      </trkpt>
      <trkpt lat="48.73431" lon="7.28714">
        <ele>213.80000305176</ele>
        <time>2013-09-27T12:24:49.000Z</time>
      </trkpt>
      <trkpt lat="48.73463" lon="7.28725">
        <ele>214</ele>
        <time>2013-09-27T12:24:59.000Z</time>
      </trkpt>
      <trkpt lat="48.73495" lon="7.28731">
        <ele>214.80000305176</ele>
        <time>2013-09-27T12:25:09.000Z</time>
      </trkpt>
      <trkpt lat="48.73542" lon="7.2873">
        <ele>215.19999694824</ele>
        <time>2013-09-27T12:25:22.000Z</time>
      </trkpt>
      <trkpt lat="48.73579" lon="7.28732">
        <ele>215.80000305176</ele>
        <time>2013-09-27T12:25:31.000Z</time>
      </trkpt>
      <trkpt lat="48.73611" lon="7.28737">
        <ele>217</ele>
        <time>2013-09-27T12:25:41.000Z</time>
      </trkpt>
      <trkpt lat="48.73648" lon="7.28742">
        <ele>218</ele>
        <time>2013-09-27T12:25:53.000Z</time>
      </trkpt>
      <trkpt lat="48.73676" lon="7.28746">
        <ele>219</ele>
        <time>2013-09-27T12:26:02.000Z</time>
      </trkpt>
      <trkpt lat="48.7371" lon="7.28751">
        <ele>219.80000305176</ele>
        <time>2013-09-27T12:26:11.000Z</time>
      </trkpt>
      <trkpt lat="48.73748" lon="7.28765">
        <ele>221.19999694824</ele>
        <time>2013-09-27T12:26:22.000Z</time>
      </trkpt>
      <trkpt lat="48.73797" lon="7.28785">
        <ele>222.80000305176</ele>
        <time>2013-09-27T12:26:35.000Z</time>
      </trkpt>
      <trkpt lat="48.73849" lon="7.28804">
        <ele>224.19999694824</ele>
        <time>2013-09-27T12:26:50.000Z</time>
      </trkpt>
      <trkpt lat="48.7389" lon="7.28816">
        <ele>226</ele>
        <time>2013-09-27T12:27:03.000Z</time>
      </trkpt>
      <trkpt lat="48.7393" lon="7.28833">
        <ele>227.60000610352</ele>
        <time>2013-09-27T12:27:16.000Z</time>
      </trkpt>
      <trkpt lat="48.7397" lon="7.28848">
        <ele>229.60000610352</ele>
        <time>2013-09-27T12:27:29.000Z</time>
      </trkpt>
      <trkpt lat="48.74013" lon="7.28871">
        <ele>231.19999694824</ele>
        <time>2013-09-27T12:27:42.000Z</time>
      </trkpt>
      <trkpt lat="48.74057" lon="7.28892">
        <ele>233</ele>
        <time>2013-09-27T12:27:53.000Z</time>
      </trkpt>
      <trkpt lat="48.74099" lon="7.28903">
        <ele>234.60000610352</ele>
        <time>2013-09-27T12:28:05.000Z</time>
      </trkpt>
      <trkpt lat="48.7415" lon="7.28913">
        <ele>236</ele>
        <time>2013-09-27T12:28:18.000Z</time>
      </trkpt>
      <trkpt lat="48.74193" lon="7.2891">
        <ele>237.60000610352</ele>
        <time>2013-09-27T12:28:31.000Z</time>
      </trkpt>
      <trkpt lat="48.74237" lon="7.28918">
        <ele>239</ele>
        <time>2013-09-27T12:28:43.000Z</time>
      </trkpt>
      <trkpt lat="48.74278" lon="7.28923">
        <ele>240.80000305176</ele>
        <time>2013-09-27T12:28:55.000Z</time>
      </trkpt>
      <trkpt lat="48.74324" lon="7.28936">
        <ele>242.60000610352</ele>
        <time>2013-09-27T12:29:09.000Z</time>
      </trkpt>
      <trkpt lat="48.74339" lon="7.28941">
        <ele>243.19999694824</ele>
        <time>2013-09-27T12:29:14.000Z</time>
      </trkpt>
      <trkpt lat="48.74358" lon="7.2895">
        <ele>244.60000610352</ele>
        <time>2013-09-27T12:29:21.000Z</time>
      </trkpt>
      <trkpt lat="48.74402" lon="7.28961">
        <ele>245.80000305176</ele>
        <time>2013-09-27T12:29:34.000Z</time>
      </trkpt>
      <trkpt lat="48.74459" lon="7.28977">
        <ele>247</ele>
        <time>2013-09-27T12:29:50.000Z</time>
      </trkpt>
      <trkpt lat="48.74506" lon="7.28982">
        <ele>247.80000305176</ele>
        <time>2013-09-27T12:30:02.000Z</time>
      </trkpt>
      <trkpt lat="48.74549" lon="7.28989">
        <ele>248</ele>
        <time>2013-09-27T12:30:14.000Z</time>
      </trkpt>
      <trkpt lat="48.74593" lon="7.29004">
        <ele>248</ele>
        <time>2013-09-27T12:30:28.000Z</time>
      </trkpt>
      <trkpt lat="48.74597" lon="7.29004">
        <ele>248</ele>
        <time>2013-09-27T12:30:32.000Z</time>
      </trkpt>
      <trkpt lat="48.74629" lon="7.29012">
        <ele>248.19999694824</ele>
        <time>2013-09-27T12:30:55.000Z</time>
      </trkpt>
      <trkpt lat="48.74659" lon="7.29021">
        <ele>248.80000305176</ele>
        <time>2013-09-27T12:31:08.000Z</time>
      </trkpt>
      <trkpt lat="48.74698" lon="7.29028">
        <ele>248</ele>
        <time>2013-09-27T12:31:20.000Z</time>
      </trkpt>
      <trkpt lat="48.74744" lon="7.29026">
        <ele>246.80000305176</ele>
        <time>2013-09-27T12:31:31.000Z</time>
      </trkpt>
      <trkpt lat="48.74786" lon="7.29026">
        <ele>246.60000610352</ele>
        <time>2013-09-27T12:31:45.000Z</time>
      </trkpt>
      <trkpt lat="48.74808" lon="7.29034">
        <ele>248.19999694824</ele>
        <time>2013-09-27T12:31:56.000Z</time>
      </trkpt>
      <trkpt lat="48.74811" lon="7.29033">
        <ele>248.60000610352</ele>
        <time>2013-09-27T12:31:57.000Z</time>
      </trkpt>
      <trkpt lat="48.74831" lon="7.29047">
        <ele>250</ele>
        <time>2013-09-27T12:32:08.000Z</time>
      </trkpt>
      <trkpt lat="48.74855" lon="7.2906">
        <ele>253</ele>
        <time>2013-09-27T12:32:20.000Z</time>
      </trkpt>
      <trkpt lat="48.74891" lon="7.29084">
        <ele>255</ele>
        <time>2013-09-27T12:32:32.000Z</time>
      </trkpt>
      <trkpt lat="48.74932" lon="7.29108">
        <ele>257</ele>
        <time>2013-09-27T12:32:45.000Z</time>
      </trkpt>
      <trkpt lat="48.74936" lon="7.29113">
        <ele>257.20001220703</ele>
        <time>2013-09-27T12:33:06.000Z</time>
      </trkpt>
      <trkpt lat="48.74936" lon="7.29114">
        <ele>257.20001220703</ele>
        <time>2013-09-27T12:33:08.000Z</time>
      </trkpt>
      <trkpt lat="48.74907" lon="7.29127">
        <ele>256.60000610352</ele>
        <time>2013-09-27T12:33:18.000Z</time>
      </trkpt>
      <trkpt lat="48.74877" lon="7.29127">
        <ele>254</ele>
        <time>2013-09-27T12:33:27.000Z</time>
      </trkpt>
      <trkpt lat="48.74867" lon="7.2912">
        <ele>252</ele>
        <time>2013-09-27T12:33:37.000Z</time>
      </trkpt>
      <trkpt lat="48.74862" lon="7.29121">
        <ele>250.60000610352</ele>
        <time>2013-09-27T12:33:56.000Z</time>
      </trkpt>
      <trkpt lat="48.74859" lon="7.29132">
        <ele>247</ele>
        <time>2013-09-27T12:34:01.000Z</time>
      </trkpt>
      <trkpt lat="48.74856" lon="7.29134">
        <ele>246</ele>
        <time>2013-09-27T12:34:03.000Z</time>
      </trkpt>
      <trkpt lat="48.74856" lon="7.29136">
        <ele>246.19999694824</ele>
        <time>2013-09-27T12:34:05.000Z</time>
      </trkpt>
      <trkpt lat="48.7485" lon="7.29136">
        <ele>247.19999694824</ele>
        <time>2013-09-27T12:34:17.000Z</time>
      </trkpt>
      <trkpt lat="48.74852" lon="7.29138">
        <ele>247</ele>
        <time>2013-09-27T12:34:29.000Z</time>
      </trkpt>
      <trkpt lat="48.74854" lon="7.29144">
        <ele>247.60000610352</ele>
        <time>2013-09-27T12:34:44.000Z</time>
      </trkpt>
      <trkpt lat="48.74854" lon="7.29144">
        <ele>248</ele>
        <time>2013-09-27T12:34:51.000Z</time>
      </trkpt>
      <trkpt lat="48.74853" lon="7.29141">
        <ele>247.80000305176</ele>
        <time>2013-09-27T12:34:53.000Z</time>
      </trkpt>
      <trkpt lat="48.74849" lon="7.29135">
        <ele>247</ele>
        <time>2013-09-27T12:35:06.000Z</time>
      </trkpt>
      <trkpt lat="48.74846" lon="7.29137">
        <ele>249.60000610352</ele>
        <time>2013-09-27T12:35:18.000Z</time>
      </trkpt>
      <trkpt lat="48.74848" lon="7.29137">
        <ele>248.80000305176</ele>
        <time>2013-09-27T12:35:24.000Z</time>
      </trkpt>
      <trkpt lat="48.74848" lon="7.29134">
        <ele>247.19999694824</ele>
        <time>2013-09-27T12:35:38.000Z</time>
      </trkpt>
      <trkpt lat="48.7484" lon="7.29137">
        <ele>249.80000305176</ele>
        <time>2013-09-27T12:35:45.000Z</time>
      </trkpt>
      <trkpt lat="48.74833" lon="7.29145">
        <ele>253.60000610352</ele>
        <time>2013-09-27T12:35:56.000Z</time>
      </trkpt>
      <trkpt lat="48.74832" lon="7.29149">
        <ele>254</ele>
        <time>2013-09-27T12:36:17.000Z</time>
      </trkpt>
      <trkpt lat="48.74838" lon="7.29158">
        <ele>255</ele>
        <time>2013-09-27T12:36:35.000Z</time>
      </trkpt>
      <trkpt lat="48.74835" lon="7.29154">
        <ele>254.80000305176</ele>
        <time>2013-09-27T12:36:40.000Z</time>
      </trkpt>
      <trkpt lat="48.74827" lon="7.29149">
        <ele>254.60000610352</ele>
        <time>2013-09-27T12:36:56.000Z</time>
      </trkpt>
      <trkpt lat="48.74825" lon="7.29148">
        <ele>254.19999694824</ele>
        <time>2013-09-27T12:37:24.000Z</time>
      </trkpt>
      <trkpt lat="48.74822" lon="7.29145">
        <ele>255</ele>
        <time>2013-09-27T12:37:48.000Z</time>
      </trkpt>
      <trkpt lat="48.7482" lon="7.29142">
        <ele>254.80000305176</ele>
        <time>2013-09-27T12:37:50.000Z</time>
      </trkpt>
      <trkpt lat="48.74813" lon="7.29134">
        <ele>254.60000610352</ele>
        <time>2013-09-27T12:37:57.000Z</time>
      </trkpt>
      <trkpt lat="48.74805" lon="7.2913">
        <ele>253</ele>
        <time>2013-09-27T12:38:06.000Z</time>
      </trkpt>
      <trkpt lat="48.74806" lon="7.29132">
        <ele>254</ele>
        <time>2013-09-27T12:38:34.000Z</time>
      </trkpt>
      <trkpt lat="48.74805" lon="7.29135">
        <ele>254</ele>
        <time>2013-09-27T12:39:03.000Z</time>
      </trkpt>
      <trkpt lat="48.74805" lon="7.29134">
        <ele>253.80000305176</ele>
        <time>2013-09-27T12:39:35.000Z</time>
      </trkpt>
      <trkpt lat="48.74804" lon="7.29135">
        <ele>254</ele>
        <time>2013-09-27T12:40:07.000Z</time>
      </trkpt>
      <trkpt lat="48.74812" lon="7.29136">
        <ele>254.60000610352</ele>
        <time>2013-09-27T12:40:38.000Z</time>
      </trkpt>
      <trkpt lat="48.74821" lon="7.29144">
        <ele>254.80000305176</ele>
        <time>2013-09-27T12:40:58.000Z</time>
      </trkpt>
      <trkpt lat="48.74821" lon="7.29145">
        <ele>255</ele>
        <time>2013-09-27T12:41:24.000Z</time>
      </trkpt>
      <trkpt lat="48.74825" lon="7.29152">
        <ele>254.60000610352</ele>
        <time>2013-09-27T12:41:37.000Z</time>
      </trkpt>
      <trkpt lat="48.74841" lon="7.29177">
        <ele>254</ele>
        <time>2013-09-27T12:41:48.000Z</time>
      </trkpt>
      <trkpt lat="48.74867" lon="7.29174">
        <ele>254.80000305176</ele>
        <time>2013-09-27T12:42:00.000Z</time>
      </trkpt>
      <trkpt lat="48.74899" lon="7.2916">
        <ele>256</ele>
        <time>2013-09-27T12:42:14.000Z</time>
      </trkpt>
      <trkpt lat="48.74931" lon="7.29162">
        <ele>258.20001220703</ele>
        <time>2013-09-27T12:42:29.000Z</time>
      </trkpt>
      <trkpt lat="48.74966" lon="7.29164">
        <ele>261.60000610352</ele>
        <time>2013-09-27T12:42:44.000Z</time>
      </trkpt>
      <trkpt lat="48.74993" lon="7.29179">
        <ele>263.60000610352</ele>
        <time>2013-09-27T12:42:55.000Z</time>
      </trkpt>
      <trkpt lat="48.75013" lon="7.29186">
        <ele>265.20001220703</ele>
        <time>2013-09-27T12:43:05.000Z</time>
      </trkpt>
      <trkpt lat="48.75048" lon="7.29201">
        <ele>266.20001220703</ele>
        <time>2013-09-27T12:43:18.000Z</time>
      </trkpt>
      <trkpt lat="48.75084" lon="7.29216">
        <ele>266.60000610352</ele>
        <time>2013-09-27T12:43:31.000Z</time>
      </trkpt>
      <trkpt lat="48.75119" lon="7.29233">
        <ele>267.20001220703</ele>
        <time>2013-09-27T12:43:43.000Z</time>
      </trkpt>
      <trkpt lat="48.75152" lon="7.29247">
        <ele>268.20001220703</ele>
        <time>2013-09-27T12:43:54.000Z</time>
      </trkpt>
      <trkpt lat="48.75188" lon="7.2927">
        <ele>268.60000610352</ele>
        <time>2013-09-27T12:44:05.000Z</time>
      </trkpt>
      <trkpt lat="48.75223" lon="7.29294">
        <ele>269.20001220703</ele>
        <time>2013-09-27T12:44:17.000Z</time>
      </trkpt>
      <trkpt lat="48.75255" lon="7.2933">
        <ele>270.20001220703</ele>
        <time>2013-09-27T12:44:29.000Z</time>
      </trkpt>
      <trkpt lat="48.75283" lon="7.29354">
        <ele>272.20001220703</ele>
        <time>2013-09-27T12:44:41.000Z</time>
      </trkpt>
      <trkpt lat="48.75304" lon="7.29373">
        <ele>273.20001220703</ele>
        <time>2013-09-27T12:44:53.000Z</time>
      </trkpt>
      <trkpt lat="48.75337" lon="7.29403">
        <ele>273.60000610352</ele>
        <time>2013-09-27T12:45:05.000Z</time>
      </trkpt>
      <trkpt lat="48.7537" lon="7.29424">
        <ele>273.60000610352</ele>
        <time>2013-09-27T12:45:16.000Z</time>
      </trkpt>
      <trkpt lat="48.75406" lon="7.29455">
        <ele>274.60000610352</ele>
        <time>2013-09-27T12:45:29.000Z</time>
      </trkpt>
      <trkpt lat="48.75448" lon="7.29506">
        <ele>273.60000610352</ele>
        <time>2013-09-27T12:45:41.000Z</time>
      </trkpt>
      <trkpt lat="48.75482" lon="7.29552">
        <ele>273.20001220703</ele>
        <time>2013-09-27T12:45:53.000Z</time>
      </trkpt>
      <trkpt lat="48.75503" lon="7.29591">
        <ele>274.20001220703</ele>
        <time>2013-09-27T12:46:04.000Z</time>
      </trkpt>
      <trkpt lat="48.75524" lon="7.29633">
        <ele>273.60000610352</ele>
        <time>2013-09-27T12:46:14.000Z</time>
      </trkpt>
      <trkpt lat="48.75547" lon="7.29683">
        <ele>274.60000610352</ele>
        <time>2013-09-27T12:46:25.000Z</time>
      </trkpt>
      <trkpt lat="48.75564" lon="7.29725">
        <ele>275</ele>
        <time>2013-09-27T12:46:35.000Z</time>
      </trkpt>
      <trkpt lat="48.75587" lon="7.29776">
        <ele>274.60000610352</ele>
        <time>2013-09-27T12:46:45.000Z</time>
      </trkpt>
      <trkpt lat="48.75615" lon="7.29827">
        <ele>274.60000610352</ele>
        <time>2013-09-27T12:46:56.000Z</time>
      </trkpt>
      <trkpt lat="48.75638" lon="7.29881">
        <ele>275.60000610352</ele>
        <time>2013-09-27T12:47:06.000Z</time>
      </trkpt>
      <trkpt lat="48.75658" lon="7.29928">
        <ele>276.60000610352</ele>
        <time>2013-09-27T12:47:17.000Z</time>
      </trkpt>
      <trkpt lat="48.7568" lon="7.29984">
        <ele>278.20001220703</ele>
        <time>2013-09-27T12:47:30.000Z</time>
      </trkpt>
      <trkpt lat="48.75709" lon="7.30048">
        <ele>280</ele>
        <time>2013-09-27T12:47:43.000Z</time>
      </trkpt>
      <trkpt lat="48.75726" lon="7.30103">
        <ele>281.20001220703</ele>
        <time>2013-09-27T12:47:54.000Z</time>
      </trkpt>
      <trkpt lat="48.75744" lon="7.30156">
        <ele>282</ele>
        <time>2013-09-27T12:48:06.000Z</time>
      </trkpt>
      <trkpt lat="48.75761" lon="7.30197">
        <ele>283</ele>
        <time>2013-09-27T12:48:15.000Z</time>
      </trkpt>
      <trkpt lat="48.75763" lon="7.30201">
        <ele>283</ele>
        <time>2013-09-27T12:48:16.000Z</time>
      </trkpt>
      <trkpt lat="48.75777" lon="7.30234">
        <ele>284</ele>
        <time>2013-09-27T12:48:25.000Z</time>
      </trkpt>
      <trkpt lat="48.75793" lon="7.30282">
        <ele>285.20001220703</ele>
        <time>2013-09-27T12:48:37.000Z</time>
      </trkpt>
      <trkpt lat="48.75812" lon="7.30324">
        <ele>286.20001220703</ele>
        <time>2013-09-27T12:48:49.000Z</time>
      </trkpt>
      <trkpt lat="48.75839" lon="7.30378">
        <ele>287.20001220703</ele>
        <time>2013-09-27T12:48:59.000Z</time>
      </trkpt>
      <trkpt lat="48.75863" lon="7.30422">
        <ele>289</ele>
        <time>2013-09-27T12:49:11.000Z</time>
      </trkpt>
      <trkpt lat="48.75886" lon="7.30459">
        <ele>290.20001220703</ele>
        <time>2013-09-27T12:49:21.000Z</time>
      </trkpt>
      <trkpt lat="48.75915" lon="7.30495">
        <ele>292</ele>
        <time>2013-09-27T12:49:33.000Z</time>
      </trkpt>
      <trkpt lat="48.75952" lon="7.30531">
        <ele>294.60000610352</ele>
        <time>2013-09-27T12:49:47.000Z</time>
      </trkpt>
      <trkpt lat="48.75981" lon="7.30566">
        <ele>297</ele>
        <time>2013-09-27T12:49:59.000Z</time>
      </trkpt>
      <trkpt lat="48.75989" lon="7.30579">
        <ele>298</ele>
        <time>2013-09-27T12:50:03.000Z</time>
      </trkpt>
      <trkpt lat="48.7601" lon="7.30623">
        <ele>300.60000610352</ele>
        <time>2013-09-27T12:50:15.000Z</time>
      </trkpt>
      <trkpt lat="48.76032" lon="7.30661">
        <ele>303.60000610352</ele>
        <time>2013-09-27T12:50:27.000Z</time>
      </trkpt>
      <trkpt lat="48.76059" lon="7.30708">
        <ele>306.60000610352</ele>
        <time>2013-09-27T12:50:39.000Z</time>
      </trkpt>
      <trkpt lat="48.76073" lon="7.30756">
        <ele>309</ele>
        <time>2013-09-27T12:50:51.000Z</time>
      </trkpt>
      <trkpt lat="48.76081" lon="7.30777">
        <ele>310.20001220703</ele>
        <time>2013-09-27T12:50:58.000Z</time>
      </trkpt>
      <trkpt lat="48.76101" lon="7.30821">
        <ele>313</ele>
        <time>2013-09-27T12:51:11.000Z</time>
      </trkpt>
      <trkpt lat="48.76127" lon="7.30864">
        <ele>315.60000610352</ele>
        <time>2013-09-27T12:51:24.000Z</time>
      </trkpt>
      <trkpt lat="48.76165" lon="7.30918">
        <ele>318.60000610352</ele>
        <time>2013-09-27T12:51:37.000Z</time>
      </trkpt>
      <trkpt lat="48.76191" lon="7.30959">
        <ele>321.20001220703</ele>
        <time>2013-09-27T12:51:49.000Z</time>
      </trkpt>
      <trkpt lat="48.76213" lon="7.30996">
        <ele>323.60000610352</ele>
        <time>2013-09-27T12:52:00.000Z</time>
      </trkpt>
      <trkpt lat="48.76243" lon="7.31041">
        <ele>326</ele>
        <time>2013-09-27T12:52:12.000Z</time>
      </trkpt>
      <trkpt lat="48.76277" lon="7.31063">
        <ele>328.60000610352</ele>
        <time>2013-09-27T12:52:25.000Z</time>
      </trkpt>
      <trkpt lat="48.7631" lon="7.31082">
        <ele>330.20001220703</ele>
        <time>2013-09-27T12:52:37.000Z</time>
      </trkpt>
      <trkpt lat="48.7632" lon="7.31084">
        <ele>331</ele>
        <time>2013-09-27T12:52:41.000Z</time>
      </trkpt>
      <trkpt lat="48.76329" lon="7.31104">
        <ele>332</ele>
        <time>2013-09-27T12:52:50.000Z</time>
      </trkpt>
      <trkpt lat="48.76332" lon="7.31115">
        <ele>332.20001220703</ele>
        <time>2013-09-27T12:52:52.000Z</time>
      </trkpt>
      <trkpt lat="48.76334" lon="7.31125">
        <ele>332.20001220703</ele>
        <time>2013-09-27T12:52:54.000Z</time>
      </trkpt>
      <trkpt lat="48.76335" lon="7.31135">
        <ele>332.60000610352</ele>
        <time>2013-09-27T12:52:57.000Z</time>
      </trkpt>
      <trkpt lat="48.76324" lon="7.31139">
        <ele>333</ele>
        <time>2013-09-27T12:53:05.000Z</time>
      </trkpt>
      <trkpt lat="48.7632" lon="7.3114">
        <ele>333</ele>
        <time>2013-09-27T12:53:11.000Z</time>
      </trkpt>
      <trkpt lat="48.76318" lon="7.31141">
        <ele>333</ele>
        <time>2013-09-27T12:53:13.000Z</time>
      </trkpt>
      <trkpt lat="48.76331" lon="7.31144">
        <ele>333.20001220703</ele>
        <time>2013-09-27T12:53:19.000Z</time>
      </trkpt>
      <trkpt lat="48.76334" lon="7.31122">
        <ele>331.60000610352</ele>
        <time>2013-09-27T12:53:27.000Z</time>
      </trkpt>
      <trkpt lat="48.76333" lon="7.31126">
        <ele>331.20001220703</ele>
        <time>2013-09-27T12:53:35.000Z</time>
      </trkpt>
      <trkpt lat="48.76333" lon="7.31126">
        <ele>330.20001220703</ele>
        <time>2013-09-27T12:53:57.000Z</time>
      </trkpt>
      <trkpt lat="48.76333" lon="7.31124">
        <ele>330.20001220703</ele>
        <time>2013-09-27T12:54:29.000Z</time>
      </trkpt>
      <trkpt lat="48.76334" lon="7.31126">
        <ele>330.20001220703</ele>
        <time>2013-09-27T12:55:10.000Z</time>
      </trkpt>
      <trkpt lat="48.76335" lon="7.31126">
        <ele>330.60000610352</ele>
        <time>2013-09-27T12:55:41.000Z</time>
      </trkpt>
      <trkpt lat="48.76336" lon="7.31127">
        <ele>330.60000610352</ele>
        <time>2013-09-27T12:56:14.000Z</time>
      </trkpt>
      <trkpt lat="48.76338" lon="7.31126">
        <ele>330.20001220703</ele>
        <time>2013-09-27T12:56:45.000Z</time>
      </trkpt>
      <trkpt lat="48.76338" lon="7.31125">
        <ele>330.60000610352</ele>
        <time>2013-09-27T12:57:20.000Z</time>
      </trkpt>
      <trkpt lat="48.76337" lon="7.31125">
        <ele>330.60000610352</ele>
        <time>2013-09-27T12:57:51.000Z</time>
      </trkpt>
      <trkpt lat="48.76337" lon="7.31126">
        <ele>330.60000610352</ele>
        <time>2013-09-27T12:58:23.000Z</time>
      </trkpt>
      <trkpt lat="48.76337" lon="7.31128">
        <ele>330.60000610352</ele>
        <time>2013-09-27T12:58:57.000Z</time>
      </trkpt>
      <trkpt lat="48.76334" lon="7.3113">
        <ele>331</ele>
        <time>2013-09-27T12:59:27.000Z</time>
      </trkpt>
      <trkpt lat="48.76334" lon="7.31131">
        <ele>331</ele>
        <time>2013-09-27T12:59:59.000Z</time>
      </trkpt>
      <trkpt lat="48.76335" lon="7.31131">
        <ele>330.60000610352</ele>
        <time>2013-09-27T13:00:36.000Z</time>
      </trkpt>
      <trkpt lat="48.76335" lon="7.31111">
        <ele>331</ele>
        <time>2013-09-27T13:01:08.000Z</time>
      </trkpt>
      <trkpt lat="48.76336" lon="7.31111">
        <ele>331</ele>
        <time>2013-09-27T13:01:38.000Z</time>
      </trkpt>
      <trkpt lat="48.76342" lon="7.31113">
        <ele>332.20001220703</ele>
        <time>2013-09-27T13:02:06.000Z</time>
      </trkpt>
      <trkpt lat="48.76347" lon="7.31129">
        <ele>332.60000610352</ele>
        <time>2013-09-27T13:02:20.000Z</time>
      </trkpt>
      <trkpt lat="48.76348" lon="7.3113">
        <ele>332.60000610352</ele>
        <time>2013-09-27T13:02:48.000Z</time>
      </trkpt>
      <trkpt lat="48.76356" lon="7.31133">
        <ele>333</ele>
        <time>2013-09-27T13:03:17.000Z</time>
      </trkpt>
      <trkpt lat="48.76354" lon="7.31139">
        <ele>332.60000610352</ele>
        <time>2013-09-27T13:03:46.000Z</time>
      </trkpt>
      <trkpt lat="48.76354" lon="7.31141">
        <ele>332.60000610352</ele>
        <time>2013-09-27T13:04:15.000Z</time>
      </trkpt>
      <trkpt lat="48.76354" lon="7.31141">
        <ele>332.60000610352</ele>
        <time>2013-09-27T13:04:45.000Z</time>
      </trkpt>
      <trkpt lat="48.76354" lon="7.31141">
        <ele>333</ele>
        <time>2013-09-27T13:05:09.000Z</time>
      </trkpt>
      <trkpt lat="48.76355" lon="7.31143">
        <ele>332.60000610352</ele>
        <time>2013-09-27T13:05:39.000Z</time>
      </trkpt>
      <trkpt lat="48.76354" lon="7.31142">
        <ele>332.60000610352</ele>
        <time>2013-09-27T13:06:10.000Z</time>
      </trkpt>
      <trkpt lat="48.76354" lon="7.31146">
        <ele>333</ele>
        <time>2013-09-27T13:06:38.000Z</time>
      </trkpt>
      <trkpt lat="48.76354" lon="7.31154">
        <ele>333.20001220703</ele>
        <time>2013-09-27T13:06:42.000Z</time>
      </trkpt>
      <trkpt lat="48.76327" lon="7.31149">
        <ele>334.20001220703</ele>
        <time>2013-09-27T13:06:53.000Z</time>
      </trkpt>
      <trkpt lat="48.76324" lon="7.31148">
        <ele>334.20001220703</ele>
        <time>2013-09-27T13:06:54.000Z</time>
      </trkpt>
      <trkpt lat="48.76289" lon="7.31139">
        <ele>334.60000610352</ele>
        <time>2013-09-27T13:07:07.000Z</time>
      </trkpt>
      <trkpt lat="48.76266" lon="7.31135">
        <ele>335.60000610352</ele>
        <time>2013-09-27T13:07:18.000Z</time>
      </trkpt>
      <trkpt lat="48.76231" lon="7.3112">
        <ele>337.20001220703</ele>
        <time>2013-09-27T13:07:33.000Z</time>
      </trkpt>
      <trkpt lat="48.76203" lon="7.31102">
        <ele>338.20001220703</ele>
        <time>2013-09-27T13:07:46.000Z</time>
      </trkpt>
      <trkpt lat="48.76187" lon="7.31093">
        <ele>338.60000610352</ele>
        <time>2013-09-27T13:07:54.000Z</time>
      </trkpt>
      <trkpt lat="48.76198" lon="7.31107">
        <ele>340</ele>
        <time>2013-09-27T13:08:05.000Z</time>
      </trkpt>
      <trkpt lat="48.762" lon="7.31108">
        <ele>340.20001220703</ele>
        <time>2013-09-27T13:08:06.000Z</time>
      </trkpt>
      <trkpt lat="48.76228" lon="7.31125">
        <ele>341.20001220703</ele>
        <time>2013-09-27T13:08:23.000Z</time>
      </trkpt>
      <trkpt lat="48.7625" lon="7.31149">
        <ele>342.60000610352</ele>
        <time>2013-09-27T13:08:36.000Z</time>
      </trkpt>
      <trkpt lat="48.76271" lon="7.3117">
        <ele>344.20001220703</ele>
        <time>2013-09-27T13:08:49.000Z</time>
      </trkpt>
      <trkpt lat="48.76294" lon="7.31184">
        <ele>346</ele>
        <time>2013-09-27T13:09:02.000Z</time>
      </trkpt>
      <trkpt lat="48.76322" lon="7.31196">
        <ele>347.60000610352</ele>
        <time>2013-09-27T13:09:17.000Z</time>
      </trkpt>
      <trkpt lat="48.76352" lon="7.31209">
        <ele>349.20001220703</ele>
        <time>2013-09-27T13:09:32.000Z</time>
      </trkpt>
      <trkpt lat="48.76375" lon="7.31222">
        <ele>351</ele>
        <time>2013-09-27T13:09:44.000Z</time>
      </trkpt>
      <trkpt lat="48.76405" lon="7.31249">
        <ele>352.60000610352</ele>
        <time>2013-09-27T13:09:58.000Z</time>
      </trkpt>
      <trkpt lat="48.76425" lon="7.31259">
        <ele>354.20001220703</ele>
        <time>2013-09-27T13:10:09.000Z</time>
      </trkpt>
      <trkpt lat="48.76452" lon="7.31274">
        <ele>355.60000610352</ele>
        <time>2013-09-27T13:10:22.000Z</time>
      </trkpt>
      <trkpt lat="48.76483" lon="7.31293">
        <ele>357.60000610352</ele>
        <time>2013-09-27T13:10:37.000Z</time>
      </trkpt>
      <trkpt lat="48.76507" lon="7.31323">
        <ele>359.60000610352</ele>
        <time>2013-09-27T13:10:49.000Z</time>
      </trkpt>
      <trkpt lat="48.76532" lon="7.31354">
        <ele>361.20001220703</ele>
        <time>2013-09-27T13:11:03.000Z</time>
      </trkpt>
      <trkpt lat="48.76561" lon="7.31383">
        <ele>363.20001220703</ele>
        <time>2013-09-27T13:11:16.000Z</time>
      </trkpt>
      <trkpt lat="48.76588" lon="7.31404">
        <ele>365</ele>
        <time>2013-09-27T13:11:26.000Z</time>
      </trkpt>
      <trkpt lat="48.76592" lon="7.31406">
        <ele>365.20001220703</ele>
        <time>2013-09-27T13:11:28.000Z</time>
      </trkpt>
      <trkpt lat="48.76606" lon="7.31411">
        <ele>366.20001220703</ele>
        <time>2013-09-27T13:11:35.000Z</time>
      </trkpt>
      <trkpt lat="48.76635" lon="7.31446">
        <ele>368.60000610352</ele>
        <time>2013-09-27T13:11:51.000Z</time>
      </trkpt>
      <trkpt lat="48.76663" lon="7.31485">
        <ele>370.60000610352</ele>
        <time>2013-09-27T13:12:06.000Z</time>
      </trkpt>
      <trkpt lat="48.767" lon="7.31554">
        <ele>373.20001220703</ele>
        <time>2013-09-27T13:12:24.000Z</time>
      </trkpt>
      <trkpt lat="48.76718" lon="7.31572">
        <ele>374.60000610352</ele>
        <time>2013-09-27T13:12:40.000Z</time>
      </trkpt>
      <trkpt lat="48.76718" lon="7.31572">
        <ele>375</ele>
        <time>2013-09-27T13:13:10.000Z</time>
      </trkpt>
      <trkpt lat="48.76729" lon="7.31599">
        <ele>376.20001220703</ele>
        <time>2013-09-27T13:13:23.000Z</time>
      </trkpt>
      <trkpt lat="48.76728" lon="7.31614">
        <ele>377</ele>
        <time>2013-09-27T13:13:27.000Z</time>
      </trkpt>
      <trkpt lat="48.76729" lon="7.31662">
        <ele>379.20001220703</ele>
        <time>2013-09-27T13:13:39.000Z</time>
      </trkpt>
      <trkpt lat="48.7674" lon="7.317">
        <ele>381.20001220703</ele>
        <time>2013-09-27T13:13:53.000Z</time>
      </trkpt>
      <trkpt lat="48.76743" lon="7.31702">
        <ele>381.20001220703</ele>
        <time>2013-09-27T13:13:58.000Z</time>
      </trkpt>
      <trkpt lat="48.76748" lon="7.31715">
        <ele>381.60000610352</ele>
        <time>2013-09-27T13:14:12.000Z</time>
      </trkpt>
      <trkpt lat="48.76748" lon="7.31714">
        <ele>381.60000610352</ele>
        <time>2013-09-27T13:14:24.000Z</time>
      </trkpt>
      <trkpt lat="48.7675" lon="7.31717">
        <ele>381.60000610352</ele>
        <time>2013-09-27T13:14:54.000Z</time>
      </trkpt>
      <trkpt lat="48.76753" lon="7.3172">
        <ele>381.60000610352</ele>
        <time>2013-09-27T13:15:22.000Z</time>
      </trkpt>
      <trkpt lat="48.76755" lon="7.31723">
        <ele>381.60000610352</ele>
        <time>2013-09-27T13:15:51.000Z</time>
      </trkpt>
      <trkpt lat="48.76757" lon="7.31726">
        <ele>381.20001220703</ele>
        <time>2013-09-27T13:16:18.000Z</time>
      </trkpt>
      <trkpt lat="48.76758" lon="7.3173">
        <ele>381.60000610352</ele>
        <time>2013-09-27T13:16:47.000Z</time>
      </trkpt>
      <trkpt lat="48.76758" lon="7.31731">
        <ele>381.60000610352</ele>
        <time>2013-09-27T13:17:12.000Z</time>
      </trkpt>
      <trkpt lat="48.7676" lon="7.31733">
        <ele>381.60000610352</ele>
        <time>2013-09-27T13:17:43.000Z</time>
      </trkpt>
      <trkpt lat="48.7676" lon="7.31733">
        <ele>381.60000610352</ele>
        <time>2013-09-27T13:18:39.000Z</time>
      </trkpt>
      <trkpt lat="48.7676" lon="7.31733">
        <ele>381.20001220703</ele>
        <time>2013-09-27T13:19:59.000Z</time>
      </trkpt>
      <trkpt lat="48.7676" lon="7.31732">
        <ele>381.20001220703</ele>
        <time>2013-09-27T13:20:48.000Z</time>
      </trkpt>
      <trkpt lat="48.76759" lon="7.31727">
        <ele>381.20001220703</ele>
        <time>2013-09-27T13:21:37.000Z</time>
      </trkpt>
      <trkpt lat="48.7676" lon="7.31725">
        <ele>381</ele>
        <time>2013-09-27T13:22:20.000Z</time>
      </trkpt>
      <trkpt lat="48.76759" lon="7.31717">
        <ele>381.20001220703</ele>
        <time>2013-09-27T13:23:25.000Z</time>
      </trkpt>
      <trkpt lat="48.76762" lon="7.31718">
        <ele>381.60000610352</ele>
        <time>2013-09-27T13:24:28.000Z</time>
      </trkpt>
      <trkpt lat="48.76766" lon="7.31722">
        <ele>381.60000610352</ele>
        <time>2013-09-27T13:25:05.000Z</time>
      </trkpt>
      <trkpt lat="48.76798" lon="7.31717">
        <ele>380.60000610352</ele>
        <time>2013-09-27T13:25:18.000Z</time>
      </trkpt>
      <trkpt lat="48.76835" lon="7.31709">
        <ele>380</ele>
        <time>2013-09-27T13:25:34.000Z</time>
      </trkpt>
      <trkpt lat="48.76872" lon="7.31699">
        <ele>378.60000610352</ele>
        <time>2013-09-27T13:25:47.000Z</time>
      </trkpt>
      <trkpt lat="48.76909" lon="7.31735">
        <ele>377.60000610352</ele>
        <time>2013-09-27T13:25:58.000Z</time>
      </trkpt>
      <trkpt lat="48.7694" lon="7.31806">
        <ele>377.20001220703</ele>
        <time>2013-09-27T13:26:11.000Z</time>
      </trkpt>
      <trkpt lat="48.76963" lon="7.31861">
        <ele>376.60000610352</ele>
        <time>2013-09-27T13:26:21.000Z</time>
      </trkpt>
      <trkpt lat="48.76966" lon="7.31867">
        <ele>376.60000610352</ele>
        <time>2013-09-27T13:26:22.000Z</time>
      </trkpt>
      <trkpt lat="48.77003" lon="7.31953">
        <ele>376</ele>
        <time>2013-09-27T13:26:38.000Z</time>
      </trkpt>
      <trkpt lat="48.77013" lon="7.31976">
        <ele>375.60000610352</ele>
        <time>2013-09-27T13:26:42.000Z</time>
      </trkpt>
      <trkpt lat="48.77046" lon="7.32047">
        <ele>375.20001220703</ele>
        <time>2013-09-27T13:26:55.000Z</time>
      </trkpt>
      <trkpt lat="48.77077" lon="7.32112">
        <ele>375.60000610352</ele>
        <time>2013-09-27T13:27:08.000Z</time>
      </trkpt>
      <trkpt lat="48.77111" lon="7.32189">
        <ele>376.60000610352</ele>
        <time>2013-09-27T13:27:23.000Z</time>
      </trkpt>
      <trkpt lat="48.77132" lon="7.32233">
        <ele>377.20001220703</ele>
        <time>2013-09-27T13:27:34.000Z</time>
      </trkpt>
      <trkpt lat="48.77164" lon="7.32309">
        <ele>378.20001220703</ele>
        <time>2013-09-27T13:27:49.000Z</time>
      </trkpt>
      <trkpt lat="48.77186" lon="7.32361">
        <ele>379.20001220703</ele>
        <time>2013-09-27T13:28:02.000Z</time>
      </trkpt>
      <trkpt lat="48.77208" lon="7.32409">
        <ele>379.60000610352</ele>
        <time>2013-09-27T13:28:13.000Z</time>
      </trkpt>
      <trkpt lat="48.77231" lon="7.32459">
        <ele>380.60000610352</ele>
        <time>2013-09-27T13:28:25.000Z</time>
      </trkpt>
      <trkpt lat="48.77255" lon="7.32525">
        <ele>381.60000610352</ele>
        <time>2013-09-27T13:28:39.000Z</time>
      </trkpt>
      <trkpt lat="48.77258" lon="7.32538">
        <ele>382</ele>
        <time>2013-09-27T13:28:50.000Z</time>
      </trkpt>
      <trkpt lat="48.77259" lon="7.32539">
        <ele>382</ele>
        <time>2013-09-27T13:29:20.000Z</time>
      </trkpt>
      <trkpt lat="48.77259" lon="7.3254">
        <ele>382</ele>
        <time>2013-09-27T13:29:44.000Z</time>
      </trkpt>
      <trkpt lat="48.7726" lon="7.3254">
        <ele>382.20001220703</ele>
        <time>2013-09-27T13:30:13.000Z</time>
      </trkpt>
      <trkpt lat="48.77261" lon="7.3254">
        <ele>382</ele>
        <time>2013-09-27T13:30:43.000Z</time>
      </trkpt>
      <trkpt lat="48.77261" lon="7.3254">
        <ele>382</ele>
        <time>2013-09-27T13:31:46.000Z</time>
      </trkpt>
      <trkpt lat="48.77261" lon="7.3254">
        <ele>381.60000610352</ele>
        <time>2013-09-27T13:31:52.000Z</time>
      </trkpt>
      <trkpt lat="48.77261" lon="7.32561">
        <ele>382.20001220703</ele>
        <time>2013-09-27T13:31:59.000Z</time>
      </trkpt>
      <trkpt lat="48.77267" lon="7.32629">
        <ele>384.60000610352</ele>
        <time>2013-09-27T13:32:16.000Z</time>
      </trkpt>
      <trkpt lat="48.77274" lon="7.32654">
        <ele>383.60000610352</ele>
        <time>2013-09-27T13:32:21.000Z</time>
      </trkpt>
      <trkpt lat="48.77307" lon="7.32671">
        <ele>380.20001220703</ele>
        <time>2013-09-27T13:32:26.000Z</time>
      </trkpt>
      <trkpt lat="48.77328" lon="7.32673">
        <ele>379</ele>
        <time>2013-09-27T13:32:29.000Z</time>
      </trkpt>
      <trkpt lat="48.77347" lon="7.32677">
        <ele>377.60000610352</ele>
        <time>2013-09-27T13:32:36.000Z</time>
      </trkpt>
      <trkpt lat="48.77348" lon="7.32678">
        <ele>378</ele>
        <time>2013-09-27T13:32:37.000Z</time>
      </trkpt>
      <trkpt lat="48.77353" lon="7.32681">
        <ele>378.60000610352</ele>
        <time>2013-09-27T13:32:49.000Z</time>
      </trkpt>
      <trkpt lat="48.77351" lon="7.32713">
        <ele>379.60000610352</ele>
        <time>2013-09-27T13:32:57.000Z</time>
      </trkpt>
      <trkpt lat="48.7735" lon="7.32757">
        <ele>379.60000610352</ele>
        <time>2013-09-27T13:33:11.000Z</time>
      </trkpt>
      <trkpt lat="48.77357" lon="7.32805">
        <ele>378.60000610352</ele>
        <time>2013-09-27T13:33:23.000Z</time>
      </trkpt>
      <trkpt lat="48.77366" lon="7.32839">
        <ele>379.60000610352</ele>
        <time>2013-09-27T13:33:32.000Z</time>
      </trkpt>
      <trkpt lat="48.77373" lon="7.32878">
        <ele>381.60000610352</ele>
        <time>2013-09-27T13:33:44.000Z</time>
      </trkpt>
      <trkpt lat="48.77373" lon="7.32918">
        <ele>381.60000610352</ele>
        <time>2013-09-27T13:33:56.000Z</time>
      </trkpt>
      <trkpt lat="48.77369" lon="7.32936">
        <ele>382</ele>
        <time>2013-09-27T13:34:02.000Z</time>
      </trkpt>
      <trkpt lat="48.77353" lon="7.32995">
        <ele>381.60000610352</ele>
        <time>2013-09-27T13:34:15.000Z</time>
      </trkpt>
      <trkpt lat="48.77334" lon="7.33091">
        <ele>380.20001220703</ele>
        <time>2013-09-27T13:34:28.000Z</time>
      </trkpt>
      <trkpt lat="48.77326" lon="7.33112">
        <ele>379.60000610352</ele>
        <time>2013-09-27T13:34:31.000Z</time>
      </trkpt>
      <trkpt lat="48.77317" lon="7.33133">
        <ele>379.20001220703</ele>
        <time>2013-09-27T13:34:34.000Z</time>
      </trkpt>
      <trkpt lat="48.77308" lon="7.33155">
        <ele>378.60000610352</ele>
        <time>2013-09-27T13:34:37.000Z</time>
      </trkpt>
      <trkpt lat="48.77304" lon="7.33174">
        <ele>378.20001220703</ele>
        <time>2013-09-27T13:34:39.000Z</time>
      </trkpt>
      <trkpt lat="48.77294" lon="7.33196">
        <ele>377.60000610352</ele>
        <time>2013-09-27T13:34:42.000Z</time>
      </trkpt>
      <trkpt lat="48.77281" lon="7.33223">
        <ele>377.20001220703</ele>
        <time>2013-09-27T13:34:46.000Z</time>
      </trkpt>
      <trkpt lat="48.77259" lon="7.33253">
        <ele>377.20001220703</ele>
        <time>2013-09-27T13:34:51.000Z</time>
      </trkpt>
      <trkpt lat="48.77235" lon="7.33285">
        <ele>377.20001220703</ele>
        <time>2013-09-27T13:34:56.000Z</time>
      </trkpt>
      <trkpt lat="48.77203" lon="7.33343">
        <ele>379.20001220703</ele>
        <time>2013-09-27T13:35:07.000Z</time>
      </trkpt>
      <trkpt lat="48.77232" lon="7.33419">
        <ele>380.60000610352</ele>
        <time>2013-09-27T13:35:18.000Z</time>
      </trkpt>
      <trkpt lat="48.77237" lon="7.33466">
        <ele>382.20001220703</ele>
        <time>2013-09-27T13:35:29.000Z</time>
      </trkpt>
      <trkpt lat="48.77249" lon="7.3352">
        <ele>382</ele>
        <time>2013-09-27T13:35:39.000Z</time>
      </trkpt>
      <trkpt lat="48.77273" lon="7.33587">
        <ele>380.60000610352</ele>
        <time>2013-09-27T13:35:49.000Z</time>
      </trkpt>
      <trkpt lat="48.77283" lon="7.33621">
        <ele>381</ele>
        <time>2013-09-27T13:35:54.000Z</time>
      </trkpt>
      <trkpt lat="48.77293" lon="7.3367">
        <ele>381.60000610352</ele>
        <time>2013-09-27T13:36:04.000Z</time>
      </trkpt>
      <trkpt lat="48.77293" lon="7.33673">
        <ele>382</ele>
        <time>2013-09-27T13:36:05.000Z</time>
      </trkpt>
      <trkpt lat="48.77296" lon="7.33706">
        <ele>383.20001220703</ele>
        <time>2013-09-27T13:36:13.000Z</time>
      </trkpt>
      <trkpt lat="48.77297" lon="7.33719">
        <ele>384</ele>
        <time>2013-09-27T13:36:16.000Z</time>
      </trkpt>
      <trkpt lat="48.77283" lon="7.33775">
        <ele>387.20001220703</ele>
        <time>2013-09-27T13:36:30.000Z</time>
      </trkpt>
      <trkpt lat="48.77269" lon="7.33815">
        <ele>388.60000610352</ele>
        <time>2013-09-27T13:36:42.000Z</time>
      </trkpt>
      <trkpt lat="48.77265" lon="7.33829">
        <ele>389.20001220703</ele>
        <time>2013-09-27T13:36:46.000Z</time>
      </trkpt>
      <trkpt lat="48.77258" lon="7.33856">
        <ele>390.20001220703</ele>
        <time>2013-09-27T13:36:54.000Z</time>
      </trkpt>
      <trkpt lat="48.7725" lon="7.3389">
        <ele>392</ele>
        <time>2013-09-27T13:37:04.000Z</time>
      </trkpt>
      <trkpt lat="48.77241" lon="7.33941">
        <ele>394.60000610352</ele>
        <time>2013-09-27T13:37:18.000Z</time>
      </trkpt>
      <trkpt lat="48.77231" lon="7.33967">
        <ele>394.60000610352</ele>
        <time>2013-09-27T13:37:27.000Z</time>
      </trkpt>
      <trkpt lat="48.77226" lon="7.33991">
        <ele>394.20001220703</ele>
        <time>2013-09-27T13:37:36.000Z</time>
      </trkpt>
      <trkpt lat="48.77229" lon="7.34018">
        <ele>393.60000610352</ele>
        <time>2013-09-27T13:37:44.000Z</time>
      </trkpt>
      <trkpt lat="48.77239" lon="7.34067">
        <ele>393</ele>
        <time>2013-09-27T13:37:55.000Z</time>
      </trkpt>
      <trkpt lat="48.77256" lon="7.34118">
        <ele>393.20001220703</ele>
        <time>2013-09-27T13:38:05.000Z</time>
      </trkpt>
      <trkpt lat="48.77273" lon="7.34172">
        <ele>393.60000610352</ele>
        <time>2013-09-27T13:38:16.000Z</time>
      </trkpt>
      <trkpt lat="48.77283" lon="7.34218">
        <ele>394.20001220703</ele>
        <time>2013-09-27T13:38:28.000Z</time>
      </trkpt>
      <trkpt lat="48.77291" lon="7.34266">
        <ele>396</ele>
        <time>2013-09-27T13:38:39.000Z</time>
      </trkpt>
      <trkpt lat="48.77294" lon="7.34289">
        <ele>396.60000610352</ele>
        <time>2013-09-27T13:38:46.000Z</time>
      </trkpt>
      <trkpt lat="48.77292" lon="7.34306">
        <ele>396.20001220703</ele>
        <time>2013-09-27T13:38:50.000Z</time>
      </trkpt>
      <trkpt lat="48.7729" lon="7.34319">
        <ele>396.20001220703</ele>
        <time>2013-09-27T13:38:52.000Z</time>
      </trkpt>
      <trkpt lat="48.77276" lon="7.34351">
        <ele>395.20001220703</ele>
        <time>2013-09-27T13:38:56.000Z</time>
      </trkpt>
      <trkpt lat="48.77252" lon="7.34393">
        <ele>393.20001220703</ele>
        <time>2013-09-27T13:39:03.000Z</time>
      </trkpt>
      <trkpt lat="48.77236" lon="7.34391">
        <ele>393.60000610352</ele>
        <time>2013-09-27T13:39:06.000Z</time>
      </trkpt>
      <trkpt lat="48.77215" lon="7.3439">
        <ele>394</ele>
        <time>2013-09-27T13:39:11.000Z</time>
      </trkpt>
      <trkpt lat="48.77206" lon="7.34391">
        <ele>394.20001220703</ele>
        <time>2013-09-27T13:39:13.000Z</time>
      </trkpt>
      <trkpt lat="48.77182" lon="7.34387">
        <ele>394.60000610352</ele>
        <time>2013-09-27T13:39:18.000Z</time>
      </trkpt>
      <trkpt lat="48.77135" lon="7.3438">
        <ele>394.60000610352</ele>
        <time>2013-09-27T13:39:27.000Z</time>
      </trkpt>
      <trkpt lat="48.77125" lon="7.34377">
        <ele>395</ele>
        <time>2013-09-27T13:39:29.000Z</time>
      </trkpt>
      <trkpt lat="48.77109" lon="7.34374">
        <ele>395.20001220703</ele>
        <time>2013-09-27T13:39:32.000Z</time>
      </trkpt>
      <trkpt lat="48.77077" lon="7.34366">
        <ele>395</ele>
        <time>2013-09-27T13:39:38.000Z</time>
      </trkpt>
      <trkpt lat="48.77009" lon="7.34344">
        <ele>393.60000610352</ele>
        <time>2013-09-27T13:39:50.000Z</time>
      </trkpt>
      <trkpt lat="48.76962" lon="7.34313">
        <ele>393</ele>
        <time>2013-09-27T13:39:59.000Z</time>
      </trkpt>
      <trkpt lat="48.76885" lon="7.34261">
        <ele>393.20001220703</ele>
        <time>2013-09-27T13:40:13.000Z</time>
      </trkpt>
      <trkpt lat="48.76858" lon="7.34242">
        <ele>393.20001220703</ele>
        <time>2013-09-27T13:40:19.000Z</time>
      </trkpt>
      <trkpt lat="48.76836" lon="7.34233">
        <ele>392.60000610352</ele>
        <time>2013-09-27T13:40:23.000Z</time>
      </trkpt>
      <trkpt lat="48.76801" lon="7.3425">
        <ele>390.60000610352</ele>
        <time>2013-09-27T13:40:29.000Z</time>
      </trkpt>
      <trkpt lat="48.76724" lon="7.34343">
        <ele>388.60000610352</ele>
        <time>2013-09-27T13:40:41.000Z</time>
      </trkpt>
      <trkpt lat="48.76665" lon="7.34409">
        <ele>389.60000610352</ele>
        <time>2013-09-27T13:40:51.000Z</time>
      </trkpt>
      <trkpt lat="48.7665" lon="7.34433">
        <ele>389.60000610352</ele>
        <time>2013-09-27T13:40:54.000Z</time>
      </trkpt>
      <trkpt lat="48.7664" lon="7.3447">
        <ele>389.20001220703</ele>
        <time>2013-09-27T13:40:58.000Z</time>
      </trkpt>
      <trkpt lat="48.76633" lon="7.34497">
        <ele>389.60000610352</ele>
        <time>2013-09-27T13:41:01.000Z</time>
      </trkpt>
      <trkpt lat="48.76631" lon="7.34545">
        <ele>390.60000610352</ele>
        <time>2013-09-27T13:41:06.000Z</time>
      </trkpt>
      <trkpt lat="48.76639" lon="7.34596">
        <ele>390</ele>
        <time>2013-09-27T13:41:11.000Z</time>
      </trkpt>
      <trkpt lat="48.76674" lon="7.34701">
        <ele>389.20001220703</ele>
        <time>2013-09-27T13:41:23.000Z</time>
      </trkpt>
      <trkpt lat="48.76698" lon="7.34774">
        <ele>388.20001220703</ele>
        <time>2013-09-27T13:41:36.000Z</time>
      </trkpt>
      <trkpt lat="48.76719" lon="7.34812">
        <ele>385.60000610352</ele>
        <time>2013-09-27T13:41:46.000Z</time>
      </trkpt>
      <trkpt lat="48.7672" lon="7.34814">
        <ele>385.60000610352</ele>
        <time>2013-09-27T13:41:48.000Z</time>
      </trkpt>
      <trkpt lat="48.76711" lon="7.34822">
        <ele>384.60000610352</ele>
        <time>2013-09-27T13:41:55.000Z</time>
      </trkpt>
      <trkpt lat="48.76707" lon="7.3483">
        <ele>384.60000610352</ele>
        <time>2013-09-27T13:42:13.000Z</time>
      </trkpt>
      <trkpt lat="48.76702" lon="7.34838">
        <ele>384.60000610352</ele>
        <time>2013-09-27T13:42:39.000Z</time>
      </trkpt>
      <trkpt lat="48.76699" lon="7.34841">
        <ele>384.60000610352</ele>
        <time>2013-09-27T13:43:06.000Z</time>
      </trkpt>
      <trkpt lat="48.76698" lon="7.3484">
        <ele>384.60000610352</ele>
        <time>2013-09-27T13:43:31.000Z</time>
      </trkpt>
      <trkpt lat="48.76699" lon="7.3484">
        <ele>384.60000610352</ele>
        <time>2013-09-27T13:43:55.000Z</time>
      </trkpt>
      <trkpt lat="48.76697" lon="7.34843">
        <ele>384.60000610352</ele>
        <time>2013-09-27T13:44:25.000Z</time>
      </trkpt>
      <trkpt lat="48.76698" lon="7.34842">
        <ele>384.60000610352</ele>
        <time>2013-09-27T13:44:55.000Z</time>
      </trkpt>
      <trkpt lat="48.76698" lon="7.34841">
        <ele>384.60000610352</ele>
        <time>2013-09-27T13:45:25.000Z</time>
      </trkpt>
      <trkpt lat="48.767" lon="7.34844">
        <ele>384</ele>
        <time>2013-09-27T13:45:51.000Z</time>
      </trkpt>
      <trkpt lat="48.767" lon="7.34838">
        <ele>384.20001220703</ele>
        <time>2013-09-27T13:46:07.000Z</time>
      </trkpt>
      <trkpt lat="48.76709" lon="7.34827">
        <ele>385.20001220703</ele>
        <time>2013-09-27T13:46:28.000Z</time>
      </trkpt>
      <trkpt lat="48.76712" lon="7.34827">
        <ele>385.60000610352</ele>
        <time>2013-09-27T13:46:46.000Z</time>
      </trkpt>
      <trkpt lat="48.76716" lon="7.34826">
        <ele>386</ele>
        <time>2013-09-27T13:47:01.000Z</time>
      </trkpt>
      <trkpt lat="48.76722" lon="7.34833">
        <ele>385.20001220703</ele>
        <time>2013-09-27T13:47:29.000Z</time>
      </trkpt>
      <trkpt lat="48.7675" lon="7.34857">
        <ele>383.60000610352</ele>
        <time>2013-09-27T13:47:42.000Z</time>
      </trkpt>
      <trkpt lat="48.76766" lon="7.34868">
        <ele>383.20001220703</ele>
        <time>2013-09-27T13:47:47.000Z</time>
      </trkpt>
      <trkpt lat="48.76824" lon="7.34899">
        <ele>383</ele>
        <time>2013-09-27T13:48:01.000Z</time>
      </trkpt>
      <trkpt lat="48.76828" lon="7.34901">
        <ele>383.20001220703</ele>
        <time>2013-09-27T13:48:02.000Z</time>
      </trkpt>
      <trkpt lat="48.76845" lon="7.34909">
        <ele>383</ele>
        <time>2013-09-27T13:48:06.000Z</time>
      </trkpt>
      <trkpt lat="48.76889" lon="7.34951">
        <ele>383.20001220703</ele>
        <time>2013-09-27T13:48:17.000Z</time>
      </trkpt>
      <trkpt lat="48.76932" lon="7.35">
        <ele>385.20001220703</ele>
        <time>2013-09-27T13:48:31.000Z</time>
      </trkpt>
      <trkpt lat="48.76953" lon="7.3502">
        <ele>386</ele>
        <time>2013-09-27T13:48:39.000Z</time>
      </trkpt>
      <trkpt lat="48.76981" lon="7.35048">
        <ele>387.60000610352</ele>
        <time>2013-09-27T13:48:51.000Z</time>
      </trkpt>
      <trkpt lat="48.77021" lon="7.35084">
        <ele>388</ele>
        <time>2013-09-27T13:49:02.000Z</time>
      </trkpt>
      <trkpt lat="48.77025" lon="7.35087">
        <ele>388</ele>
        <time>2013-09-27T13:49:03.000Z</time>
      </trkpt>
      <trkpt lat="48.77075" lon="7.35092">
        <ele>388.60000610352</ele>
        <time>2013-09-27T13:49:16.000Z</time>
      </trkpt>
      <trkpt lat="48.77109" lon="7.35091">
        <ele>390.20001220703</ele>
        <time>2013-09-27T13:49:28.000Z</time>
      </trkpt>
      <trkpt lat="48.77133" lon="7.35084">
        <ele>390.20001220703</ele>
        <time>2013-09-27T13:49:35.000Z</time>
      </trkpt>
      <trkpt lat="48.77159" lon="7.35074">
        <ele>390</ele>
        <time>2013-09-27T13:49:41.000Z</time>
      </trkpt>
      <trkpt lat="48.77189" lon="7.35091">
        <ele>390.20001220703</ele>
        <time>2013-09-27T13:49:51.000Z</time>
      </trkpt>
      <trkpt lat="48.772" lon="7.35147">
        <ele>390.60000610352</ele>
        <time>2013-09-27T13:50:02.000Z</time>
      </trkpt>
      <trkpt lat="48.7721" lon="7.35198">
        <ele>390.60000610352</ele>
        <time>2013-09-27T13:50:09.000Z</time>
      </trkpt>
      <trkpt lat="48.77219" lon="7.35274">
        <ele>389.60000610352</ele>
        <time>2013-09-27T13:50:17.000Z</time>
      </trkpt>
      <trkpt lat="48.77203" lon="7.35387">
        <ele>386.60000610352</ele>
        <time>2013-09-27T13:50:29.000Z</time>
      </trkpt>
      <trkpt lat="48.772" lon="7.35397">
        <ele>386.20001220703</ele>
        <time>2013-09-27T13:50:30.000Z</time>
      </trkpt>
      <trkpt lat="48.77191" lon="7.35432">
        <ele>384.60000610352</ele>
        <time>2013-09-27T13:50:33.000Z</time>
      </trkpt>
      <trkpt lat="48.77182" lon="7.355">
        <ele>381</ele>
        <time>2013-09-27T13:50:38.000Z</time>
      </trkpt>
      <trkpt lat="48.77178" lon="7.35526">
        <ele>379.60000610352</ele>
        <time>2013-09-27T13:50:40.000Z</time>
      </trkpt>
      <trkpt lat="48.77191" lon="7.35596">
        <ele>376.20001220703</ele>
        <time>2013-09-27T13:50:45.000Z</time>
      </trkpt>
      <trkpt lat="48.77214" lon="7.35639">
        <ele>375</ele>
        <time>2013-09-27T13:50:49.000Z</time>
      </trkpt>
      <trkpt lat="48.77243" lon="7.35704">
        <ele>374.20001220703</ele>
        <time>2013-09-27T13:50:55.000Z</time>
      </trkpt>
      <trkpt lat="48.77268" lon="7.35764">
        <ele>373.60000610352</ele>
        <time>2013-09-27T13:51:02.000Z</time>
      </trkpt>
      <trkpt lat="48.77276" lon="7.35789">
        <ele>373.60000610352</ele>
        <time>2013-09-27T13:51:05.000Z</time>
      </trkpt>
      <trkpt lat="48.77287" lon="7.35828">
        <ele>373.20001220703</ele>
        <time>2013-09-27T13:51:10.000Z</time>
      </trkpt>
      <trkpt lat="48.77301" lon="7.35853">
        <ele>373</ele>
        <time>2013-09-27T13:51:16.000Z</time>
      </trkpt>
      <trkpt lat="48.77327" lon="7.35904">
        <ele>372.20001220703</ele>
        <time>2013-09-27T13:51:29.000Z</time>
      </trkpt>
      <trkpt lat="48.77334" lon="7.35918">
        <ele>373.20001220703</ele>
        <time>2013-09-27T13:51:33.000Z</time>
      </trkpt>
      <trkpt lat="48.7734" lon="7.35928">
        <ele>374</ele>
        <time>2013-09-27T13:51:37.000Z</time>
      </trkpt>
      <trkpt lat="48.77355" lon="7.35941">
        <ele>375.60000610352</ele>
        <time>2013-09-27T13:51:45.000Z</time>
      </trkpt>
      <trkpt lat="48.7737" lon="7.35967">
        <ele>376.60000610352</ele>
        <time>2013-09-27T13:51:58.000Z</time>
      </trkpt>
      <trkpt lat="48.77392" lon="7.35998">
        <ele>379.60000610352</ele>
        <time>2013-09-27T13:52:19.000Z</time>
      </trkpt>
      <trkpt lat="48.77405" lon="7.36025">
        <ele>380.20001220703</ele>
        <time>2013-09-27T13:52:29.000Z</time>
      </trkpt>
      <trkpt lat="48.77425" lon="7.36068">
        <ele>381</ele>
        <time>2013-09-27T13:52:42.000Z</time>
      </trkpt>
      <trkpt lat="48.77435" lon="7.36079">
        <ele>381.60000610352</ele>
        <time>2013-09-27T13:52:48.000Z</time>
      </trkpt>
      <trkpt lat="48.77446" lon="7.36099">
        <ele>382.20001220703</ele>
        <time>2013-09-27T13:52:55.000Z</time>
      </trkpt>
      <trkpt lat="48.77464" lon="7.36133">
        <ele>382.60000610352</ele>
        <time>2013-09-27T13:53:09.000Z</time>
      </trkpt>
      <trkpt lat="48.77466" lon="7.36136">
        <ele>382.60000610352</ele>
        <time>2013-09-27T13:53:11.000Z</time>
      </trkpt>
      <trkpt lat="48.77475" lon="7.36149">
        <ele>382.60000610352</ele>
        <time>2013-09-27T13:53:18.000Z</time>
      </trkpt>
      <trkpt lat="48.77483" lon="7.36189">
        <ele>382</ele>
        <time>2013-09-27T13:53:29.000Z</time>
      </trkpt>
      <trkpt lat="48.77494" lon="7.3623">
        <ele>382.60000610352</ele>
        <time>2013-09-27T13:53:42.000Z</time>
      </trkpt>
      <trkpt lat="48.77497" lon="7.36239">
        <ele>382.60000610352</ele>
        <time>2013-09-27T13:53:59.000Z</time>
      </trkpt>
      <trkpt lat="48.77495" lon="7.36243">
        <ele>383</ele>
        <time>2013-09-27T13:54:33.000Z</time>
      </trkpt>
      <trkpt lat="48.77497" lon="7.36244">
        <ele>383</ele>
        <time>2013-09-27T13:54:49.000Z</time>
      </trkpt>
      <trkpt lat="48.77504" lon="7.36247">
        <ele>383.20001220703</ele>
        <time>2013-09-27T13:54:53.000Z</time>
      </trkpt>
      <trkpt lat="48.77518" lon="7.3627">
        <ele>380.20001220703</ele>
        <time>2013-09-27T13:55:02.000Z</time>
      </trkpt>
      <trkpt lat="48.7752" lon="7.363">
        <ele>378.20001220703</ele>
        <time>2013-09-27T13:55:07.000Z</time>
      </trkpt>
      <trkpt lat="48.77525" lon="7.36323">
        <ele>376.60000610352</ele>
        <time>2013-09-27T13:55:10.000Z</time>
      </trkpt>
      <trkpt lat="48.77532" lon="7.36338">
        <ele>376.20001220703</ele>
        <time>2013-09-27T13:55:12.000Z</time>
      </trkpt>
      <trkpt lat="48.77555" lon="7.3638">
        <ele>374.60000610352</ele>
        <time>2013-09-27T13:55:22.000Z</time>
      </trkpt>
      <trkpt lat="48.77559" lon="7.36385">
        <ele>375</ele>
        <time>2013-09-27T13:55:34.000Z</time>
      </trkpt>
      <trkpt lat="48.77559" lon="7.36388">
        <ele>373.60000610352</ele>
        <time>2013-09-27T13:56:04.000Z</time>
      </trkpt>
      <trkpt lat="48.77559" lon="7.36388">
        <ele>373.60000610352</ele>
        <time>2013-09-27T13:56:59.000Z</time>
      </trkpt>
      <trkpt lat="48.77559" lon="7.36388">
        <ele>374.20001220703</ele>
        <time>2013-09-27T13:59:00.000Z</time>
      </trkpt>
      <trkpt lat="48.77559" lon="7.36389">
        <ele>374.20001220703</ele>
        <time>2013-09-27T14:00:38.000Z</time>
      </trkpt>
      <trkpt lat="48.77559" lon="7.36389">
        <ele>375.20001220703</ele>
        <time>2013-09-27T14:01:17.000Z</time>
      </trkpt>
      <trkpt lat="48.77559" lon="7.36389">
        <ele>375.20001220703</ele>
        <time>2013-09-27T14:01:25.000Z</time>
      </trkpt>
      <trkpt lat="48.77555" lon="7.36387">
        <ele>375.60000610352</ele>
        <time>2013-09-27T14:01:29.000Z</time>
      </trkpt>
      <trkpt lat="48.77553" lon="7.36389">
        <ele>375.20001220703</ele>
        <time>2013-09-27T14:01:43.000Z</time>
      </trkpt>
      <trkpt lat="48.77538" lon="7.3637">
        <ele>375.20001220703</ele>
        <time>2013-09-27T14:01:59.000Z</time>
      </trkpt>
      <trkpt lat="48.77518" lon="7.36343">
        <ele>376</ele>
        <time>2013-09-27T14:02:10.000Z</time>
      </trkpt>
      <trkpt lat="48.77524" lon="7.36313">
        <ele>378.20001220703</ele>
        <time>2013-09-27T14:02:18.000Z</time>
      </trkpt>
      <trkpt lat="48.77528" lon="7.36288">
        <ele>379.60000610352</ele>
        <time>2013-09-27T14:02:27.000Z</time>
      </trkpt>
      <trkpt lat="48.77529" lon="7.36266">
        <ele>379.20001220703</ele>
        <time>2013-09-27T14:02:33.000Z</time>
      </trkpt>
      <trkpt lat="48.77523" lon="7.36252">
        <ele>379.20001220703</ele>
        <time>2013-09-27T14:02:38.000Z</time>
      </trkpt>
      <trkpt lat="48.77527" lon="7.36205">
        <ele>378.60000610352</ele>
        <time>2013-09-27T14:02:51.000Z</time>
      </trkpt>
      <trkpt lat="48.77529" lon="7.36189">
        <ele>378.20001220703</ele>
        <time>2013-09-27T14:02:54.000Z</time>
      </trkpt>
      <trkpt lat="48.77535" lon="7.36154">
        <ele>377</ele>
        <time>2013-09-27T14:03:01.000Z</time>
      </trkpt>
      <trkpt lat="48.77538" lon="7.36127">
        <ele>376</ele>
        <time>2013-09-27T14:03:04.000Z</time>
      </trkpt>
      <trkpt lat="48.77533" lon="7.36057">
        <ele>374.60000610352</ele>
        <time>2013-09-27T14:03:10.000Z</time>
      </trkpt>
      <trkpt lat="48.77533" lon="7.35997">
        <ele>373.60000610352</ele>
        <time>2013-09-27T14:03:15.000Z</time>
      </trkpt>
      <trkpt lat="48.77534" lon="7.35979">
        <ele>373.20001220703</ele>
        <time>2013-09-27T14:03:17.000Z</time>
      </trkpt>
      <trkpt lat="48.7754" lon="7.35955">
        <ele>373.20001220703</ele>
        <time>2013-09-27T14:03:19.000Z</time>
      </trkpt>
      <trkpt lat="48.77553" lon="7.35908">
        <ele>372.20001220703</ele>
        <time>2013-09-27T14:03:23.000Z</time>
      </trkpt>
      <trkpt lat="48.77558" lon="7.35874">
        <ele>372</ele>
        <time>2013-09-27T14:03:26.000Z</time>
      </trkpt>
      <trkpt lat="48.77586" lon="7.35758">
        <ele>370.20001220703</ele>
        <time>2013-09-27T14:03:38.000Z</time>
      </trkpt>
      <trkpt lat="48.77596" lon="7.35711">
        <ele>369.20001220703</ele>
        <time>2013-09-27T14:03:47.000Z</time>
      </trkpt>
      <trkpt lat="48.77594" lon="7.35663">
        <ele>368.60000610352</ele>
        <time>2013-09-27T14:03:53.000Z</time>
      </trkpt>
      <trkpt lat="48.77608" lon="7.35588">
        <ele>367.20001220703</ele>
        <time>2013-09-27T14:04:05.000Z</time>
      </trkpt>
      <trkpt lat="48.77611" lon="7.35574">
        <ele>367.20001220703</ele>
        <time>2013-09-27T14:04:08.000Z</time>
      </trkpt>
      <trkpt lat="48.77622" lon="7.35545">
        <ele>365.60000610352</ele>
        <time>2013-09-27T14:04:13.000Z</time>
      </trkpt>
      <trkpt lat="48.7763" lon="7.35528">
        <ele>364.60000610352</ele>
        <time>2013-09-27T14:04:15.000Z</time>
      </trkpt>
      <trkpt lat="48.77642" lon="7.35491">
        <ele>362.20001220703</ele>
        <time>2013-09-27T14:04:19.000Z</time>
      </trkpt>
      <trkpt lat="48.77659" lon="7.35466">
        <ele>358</ele>
        <time>2013-09-27T14:04:26.000Z</time>
      </trkpt>
      <trkpt lat="48.77669" lon="7.35457">
        <ele>354.60000610352</ele>
        <time>2013-09-27T14:04:31.000Z</time>
      </trkpt>
      <trkpt lat="48.77671" lon="7.35453">
        <ele>353.20001220703</ele>
        <time>2013-09-27T14:04:42.000Z</time>
      </trkpt>
      <trkpt lat="48.77676" lon="7.35448">
        <ele>353.20001220703</ele>
        <time>2013-09-27T14:05:13.000Z</time>
      </trkpt>
      <trkpt lat="48.77681" lon="7.35446">
        <ele>353.60000610352</ele>
        <time>2013-09-27T14:05:44.000Z</time>
      </trkpt>
      <trkpt lat="48.7768" lon="7.35447">
        <ele>353</ele>
        <time>2013-09-27T14:05:58.000Z</time>
      </trkpt>
      <trkpt lat="48.77677" lon="7.35471">
        <ele>349.60000610352</ele>
        <time>2013-09-27T14:06:03.000Z</time>
      </trkpt>
      <trkpt lat="48.77676" lon="7.35472">
        <ele>348.60000610352</ele>
        <time>2013-09-27T14:06:15.000Z</time>
      </trkpt>
      <trkpt lat="48.77674" lon="7.35483">
        <ele>347.60000610352</ele>
        <time>2013-09-27T14:06:26.000Z</time>
      </trkpt>
      <trkpt lat="48.77691" lon="7.35475">
        <ele>344.20001220703</ele>
        <time>2013-09-27T14:06:31.000Z</time>
      </trkpt>
      <trkpt lat="48.77695" lon="7.35473">
        <ele>343</ele>
        <time>2013-09-27T14:06:32.000Z</time>
      </trkpt>
      <trkpt lat="48.77704" lon="7.3547">
        <ele>340.60000610352</ele>
        <time>2013-09-27T14:06:35.000Z</time>
      </trkpt>
      <trkpt lat="48.77699" lon="7.35527">
        <ele>336.20001220703</ele>
        <time>2013-09-27T14:06:42.000Z</time>
      </trkpt>
      <trkpt lat="48.77697" lon="7.3554">
        <ele>334</ele>
        <time>2013-09-27T14:06:44.000Z</time>
      </trkpt>
      <trkpt lat="48.77714" lon="7.35533">
        <ele>329.60000610352</ele>
        <time>2013-09-27T14:06:49.000Z</time>
      </trkpt>
      <trkpt lat="48.77724" lon="7.35531">
        <ele>325.60000610352</ele>
        <time>2013-09-27T14:06:52.000Z</time>
      </trkpt>
      <trkpt lat="48.77727" lon="7.35543">
        <ele>322.60000610352</ele>
        <time>2013-09-27T14:06:55.000Z</time>
      </trkpt>
      <trkpt lat="48.7773" lon="7.35544">
        <ele>321</ele>
        <time>2013-09-27T14:06:58.000Z</time>
      </trkpt>
      <trkpt lat="48.77735" lon="7.35541">
        <ele>320.20001220703</ele>
        <time>2013-09-27T14:07:01.000Z</time>
      </trkpt>
      <trkpt lat="48.77739" lon="7.3555">
        <ele>321</ele>
        <time>2013-09-27T14:07:10.000Z</time>
      </trkpt>
      <trkpt lat="48.77739" lon="7.35551">
        <ele>320.20001220703</ele>
        <time>2013-09-27T14:07:27.000Z</time>
      </trkpt>
      <trkpt lat="48.77738" lon="7.35554">
        <ele>320.20001220703</ele>
        <time>2013-09-27T14:07:45.000Z</time>
      </trkpt>
      <trkpt lat="48.77738" lon="7.35555">
        <ele>320.20001220703</ele>
        <time>2013-09-27T14:08:05.000Z</time>
      </trkpt>
      <trkpt lat="48.77735" lon="7.35558">
        <ele>320.20001220703</ele>
        <time>2013-09-27T14:08:36.000Z</time>
      </trkpt>
      <trkpt lat="48.77732" lon="7.35559">
        <ele>320</ele>
        <time>2013-09-27T14:09:09.000Z</time>
      </trkpt>
      <trkpt lat="48.77735" lon="7.35562">
        <ele>321</ele>
        <time>2013-09-27T14:09:36.000Z</time>
      </trkpt>
      <trkpt lat="48.77736" lon="7.35564">
        <ele>321.20001220703</ele>
        <time>2013-09-27T14:09:49.000Z</time>
      </trkpt>
      <trkpt lat="48.77746" lon="7.35574">
        <ele>321.20001220703</ele>
        <time>2013-09-27T14:09:54.000Z</time>
      </trkpt>
      <trkpt lat="48.77763" lon="7.3561">
        <ele>321.60000610352</ele>
        <time>2013-09-27T14:10:07.000Z</time>
      </trkpt>
      <trkpt lat="48.77772" lon="7.35667">
        <ele>320.20001220703</ele>
        <time>2013-09-27T14:10:19.000Z</time>
      </trkpt>
      <trkpt lat="48.77782" lon="7.35717">
        <ele>319.20001220703</ele>
        <time>2013-09-27T14:10:29.000Z</time>
      </trkpt>
      <trkpt lat="48.77795" lon="7.35765">
        <ele>320.20001220703</ele>
        <time>2013-09-27T14:10:39.000Z</time>
      </trkpt>
      <trkpt lat="48.77812" lon="7.35834">
        <ele>321.20001220703</ele>
        <time>2013-09-27T14:10:50.000Z</time>
      </trkpt>
      <trkpt lat="48.77819" lon="7.35907">
        <ele>322</ele>
        <time>2013-09-27T14:11:01.000Z</time>
      </trkpt>
      <trkpt lat="48.77833" lon="7.35975">
        <ele>320.60000610352</ele>
        <time>2013-09-27T14:11:13.000Z</time>
      </trkpt>
      <trkpt lat="48.77839" lon="7.3603">
        <ele>319.60000610352</ele>
        <time>2013-09-27T14:11:20.000Z</time>
      </trkpt>
      <trkpt lat="48.77856" lon="7.36094">
        <ele>319</ele>
        <time>2013-09-27T14:11:27.000Z</time>
      </trkpt>
      <trkpt lat="48.77869" lon="7.36159">
        <ele>319.20001220703</ele>
        <time>2013-09-27T14:11:38.000Z</time>
      </trkpt>
      <trkpt lat="48.77878" lon="7.36221">
        <ele>320.20001220703</ele>
        <time>2013-09-27T14:11:50.000Z</time>
      </trkpt>
      <trkpt lat="48.77886" lon="7.36281">
        <ele>319.60000610352</ele>
        <time>2013-09-27T14:12:00.000Z</time>
      </trkpt>
      <trkpt lat="48.77898" lon="7.36358">
        <ele>319.20001220703</ele>
        <time>2013-09-27T14:12:12.000Z</time>
      </trkpt>
      <trkpt lat="48.77899" lon="7.36387">
        <ele>318.60000610352</ele>
        <time>2013-09-27T14:12:16.000Z</time>
      </trkpt>
      <trkpt lat="48.77902" lon="7.36414">
        <ele>318.60000610352</ele>
        <time>2013-09-27T14:12:19.000Z</time>
      </trkpt>
      <trkpt lat="48.77895" lon="7.36493">
        <ele>316.20001220703</ele>
        <time>2013-09-27T14:12:29.000Z</time>
      </trkpt>
      <trkpt lat="48.77891" lon="7.36545">
        <ele>315</ele>
        <time>2013-09-27T14:12:35.000Z</time>
      </trkpt>
      <trkpt lat="48.77884" lon="7.36613">
        <ele>312.60000610352</ele>
        <time>2013-09-27T14:12:43.000Z</time>
      </trkpt>
      <trkpt lat="48.77881" lon="7.3663">
        <ele>312.20001220703</ele>
        <time>2013-09-27T14:12:45.000Z</time>
      </trkpt>
      <trkpt lat="48.77873" lon="7.36719">
        <ele>309.60000610352</ele>
        <time>2013-09-27T14:12:54.000Z</time>
      </trkpt>
      <trkpt lat="48.77869" lon="7.36755">
        <ele>308.60000610352</ele>
        <time>2013-09-27T14:12:58.000Z</time>
      </trkpt>
      <trkpt lat="48.77866" lon="7.36787">
        <ele>307.20001220703</ele>
        <time>2013-09-27T14:13:02.000Z</time>
      </trkpt>
      <trkpt lat="48.77865" lon="7.36804">
        <ele>306.60000610352</ele>
        <time>2013-09-27T14:13:04.000Z</time>
      </trkpt>
      <trkpt lat="48.77865" lon="7.36823">
        <ele>306</ele>
        <time>2013-09-27T14:13:06.000Z</time>
      </trkpt>
      <trkpt lat="48.77867" lon="7.36875">
        <ele>303.20001220703</ele>
        <time>2013-09-27T14:13:16.000Z</time>
      </trkpt>
      <trkpt lat="48.77886" lon="7.36941">
        <ele>301.60000610352</ele>
        <time>2013-09-27T14:13:28.000Z</time>
      </trkpt>
      <trkpt lat="48.7789" lon="7.36988">
        <ele>299</ele>
        <time>2013-09-27T14:13:38.000Z</time>
      </trkpt>
      <trkpt lat="48.77892" lon="7.36997">
        <ele>299</ele>
        <time>2013-09-27T14:13:57.000Z</time>
      </trkpt>
      <trkpt lat="48.77893" lon="7.37004">
        <ele>299</ele>
        <time>2013-09-27T14:14:27.000Z</time>
      </trkpt>
      <trkpt lat="48.77889" lon="7.3701">
        <ele>299</ele>
        <time>2013-09-27T14:15:00.000Z</time>
      </trkpt>
      <trkpt lat="48.77882" lon="7.36985">
        <ele>301.20001220703</ele>
        <time>2013-09-27T14:15:09.000Z</time>
      </trkpt>
      <trkpt lat="48.77879" lon="7.36928">
        <ele>304.60000610352</ele>
        <time>2013-09-27T14:15:19.000Z</time>
      </trkpt>
      <trkpt lat="48.7788" lon="7.36879">
        <ele>306.60000610352</ele>
        <time>2013-09-27T14:15:27.000Z</time>
      </trkpt>
      <trkpt lat="48.77888" lon="7.36807">
        <ele>308.60000610352</ele>
        <time>2013-09-27T14:15:38.000Z</time>
      </trkpt>
      <trkpt lat="48.77891" lon="7.36725">
        <ele>311.20001220703</ele>
        <time>2013-09-27T14:15:51.000Z</time>
      </trkpt>
      <trkpt lat="48.77899" lon="7.36651">
        <ele>312.60000610352</ele>
        <time>2013-09-27T14:16:02.000Z</time>
      </trkpt>
      <trkpt lat="48.779" lon="7.36594">
        <ele>315.20001220703</ele>
        <time>2013-09-27T14:16:13.000Z</time>
      </trkpt>
      <trkpt lat="48.779" lon="7.36506">
        <ele>318.20001220703</ele>
        <time>2013-09-27T14:16:28.000Z</time>
      </trkpt>
      <trkpt lat="48.77894" lon="7.36431">
        <ele>319.20001220703</ele>
        <time>2013-09-27T14:16:39.000Z</time>
      </trkpt>
      <trkpt lat="48.77882" lon="7.36357">
        <ele>320.20001220703</ele>
        <time>2013-09-27T14:16:49.000Z</time>
      </trkpt>
      <trkpt lat="48.77878" lon="7.36343">
        <ele>320.60000610352</ele>
        <time>2013-09-27T14:16:51.000Z</time>
      </trkpt>
      <trkpt lat="48.77874" lon="7.3633">
        <ele>320.60000610352</ele>
        <time>2013-09-27T14:16:53.000Z</time>
      </trkpt>
      <trkpt lat="48.77871" lon="7.36295">
        <ele>320.60000610352</ele>
        <time>2013-09-27T14:16:57.000Z</time>
      </trkpt>
      <trkpt lat="48.77845" lon="7.3618">
        <ele>319.20001220703</ele>
        <time>2013-09-27T14:17:10.000Z</time>
      </trkpt>
      <trkpt lat="48.77841" lon="7.36162">
        <ele>319.20001220703</ele>
        <time>2013-09-27T14:17:12.000Z</time>
      </trkpt>
      <trkpt lat="48.77836" lon="7.36115">
        <ele>320</ele>
        <time>2013-09-27T14:17:17.000Z</time>
      </trkpt>
      <trkpt lat="48.77827" lon="7.36051">
        <ele>321</ele>
        <time>2013-09-27T14:17:24.000Z</time>
      </trkpt>
      <trkpt lat="48.77832" lon="7.35997">
        <ele>321.60000610352</ele>
        <time>2013-09-27T14:17:33.000Z</time>
      </trkpt>
      <trkpt lat="48.77833" lon="7.35995">
        <ele>321.60000610352</ele>
        <time>2013-09-27T14:17:56.000Z</time>
      </trkpt>
      <trkpt lat="48.77835" lon="7.35991">
        <ele>321</ele>
        <time>2013-09-27T14:18:27.000Z</time>
      </trkpt>
      <trkpt lat="48.77837" lon="7.35988">
        <ele>321</ele>
        <time>2013-09-27T14:18:54.000Z</time>
      </trkpt>
      <trkpt lat="48.77841" lon="7.35986">
        <ele>321</ele>
        <time>2013-09-27T14:19:27.000Z</time>
      </trkpt>
      <trkpt lat="48.77843" lon="7.35981">
        <ele>321</ele>
        <time>2013-09-27T14:20:03.000Z</time>
      </trkpt>
      <trkpt lat="48.77843" lon="7.35977">
        <ele>321</ele>
        <time>2013-09-27T14:20:37.000Z</time>
      </trkpt>
      <trkpt lat="48.77843" lon="7.35977">
        <ele>321</ele>
        <time>2013-09-27T14:21:11.000Z</time>
      </trkpt>
      <trkpt lat="48.77841" lon="7.35975">
        <ele>321.20001220703</ele>
        <time>2013-09-27T14:21:44.000Z</time>
      </trkpt>
      <trkpt lat="48.77841" lon="7.35971">
        <ele>321.20001220703</ele>
        <time>2013-09-27T14:22:16.000Z</time>
      </trkpt>
      <trkpt lat="48.77842" lon="7.3597">
        <ele>321.20001220703</ele>
        <time>2013-09-27T14:22:47.000Z</time>
      </trkpt>
      <trkpt lat="48.77843" lon="7.35971">
        <ele>321.20001220703</ele>
        <time>2013-09-27T14:23:20.000Z</time>
      </trkpt>
      <trkpt lat="48.77843" lon="7.35974">
        <ele>321.20001220703</ele>
        <time>2013-09-27T14:23:53.000Z</time>
      </trkpt>
      <trkpt lat="48.77843" lon="7.35973">
        <ele>321.60000610352</ele>
        <time>2013-09-27T14:24:26.000Z</time>
      </trkpt>
      <trkpt lat="48.77842" lon="7.35971">
        <ele>321.60000610352</ele>
        <time>2013-09-27T14:24:55.000Z</time>
      </trkpt>
      <trkpt lat="48.77843" lon="7.3597">
        <ele>321.60000610352</ele>
        <time>2013-09-27T14:25:25.000Z</time>
      </trkpt>
      <trkpt lat="48.77841" lon="7.35972">
        <ele>321.60000610352</ele>
        <time>2013-09-27T14:25:54.000Z</time>
      </trkpt>
      <trkpt lat="48.77842" lon="7.35971">
        <ele>321.60000610352</ele>
        <time>2013-09-27T14:26:27.000Z</time>
      </trkpt>
      <trkpt lat="48.77845" lon="7.3597">
        <ele>321.60000610352</ele>
        <time>2013-09-27T14:26:56.000Z</time>
      </trkpt>
      <trkpt lat="48.77846" lon="7.3597">
        <ele>321.60000610352</ele>
        <time>2013-09-27T14:27:27.000Z</time>
      </trkpt>
      <trkpt lat="48.77845" lon="7.3597">
        <ele>321.60000610352</ele>
        <time>2013-09-27T14:27:58.000Z</time>
      </trkpt>
      <trkpt lat="48.77845" lon="7.35971">
        <ele>321.60000610352</ele>
        <time>2013-09-27T14:28:26.000Z</time>
      </trkpt>
      <trkpt lat="48.77848" lon="7.35972">
        <ele>321.60000610352</ele>
        <time>2013-09-27T14:28:59.000Z</time>
      </trkpt>
      <trkpt lat="48.77846" lon="7.35974">
        <ele>321.60000610352</ele>
        <time>2013-09-27T14:29:26.000Z</time>
      </trkpt>
      <trkpt lat="48.77845" lon="7.35975">
        <ele>321.20001220703</ele>
        <time>2013-09-27T14:29:58.000Z</time>
      </trkpt>
      <trkpt lat="48.77845" lon="7.35975">
        <ele>321.20001220703</ele>
        <time>2013-09-27T14:30:25.000Z</time>
      </trkpt>
      <trkpt lat="48.77843" lon="7.35978">
        <ele>321.20001220703</ele>
        <time>2013-09-27T14:30:56.000Z</time>
      </trkpt>
      <trkpt lat="48.77844" lon="7.3598">
        <ele>321.20001220703</ele>
        <time>2013-09-27T14:31:22.000Z</time>
      </trkpt>
      <trkpt lat="48.77843" lon="7.35983">
        <ele>322.20001220703</ele>
        <time>2013-09-27T14:31:46.000Z</time>
      </trkpt>
      <trkpt lat="48.77842" lon="7.35992">
        <ele>322.20001220703</ele>
        <time>2013-09-27T14:32:03.000Z</time>
      </trkpt>
      <trkpt lat="48.77846" lon="7.36005">
        <ele>322</ele>
        <time>2013-09-27T14:32:08.000Z</time>
      </trkpt>
      <trkpt lat="48.7786" lon="7.36059">
        <ele>320.20001220703</ele>
        <time>2013-09-27T14:32:20.000Z</time>
      </trkpt>
      <trkpt lat="48.77862" lon="7.36073">
        <ele>320.20001220703</ele>
        <time>2013-09-27T14:32:22.000Z</time>
      </trkpt>
      <trkpt lat="48.77866" lon="7.36103">
        <ele>319.60000610352</ele>
        <time>2013-09-27T14:32:26.000Z</time>
      </trkpt>
      <trkpt lat="48.77884" lon="7.36157">
        <ele>319.60000610352</ele>
        <time>2013-09-27T14:32:37.000Z</time>
      </trkpt>
      <trkpt lat="48.77891" lon="7.36218">
        <ele>320.20001220703</ele>
        <time>2013-09-27T14:32:47.000Z</time>
      </trkpt>
      <trkpt lat="48.77901" lon="7.36288">
        <ele>320.20001220703</ele>
        <time>2013-09-27T14:33:00.000Z</time>
      </trkpt>
      <trkpt lat="48.77904" lon="7.36341">
        <ele>320.20001220703</ele>
        <time>2013-09-27T14:33:11.000Z</time>
      </trkpt>
      <trkpt lat="48.77906" lon="7.36352">
        <ele>320</ele>
        <time>2013-09-27T14:33:13.000Z</time>
      </trkpt>
      <trkpt lat="48.77907" lon="7.36386">
        <ele>319.60000610352</ele>
        <time>2013-09-27T14:33:18.000Z</time>
      </trkpt>
      <trkpt lat="48.77902" lon="7.36444">
        <ele>318.20001220703</ele>
        <time>2013-09-27T14:33:26.000Z</time>
      </trkpt>
      <trkpt lat="48.77904" lon="7.36464">
        <ele>318.20001220703</ele>
        <time>2013-09-27T14:33:28.000Z</time>
      </trkpt>
      <trkpt lat="48.77899" lon="7.36504">
        <ele>316.60000610352</ele>
        <time>2013-09-27T14:33:33.000Z</time>
      </trkpt>
      <trkpt lat="48.77894" lon="7.3655">
        <ele>315.20001220703</ele>
        <time>2013-09-27T14:33:39.000Z</time>
      </trkpt>
      <trkpt lat="48.77888" lon="7.36588">
        <ele>314</ele>
        <time>2013-09-27T14:33:44.000Z</time>
      </trkpt>
      <trkpt lat="48.77882" lon="7.36614">
        <ele>313.20001220703</ele>
        <time>2013-09-27T14:33:47.000Z</time>
      </trkpt>
      <trkpt lat="48.7788" lon="7.36628">
        <ele>312.60000610352</ele>
        <time>2013-09-27T14:33:49.000Z</time>
      </trkpt>
      <trkpt lat="48.77865" lon="7.36723">
        <ele>309.60000610352</ele>
        <time>2013-09-27T14:34:00.000Z</time>
      </trkpt>
      <trkpt lat="48.77864" lon="7.36732">
        <ele>309.20001220703</ele>
        <time>2013-09-27T14:34:01.000Z</time>
      </trkpt>
      <trkpt lat="48.77863" lon="7.36756">
        <ele>308.20001220703</ele>
        <time>2013-09-27T14:34:04.000Z</time>
      </trkpt>
      <trkpt lat="48.77859" lon="7.36808">
        <ele>306.60000610352</ele>
        <time>2013-09-27T14:34:10.000Z</time>
      </trkpt>
      <trkpt lat="48.77863" lon="7.36848">
        <ele>303.60000610352</ele>
        <time>2013-09-27T14:34:17.000Z</time>
      </trkpt>
      <trkpt lat="48.77869" lon="7.3692">
        <ele>300.60000610352</ele>
        <time>2013-09-27T14:34:30.000Z</time>
      </trkpt>
      <trkpt lat="48.77891" lon="7.36981">
        <ele>299.20001220703</ele>
        <time>2013-09-27T14:34:43.000Z</time>
      </trkpt>
      <trkpt lat="48.77896" lon="7.37008">
        <ele>297.60000610352</ele>
        <time>2013-09-27T14:35:03.000Z</time>
      </trkpt>
      <trkpt lat="48.77902" lon="7.37029">
        <ele>299.20001220703</ele>
        <time>2013-09-27T14:35:13.000Z</time>
      </trkpt>
      <trkpt lat="48.77902" lon="7.37033">
        <ele>299.60000610352</ele>
        <time>2013-09-27T14:35:15.000Z</time>
      </trkpt>
      <trkpt lat="48.77914" lon="7.37067">
        <ele>301</ele>
        <time>2013-09-27T14:35:28.000Z</time>
      </trkpt>
      <trkpt lat="48.77921" lon="7.37081">
        <ele>301.20001220703</ele>
        <time>2013-09-27T14:35:32.000Z</time>
      </trkpt>
      <trkpt lat="48.77932" lon="7.37102">
        <ele>301.60000610352</ele>
        <time>2013-09-27T14:35:40.000Z</time>
      </trkpt>
      <trkpt lat="48.77966" lon="7.37154">
        <ele>301.60000610352</ele>
        <time>2013-09-27T14:35:54.000Z</time>
      </trkpt>
      <trkpt lat="48.78003" lon="7.37208">
        <ele>302.20001220703</ele>
        <time>2013-09-27T14:36:06.000Z</time>
      </trkpt>
      <trkpt lat="48.78022" lon="7.37234">
        <ele>302.60000610352</ele>
        <time>2013-09-27T14:36:18.000Z</time>
      </trkpt>
      <trkpt lat="48.78027" lon="7.37245">
        <ele>301.60000610352</ele>
        <time>2013-09-27T14:36:45.000Z</time>
      </trkpt>
      <trkpt lat="48.78029" lon="7.37246">
        <ele>302.60000610352</ele>
        <time>2013-09-27T14:37:16.000Z</time>
      </trkpt>
      <trkpt lat="48.7803" lon="7.37249">
        <ele>301.20001220703</ele>
        <time>2013-09-27T14:37:45.000Z</time>
      </trkpt>
      <trkpt lat="48.7803" lon="7.37251">
        <ele>302.60000610352</ele>
        <time>2013-09-27T14:38:13.000Z</time>
      </trkpt>
      <trkpt lat="48.78032" lon="7.37253">
        <ele>302.20001220703</ele>
        <time>2013-09-27T14:38:42.000Z</time>
      </trkpt>
      <trkpt lat="48.78029" lon="7.37253">
        <ele>302.60000610352</ele>
        <time>2013-09-27T14:39:11.000Z</time>
      </trkpt>
      <trkpt lat="48.78029" lon="7.37251">
        <ele>302.60000610352</ele>
        <time>2013-09-27T14:39:46.000Z</time>
      </trkpt>
      <trkpt lat="48.78029" lon="7.37248">
        <ele>302.60000610352</ele>
        <time>2013-09-27T14:40:18.000Z</time>
      </trkpt>
      <trkpt lat="48.78031" lon="7.37246">
        <ele>302.60000610352</ele>
        <time>2013-09-27T14:40:45.000Z</time>
      </trkpt>
      <trkpt lat="48.78032" lon="7.37253">
        <ele>302.60000610352</ele>
        <time>2013-09-27T14:41:16.000Z</time>
      </trkpt>
      <trkpt lat="48.7803" lon="7.37254">
        <ele>302.60000610352</ele>
        <time>2013-09-27T14:41:48.000Z</time>
      </trkpt>
      <trkpt lat="48.78031" lon="7.37252">
        <ele>302.60000610352</ele>
        <time>2013-09-27T14:42:12.000Z</time>
      </trkpt>
      <trkpt lat="48.78026" lon="7.37255">
        <ele>302.60000610352</ele>
        <time>2013-09-27T14:42:40.000Z</time>
      </trkpt>
      <trkpt lat="48.78019" lon="7.37252">
        <ele>302.60000610352</ele>
        <time>2013-09-27T14:42:45.000Z</time>
      </trkpt>
      <trkpt lat="48.77991" lon="7.37248">
        <ele>302.20001220703</ele>
        <time>2013-09-27T14:42:58.000Z</time>
      </trkpt>
      <trkpt lat="48.77962" lon="7.37232">
        <ele>302</ele>
        <time>2013-09-27T14:43:09.000Z</time>
      </trkpt>
      <trkpt lat="48.77933" lon="7.37183">
        <ele>301.60000610352</ele>
        <time>2013-09-27T14:43:21.000Z</time>
      </trkpt>
      <trkpt lat="48.77904" lon="7.37148">
        <ele>300.60000610352</ele>
        <time>2013-09-27T14:43:31.000Z</time>
      </trkpt>
      <trkpt lat="48.77891" lon="7.37123">
        <ele>297.20001220703</ele>
        <time>2013-09-27T14:43:39.000Z</time>
      </trkpt>
      <trkpt lat="48.77872" lon="7.37101">
        <ele>294.20001220703</ele>
        <time>2013-09-27T14:43:47.000Z</time>
      </trkpt>
      <trkpt lat="48.77857" lon="7.37069">
        <ele>291.20001220703</ele>
        <time>2013-09-27T14:43:53.000Z</time>
      </trkpt>
      <trkpt lat="48.77846" lon="7.3703">
        <ele>288.20001220703</ele>
        <time>2013-09-27T14:43:59.000Z</time>
      </trkpt>
      <trkpt lat="48.77841" lon="7.37011">
        <ele>285.60000610352</ele>
        <time>2013-09-27T14:44:09.000Z</time>
      </trkpt>
      <trkpt lat="48.77852" lon="7.36991">
        <ele>286.20001220703</ele>
        <time>2013-09-27T14:44:34.000Z</time>
      </trkpt>
      <trkpt lat="48.77851" lon="7.37003">
        <ele>286.20001220703</ele>
        <time>2013-09-27T14:45:08.000Z</time>
      </trkpt>
      <trkpt lat="48.77855" lon="7.37021">
        <ele>286</ele>
        <time>2013-09-27T14:45:16.000Z</time>
      </trkpt>
      <trkpt lat="48.77858" lon="7.3707">
        <ele>282.60000610352</ele>
        <time>2013-09-27T14:45:30.000Z</time>
      </trkpt>
      <trkpt lat="48.77859" lon="7.37102">
        <ele>279.20001220703</ele>
        <time>2013-09-27T14:45:36.000Z</time>
      </trkpt>
      <trkpt lat="48.77861" lon="7.37114">
        <ele>278</ele>
        <time>2013-09-27T14:45:38.000Z</time>
      </trkpt>
      <trkpt lat="48.77862" lon="7.37143">
        <ele>274</ele>
        <time>2013-09-27T14:45:43.000Z</time>
      </trkpt>
      <trkpt lat="48.77862" lon="7.37157">
        <ele>272.60000610352</ele>
        <time>2013-09-27T14:45:45.000Z</time>
      </trkpt>
      <trkpt lat="48.77869" lon="7.37188">
        <ele>268.20001220703</ele>
        <time>2013-09-27T14:45:50.000Z</time>
      </trkpt>
      <trkpt lat="48.7788" lon="7.37215">
        <ele>266.60000610352</ele>
        <time>2013-09-27T14:45:53.000Z</time>
      </trkpt>
      <trkpt lat="48.77889" lon="7.37254">
        <ele>266.20001220703</ele>
        <time>2013-09-27T14:45:58.000Z</time>
      </trkpt>
      <trkpt lat="48.77852" lon="7.37251">
        <ele>264.60000610352</ele>
        <time>2013-09-27T14:46:10.000Z</time>
      </trkpt>
      <trkpt lat="48.77817" lon="7.37226">
        <ele>262.60000610352</ele>
        <time>2013-09-27T14:46:18.000Z</time>
      </trkpt>
      <trkpt lat="48.77805" lon="7.37212">
        <ele>262</ele>
        <time>2013-09-27T14:46:21.000Z</time>
      </trkpt>
      <trkpt lat="48.77771" lon="7.37155">
        <ele>260.20001220703</ele>
        <time>2013-09-27T14:46:33.000Z</time>
      </trkpt>
      <trkpt lat="48.77758" lon="7.37136">
        <ele>259.20001220703</ele>
        <time>2013-09-27T14:46:37.000Z</time>
      </trkpt>
      <trkpt lat="48.77735" lon="7.37101">
        <ele>256</ele>
        <time>2013-09-27T14:46:44.000Z</time>
      </trkpt>
      <trkpt lat="48.77722" lon="7.37033">
        <ele>252.80000305176</ele>
        <time>2013-09-27T14:46:54.000Z</time>
      </trkpt>
      <trkpt lat="48.77724" lon="7.36984">
        <ele>249.80000305176</ele>
        <time>2013-09-27T14:46:59.000Z</time>
      </trkpt>
      <trkpt lat="48.77731" lon="7.36934">
        <ele>247</ele>
        <time>2013-09-27T14:47:04.000Z</time>
      </trkpt>
      <trkpt lat="48.77732" lon="7.36916">
        <ele>246.19999694824</ele>
        <time>2013-09-27T14:47:06.000Z</time>
      </trkpt>
      <trkpt lat="48.77717" lon="7.36888">
        <ele>245</ele>
        <time>2013-09-27T14:47:13.000Z</time>
      </trkpt>
      <trkpt lat="48.77716" lon="7.3688">
        <ele>244</ele>
        <time>2013-09-27T14:47:18.000Z</time>
      </trkpt>
      <trkpt lat="48.77701" lon="7.36901">
        <ele>244</ele>
        <time>2013-09-27T14:47:30.000Z</time>
      </trkpt>
      <trkpt lat="48.77676" lon="7.36935">
        <ele>243.80000305176</ele>
        <time>2013-09-27T14:47:41.000Z</time>
      </trkpt>
      <trkpt lat="48.77606" lon="7.36959">
        <ele>245.60000610352</ele>
        <time>2013-09-27T14:47:53.000Z</time>
      </trkpt>
      <trkpt lat="48.77563" lon="7.36947">
        <ele>247</ele>
        <time>2013-09-27T14:48:04.000Z</time>
      </trkpt>
      <trkpt lat="48.77526" lon="7.36929">
        <ele>249.60000610352</ele>
        <time>2013-09-27T14:48:17.000Z</time>
      </trkpt>
      <trkpt lat="48.77489" lon="7.36909">
        <ele>251.19999694824</ele>
        <time>2013-09-27T14:48:30.000Z</time>
      </trkpt>
      <trkpt lat="48.77452" lon="7.36847">
        <ele>253.80000305176</ele>
        <time>2013-09-27T14:48:47.000Z</time>
      </trkpt>
      <trkpt lat="48.77417" lon="7.36802">
        <ele>256</ele>
        <time>2013-09-27T14:49:04.000Z</time>
      </trkpt>
      <trkpt lat="48.77377" lon="7.36774">
        <ele>258.60000610352</ele>
        <time>2013-09-27T14:49:21.000Z</time>
      </trkpt>
      <trkpt lat="48.77345" lon="7.36741">
        <ele>259.20001220703</ele>
        <time>2013-09-27T14:49:37.000Z</time>
      </trkpt>
      <trkpt lat="48.77345" lon="7.36739">
        <ele>259.20001220703</ele>
        <time>2013-09-27T14:49:51.000Z</time>
      </trkpt>
      <trkpt lat="48.77345" lon="7.36738">
        <ele>259.60000610352</ele>
        <time>2013-09-27T14:50:05.000Z</time>
      </trkpt>
      <trkpt lat="48.77356" lon="7.36712">
        <ele>262.60000610352</ele>
        <time>2013-09-27T14:50:17.000Z</time>
      </trkpt>
      <trkpt lat="48.77365" lon="7.36693">
        <ele>263.60000610352</ele>
        <time>2013-09-27T14:50:30.000Z</time>
      </trkpt>
      <trkpt lat="48.77373" lon="7.36678">
        <ele>264.60000610352</ele>
        <time>2013-09-27T14:50:41.000Z</time>
      </trkpt>
      <trkpt lat="48.77373" lon="7.36678">
        <ele>265</ele>
        <time>2013-09-27T14:50:53.000Z</time>
      </trkpt>
    </trkseg>
  </trk>
</gpx>